Time,TemperatureF,DewpointF,PressureIn,WindDirection,WindDirectionDegrees,WindSpeedMPH,WindSpeedGustMPH,Humidity,HourlyPrecipIn,Conditions,Clouds,dailyrainin,SolarRadiationWatts/m^2,SoftwareType,DateUTC
2013-01-05 01:42:00,18.0,5.3,29.00,North,0,0.0,0.0,57,0.00,,,0.00,0.00,VWS V14.01,2013-01-05 07:42:00,
2013-01-05 01:47:00,19.8,9.9,29.00,North,0,0.0,0.0,65,0.00,,,0.00,0.00,VWS V14.01,2013-01-05 07:47:00,
2013-01-05 01:52:00,19.6,9.4,28.91,North,0,0.0,0.0,64,0.00,,,0.00,0.00,VWS V14.01,2013-01-05 07:52:00,
2013-01-05 01:57:00,19.2,9.1,28.91,North,0,0.0,0.0,64,0.00,,,0.00,0.00,VWS V14.01,2013-01-05 07:57:00,
2013-01-05 02:02:00,18.7,8.2,28.91,North,0,0.0,0.0,63,0.00,,,0.00,0.00,VWS V14.01,2013-01-05 08:02:00,
2013-01-05 02:07:00,18.3,7.8,28.91,North,0,0.0,0.0,63,0.00,,,0.00,0.00,VWS V14.01,2013-01-05 08:07:00,
2013-01-05 02:12:00,17.8,7.7,28.91,North,0,0.0,0.0,64,0.00,,,0.00,0.00,VWS V14.01,2013-01-05 08:12:00,
2013-01-05 02:17:00,17.2,7.2,28.91,North,0,0.0,0.0,64,0.00,,,0.00,0.00,VWS V14.01,2013-01-05 08:17:00,
2013-01-05 02:22:00,16.9,6.8,28.91,North,0,0.0,0.0,64,0.00,,,0.00,0.00,VWS V14.01,2013-01-05 08:22:00,
2013-01-05 02:27:00,17.1,7.3,28.91,North,0,0.0,0.0,65,0.00,,,0.00,0.00,VWS V14.01,2013-01-05 08:27:00,
2013-01-05 02:32:00,17.2,8.2,28.91,North,0,0.0,0.0,67,0.00,,,0.00,0.00,VWS V14.01,2013-01-05 08:32:00,
2013-01-05 02:37:00,17.1,8.0,28.91,North,0,0.0,0.0,67,0.00,,,0.00,0.00,VWS V14.01,2013-01-05 08:37:00,
2013-01-05 02:42:00,17.1,8.0,28.91,North,0,0.0,0.0,67,0.00,,,0.00,0.00,VWS V14.01,2013-01-05 08:42:00,
2013-01-05 02:43:00,18.0,5.3,29.00,North,0,0.0,0.0,57,0.00,,,0.00,0.00,VWS V14.01,2013-01-05 08:43:00,
2013-01-05 02:44:00,19.8,9.9,29.00,North,0,0.0,0.0,65,0.00,,,0.00,0.00,VWS V14.01,2013-01-05 08:44:00,
2013-01-05 02:45:00,19.8,9.9,29.00,North,0,0.0,0.0,65,0.00,,,0.00,0.00,VWS V14.01,2013-01-05 08:45:00,
2013-01-05 02:46:00,19.8,9.9,29.00,North,0,0.0,0.0,65,0.00,,,0.00,0.00,VWS V14.01,2013-01-05 08:46:00,
2013-01-05 02:47:00,16.9,8.2,28.91,North,0,0.0,0.0,68,0.00,,,0.00,0.00,VWS V14.01,2013-01-05 08:47:00,
2013-01-05 02:48:00,19.8,9.9,29.00,North,0,0.0,0.0,65,0.00,,,0.00,0.00,VWS V14.01,2013-01-05 08:48:00,
2013-01-05 02:49:00,19.8,9.9,29.00,North,0,0.0,0.0,65,0.00,,,0.00,0.00,VWS V14.01,2013-01-05 08:49:00,
2013-01-05 02:50:00,19.8,9.9,28.91,North,0,0.0,0.0,65,0.00,,,0.00,0.00,VWS V14.01,2013-01-05 08:50:00,
2013-01-05 02:51:00,19.6,9.4,28.91,North,0,0.0,0.0,64,0.00,,,0.00,0.00,VWS V14.01,2013-01-05 08:51:00,
2013-01-05 02:52:00,16.9,8.5,28.91,North,0,0.0,0.0,69,0.00,,,0.00,0.00,VWS V14.01,2013-01-05 08:52:00,
2013-01-05 02:53:00,19.6,9.4,28.91,North,0,0.0,0.0,64,0.00,,,0.00,0.00,VWS V14.01,2013-01-05 08:53:00,
2013-01-05 02:54:00,19.6,9.4,28.91,North,0,0.0,0.0,64,0.00,,,0.00,0.00,VWS V14.01,2013-01-05 08:54:00,
2013-01-05 02:55:00,19.6,9.4,28.91,North,0,0.0,0.0,64,0.00,,,0.00,0.00,VWS V14.01,2013-01-05 08:55:00,
2013-01-05 02:56:00,19.4,9.2,28.91,North,0,0.0,0.0,64,0.00,,,0.00,0.00,VWS V14.01,2013-01-05 08:56:00,
2013-01-05 02:57:00,16.5,7.8,28.91,North,0,0.0,0.0,68,0.00,,,0.00,0.00,VWS V14.01,2013-01-05 08:57:00,
2013-01-05 02:58:00,19.2,9.1,28.91,North,0,0.0,0.0,64,0.00,,,0.00,0.00,VWS V14.01,2013-01-05 08:58:00,
2013-01-05 02:59:00,19.0,8.9,28.91,North,0,0.0,0.0,64,0.00,,,0.00,0.00,VWS V14.01,2013-01-05 08:59:00,
2013-01-05 03:00:00,19.0,8.9,28.91,North,0,0.0,0.0,64,0.00,,,0.00,0.00,VWS V14.01,2013-01-05 09:00:00,
2013-01-05 03:01:00,19.0,8.9,28.91,North,0,0.0,0.0,64,0.00,,,0.00,0.00,VWS V14.01,2013-01-05 09:01:00,
2013-01-05 03:02:00,16.5,8.1,28.91,North,0,0.0,0.0,69,0.00,,,0.00,0.00,VWS V14.01,2013-01-05 09:02:00,
2013-01-05 03:03:00,18.7,8.2,28.91,North,0,0.0,0.0,63,0.00,,,0.00,0.00,VWS V14.01,2013-01-05 09:03:00,
2013-01-05 03:04:00,18.7,8.2,28.91,North,0,0.0,0.0,63,0.00,,,0.00,0.00,VWS V14.01,2013-01-05 09:04:00,
2013-01-05 03:05:00,18.5,8.0,28.91,North,0,0.0,0.0,63,0.00,,,0.00,0.00,VWS V14.01,2013-01-05 09:05:00,
2013-01-05 03:06:00,18.3,7.8,28.91,North,0,0.0,0.0,63,0.00,,,0.00,0.00,VWS V14.01,2013-01-05 09:06:00,
2013-01-05 03:07:00,16.7,8.6,28.91,North,0,0.0,0.0,70,0.00,,,0.00,0.00,VWS V14.01,2013-01-05 09:07:00,
2013-01-05 03:08:00,18.1,7.7,28.91,North,0,0.0,0.0,63,0.00,,,0.00,0.00,VWS V14.01,2013-01-05 09:08:00,
2013-01-05 03:09:00,18.1,7.7,28.91,North,0,0.0,0.0,63,0.00,,,0.00,0.00,VWS V14.01,2013-01-05 09:09:00,
2013-01-05 03:10:00,18.1,8.0,28.91,North,0,0.0,0.0,64,0.00,,,0.00,0.00,VWS V14.01,2013-01-05 09:10:00,
2013-01-05 03:11:00,18.0,7.8,28.91,North,0,0.0,0.0,64,0.00,,,0.00,0.00,VWS V14.01,2013-01-05 09:11:00,
2013-01-05 03:12:00,16.7,8.9,28.91,North,0,0.0,0.0,71,0.00,,,0.00,0.00,VWS V14.01,2013-01-05 09:12:00,
2013-01-05 03:13:00,17.8,7.7,28.91,North,0,0.0,0.0,64,0.00,,,0.00,0.00,VWS V14.01,2013-01-05 09:13:00,
2013-01-05 03:14:00,17.6,7.5,28.91,North,0,0.0,0.0,64,0.00,,,0.00,0.00,VWS V14.01,2013-01-05 09:14:00,
2013-01-05 03:15:00,17.6,7.5,28.91,North,0,0.0,0.0,64,0.00,,,0.00,0.00,VWS V14.01,2013-01-05 09:15:00,
2013-01-05 03:16:00,17.4,7.3,28.91,North,0,0.0,0.0,64,0.00,,,0.00,0.00,VWS V14.01,2013-01-05 09:16:00,
2013-01-05 03:17:00,16.9,9.7,28.91,North,0,0.0,0.0,73,0.00,,,0.00,0.00,VWS V14.01,2013-01-05 09:17:00,
2013-01-05 03:18:00,17.2,7.2,28.91,North,0,0.0,0.0,64,0.00,,,0.00,0.00,VWS V14.01,2013-01-05 09:18:00,
2013-01-05 03:19:00,17.1,7.0,28.91,North,0,0.0,0.0,64,0.00,,,0.00,0.00,VWS V14.01,2013-01-05 09:19:00,
2013-01-05 03:20:00,17.1,7.0,28.91,North,0,0.0,0.0,64,0.00,,,0.00,0.00,VWS V14.01,2013-01-05 09:20:00,
2013-01-05 03:21:00,17.1,7.0,28.91,North,0,0.0,0.0,64,0.00,,,0.00,0.00,VWS V14.01,2013-01-05 09:21:00,
2013-01-05 03:22:00,16.7,9.3,28.91,North,0,0.0,0.0,72,0.00,,,0.00,0.00,VWS V14.01,2013-01-05 09:22:00,
2013-01-05 03:23:00,16.9,6.8,28.91,North,0,0.0,0.0,64,0.00,,,0.00,0.00,VWS V14.01,2013-01-05 09:23:00,
2013-01-05 03:24:00,16.9,6.8,28.91,North,0,0.0,0.0,64,0.00,,,0.00,0.00,VWS V14.01,2013-01-05 09:24:00,
2013-01-05 03:25:00,16.9,7.2,28.91,North,0,0.0,0.0,65,0.00,,,0.00,0.00,VWS V14.01,2013-01-05 09:25:00,
2013-01-05 03:26:00,16.9,7.2,28.91,North,0,0.0,0.0,65,0.00,,,0.00,0.00,VWS V14.01,2013-01-05 09:26:00,
2013-01-05 03:27:00,16.3,8.9,28.91,North,0,0.0,0.0,72,0.00,,,0.00,0.00,VWS V14.01,2013-01-05 09:27:00,
2013-01-05 03:28:00,17.1,7.3,28.91,North,0,0.0,0.0,65,0.00,,,0.00,0.00,VWS V14.01,2013-01-05 09:28:00,
2013-01-05 03:29:00,17.2,7.8,28.91,North,0,0.0,0.0,66,0.00,,,0.00,0.00,VWS V14.01,2013-01-05 09:29:00,
2013-01-05 03:30:00,17.4,8.4,28.91,North,0,0.0,0.0,67,0.00,,,0.00,0.00,VWS V14.01,2013-01-05 09:30:00,
2013-01-05 03:31:00,17.2,8.2,28.91,North,0,0.0,0.0,67,0.00,,,0.00,0.00,VWS V14.01,2013-01-05 09:31:00,
2013-01-05 03:32:00,15.8,8.1,28.91,North,0,0.0,0.0,71,0.00,,,0.00,0.00,VWS V14.01,2013-01-05 09:32:00,
2013-01-05 03:33:00,17.2,8.2,28.91,North,0,0.0,0.0,67,0.00,,,0.00,0.00,VWS V14.01,2013-01-05 09:33:00,
2013-01-05 03:34:00,17.1,8.0,28.91,North,0,0.0,0.0,67,0.00,,,0.00,0.00,VWS V14.01,2013-01-05 09:34:00,
2013-01-05 03:35:00,17.1,8.0,28.91,North,0,0.0,0.0,67,0.00,,,0.00,0.00,VWS V14.01,2013-01-05 09:35:00,
2013-01-05 03:36:00,17.1,8.0,28.91,North,0,0.0,0.0,67,0.00,,,0.00,0.00,VWS V14.01,2013-01-05 09:36:00,
2013-01-05 03:37:00,15.4,7.4,28.91,North,0,0.0,0.0,70,0.00,,,0.00,0.00,VWS V14.01,2013-01-05 09:37:00,
2013-01-05 03:38:00,17.1,8.0,28.91,North,0,0.0,0.0,67,0.00,,,0.00,0.00,VWS V14.01,2013-01-05 09:38:00,
2013-01-05 03:39:00,17.2,8.2,28.91,North,0,0.0,0.0,67,0.00,,,0.00,0.00,VWS V14.01,2013-01-05 09:39:00,
2013-01-05 03:40:00,17.2,8.2,28.91,North,0,0.0,0.0,67,0.00,,,0.00,0.00,VWS V14.01,2013-01-05 09:40:00,
2013-01-05 03:41:00,17.1,8.0,28.91,North,0,0.0,0.0,67,0.00,,,0.00,0.00,VWS V14.01,2013-01-05 09:41:00,
2013-01-05 03:42:00,15.3,7.6,28.91,North,0,0.0,0.0,71,0.00,,,0.00,0.00,VWS V14.01,2013-01-05 09:42:00,
2013-01-05 03:43:00,17.1,8.0,28.91,North,0,0.0,0.0,67,0.00,,,0.00,0.00,VWS V14.01,2013-01-05 09:43:00,
2013-01-05 03:44:00,16.9,7.8,28.91,North,0,0.0,0.0,67,0.00,,,0.00,0.00,VWS V14.01,2013-01-05 09:44:00,
2013-01-05 03:45:00,16.9,7.8,28.91,North,0,0.0,0.0,67,0.00,,,0.00,0.00,VWS V14.01,2013-01-05 09:45:00,
2013-01-05 03:46:00,16.9,8.2,28.91,North,0,0.0,0.0,68,0.00,,,0.00,0.00,VWS V14.01,2013-01-05 09:46:00,
2013-01-05 03:47:00,14.9,7.5,28.91,North,0,0.0,0.0,72,0.00,,,0.00,0.00,VWS V14.01,2013-01-05 09:47:00,
2013-01-05 03:48:00,16.9,8.2,28.91,North,0,0.0,0.0,68,0.00,,,0.00,0.00,VWS V14.01,2013-01-05 09:48:00,
2013-01-05 03:49:00,16.9,8.2,28.91,North,0,0.0,0.0,68,0.00,,,0.00,0.00,VWS V14.01,2013-01-05 09:49:00,
2013-01-05 03:50:00,16.9,8.2,28.91,North,0,0.0,0.0,68,0.00,,,0.00,0.00,VWS V14.01,2013-01-05 09:50:00,
2013-01-05 03:51:00,16.9,8.2,28.91,North,0,0.0,0.0,68,0.00,,,0.00,0.00,VWS V14.01,2013-01-05 09:51:00,
2013-01-05 03:52:00,14.2,6.5,28.91,North,0,0.0,0.0,71,0.00,,,0.00,0.00,VWS V14.01,2013-01-05 09:52:00,
2013-01-05 03:53:00,16.9,8.5,28.91,North,0,0.0,0.0,69,0.00,,,0.00,0.00,VWS V14.01,2013-01-05 09:53:00,
2013-01-05 03:54:00,16.7,8.0,28.91,North,0,0.0,0.0,68,0.00,,,0.00,0.00,VWS V14.01,2013-01-05 09:54:00,
2013-01-05 03:55:00,16.5,7.8,28.91,North,0,0.0,0.0,68,0.00,,,0.00,0.00,VWS V14.01,2013-01-05 09:55:00,
2013-01-05 03:56:00,16.5,7.8,28.91,North,0,0.0,0.0,68,0.00,,,0.00,0.00,VWS V14.01,2013-01-05 09:56:00,
2013-01-05 03:57:00,13.8,6.2,28.91,North,0,0.0,0.0,71,0.00,,,0.00,0.00,VWS V14.01,2013-01-05 09:57:00,
2013-01-05 03:58:00,16.5,7.8,28.91,North,0,0.0,0.0,68,0.00,,,0.00,0.00,VWS V14.01,2013-01-05 09:58:00,
2013-01-05 03:59:00,16.5,7.8,28.91,North,0,0.0,0.0,68,0.00,,,0.00,0.00,VWS V14.01,2013-01-05 09:59:00,
2013-01-05 04:00:00,16.5,8.1,28.91,North,0,0.0,0.0,69,0.00,,,0.00,0.00,VWS V14.01,2013-01-05 10:00:00,
2013-01-05 04:01:00,16.5,8.1,28.91,North,0,0.0,0.0,69,0.00,,,0.00,0.00,VWS V14.01,2013-01-05 10:01:00,
2013-01-05 04:02:00,13.6,6.0,28.91,North,0,0.0,0.0,71,0.00,,,0.00,0.00,VWS V14.01,2013-01-05 10:02:00,
2013-01-05 04:03:00,16.5,8.1,28.91,North,0,0.0,0.0,69,0.00,,,0.00,0.00,VWS V14.01,2013-01-05 10:03:00,
2013-01-05 04:04:00,16.5,8.1,28.91,North,0,0.0,0.0,69,0.00,,,0.00,0.00,VWS V14.01,2013-01-05 10:04:00,
2013-01-05 04:05:00,16.7,8.6,28.91,North,0,0.0,0.0,70,0.00,,,0.00,0.00,VWS V14.01,2013-01-05 10:05:00,
2013-01-05 04:06:00,16.7,8.6,28.91,North,0,0.0,0.0,70,0.00,,,0.00,0.00,VWS V14.01,2013-01-05 10:06:00,
2013-01-05 04:07:00,13.1,5.5,28.91,North,0,0.0,0.0,71,0.00,,,0.00,0.00,VWS V14.01,2013-01-05 10:07:00,
2013-01-05 04:08:00,16.7,8.6,28.91,North,0,0.0,0.0,70,0.00,,,0.00,0.00,VWS V14.01,2013-01-05 10:08:00,
2013-01-05 04:09:00,16.7,8.6,28.91,North,0,0.0,0.0,70,0.00,,,0.00,0.00,VWS V14.01,2013-01-05 10:09:00,
2013-01-05 04:10:00,16.7,8.9,28.91,North,0,0.0,0.0,71,0.00,,,0.00,0.00,VWS V14.01,2013-01-05 10:10:00,
2013-01-05 04:11:00,16.7,8.9,28.91,North,0,0.0,0.0,71,0.00,,,0.00,0.00,VWS V14.01,2013-01-05 10:11:00,
2013-01-05 04:12:00,12.4,4.8,28.91,North,0,0.0,0.0,71,0.00,,,0.00,0.00,VWS V14.01,2013-01-05 10:12:00,
2013-01-05 04:13:00,16.7,8.9,28.91,North,0,0.0,0.0,71,0.00,,,0.00,0.00,VWS V14.01,2013-01-05 10:13:00,
2013-01-05 04:14:00,16.7,8.9,28.91,North,0,0.0,0.0,71,0.00,,,0.00,0.00,VWS V14.01,2013-01-05 10:14:00,
2013-01-05 04:15:00,16.9,9.4,28.91,North,0,0.0,0.0,72,0.00,,,0.00,0.00,VWS V14.01,2013-01-05 10:15:00,
2013-01-05 04:16:00,16.9,9.7,28.91,North,0,0.0,0.0,73,0.00,,,0.00,0.00,VWS V14.01,2013-01-05 10:16:00,
2013-01-05 04:17:00,12.2,4.6,28.91,North,0,0.0,0.0,71,0.00,,,0.00,0.00,VWS V14.01,2013-01-05 10:17:00,
2013-01-05 04:18:00,16.9,9.7,28.91,North,0,0.0,0.0,73,0.00,,,0.00,0.00,VWS V14.01,2013-01-05 10:18:00,
2013-01-05 04:19:00,16.9,9.7,28.91,North,0,0.0,0.0,73,0.00,,,0.00,0.00,VWS V14.01,2013-01-05 10:19:00,
2013-01-05 04:20:00,16.9,9.7,28.91,North,0,0.0,0.0,73,0.00,,,0.00,0.00,VWS V14.01,2013-01-05 10:20:00,
2013-01-05 04:21:00,16.7,9.3,28.91,North,0,0.0,0.0,72,0.00,,,0.00,0.00,VWS V14.01,2013-01-05 10:21:00,
2013-01-05 04:22:00,12.7,5.1,28.88,North,0,0.0,0.0,71,0.00,,,0.00,0.00,VWS V14.01,2013-01-05 10:22:00,
2013-01-05 04:23:00,16.7,9.3,28.91,North,0,0.0,0.0,72,0.00,,,0.00,0.00,VWS V14.01,2013-01-05 10:23:00,
2013-01-05 04:24:00,16.7,9.3,28.91,North,0,0.0,0.0,72,0.00,,,0.00,0.00,VWS V14.01,2013-01-05 10:24:00,
2013-01-05 04:25:00,16.7,9.3,28.91,North,0,0.0,0.0,72,0.00,,,0.00,0.00,VWS V14.01,2013-01-05 10:25:00,
2013-01-05 04:26:00,16.7,9.3,28.91,North,0,0.0,0.0,72,0.00,,,0.00,0.00,VWS V14.01,2013-01-05 10:26:00,
2013-01-05 04:27:00,14.2,8.3,28.88,North,0,0.0,0.0,77,0.00,,,0.00,0.00,VWS V14.01,2013-01-05 10:27:00,
2013-01-05 04:28:00,16.3,8.9,28.91,North,0,0.0,0.0,72,0.00,,,0.00,0.00,VWS V14.01,2013-01-05 10:28:00,
2013-01-05 04:29:00,16.2,8.4,28.91,North,0,0.0,0.0,71,0.00,,,0.00,0.00,VWS V14.01,2013-01-05 10:29:00,
2013-01-05 04:30:00,16.2,8.4,28.91,North,0,0.0,0.0,71,0.00,,,0.00,0.00,VWS V14.01,2013-01-05 10:30:00,
2013-01-05 04:31:00,16.0,8.2,28.91,North,0,0.0,0.0,71,0.00,,,0.00,0.00,VWS V14.01,2013-01-05 10:31:00,
2013-01-05 04:32:00,14.4,8.8,28.88,North,0,0.0,0.0,78,0.00,,,0.00,0.00,VWS V14.01,2013-01-05 10:32:00,
2013-01-05 04:33:00,15.8,8.1,28.91,North,0,0.0,0.0,71,0.00,,,0.00,0.00,VWS V14.01,2013-01-05 10:33:00,
2013-01-05 04:34:00,15.8,8.1,28.91,North,0,0.0,0.0,71,0.00,,,0.00,0.00,VWS V14.01,2013-01-05 10:34:00,
2013-01-05 04:35:00,15.4,7.4,28.91,North,0,0.0,0.0,70,0.00,,,0.00,0.00,VWS V14.01,2013-01-05 10:35:00,
2013-01-05 04:36:00,15.4,7.4,28.91,North,0,0.0,0.0,70,0.00,,,0.00,0.00,VWS V14.01,2013-01-05 10:36:00,
2013-01-05 04:37:00,13.8,8.0,28.88,North,0,0.0,0.0,77,0.00,,,0.00,0.00,VWS V14.01,2013-01-05 10:37:00,
2013-01-05 04:38:00,15.4,7.4,28.91,North,0,0.0,0.0,70,0.00,,,0.00,0.00,VWS V14.01,2013-01-05 10:38:00,
2013-01-05 04:39:00,15.4,7.4,28.91,North,0,0.0,0.0,70,0.00,,,0.00,0.00,VWS V14.01,2013-01-05 10:39:00,
2013-01-05 04:40:00,15.3,7.2,28.91,North,0,0.0,0.0,70,0.00,,,0.00,0.00,VWS V14.01,2013-01-05 10:40:00,
2013-01-05 04:41:00,15.3,7.2,28.91,North,0,0.0,0.0,70,0.00,,,0.00,0.00,VWS V14.01,2013-01-05 10:41:00,
2013-01-05 04:42:00,12.7,6.9,28.88,North,0,0.0,0.0,77,0.00,,,0.00,0.00,VWS V14.01,2013-01-05 10:42:00,
2013-01-05 04:43:00,15.3,7.6,28.91,North,0,0.0,0.0,71,0.00,,,0.00,0.00,VWS V14.01,2013-01-05 10:43:00,
2013-01-05 04:44:00,15.3,7.6,28.91,North,0,0.0,0.0,71,0.00,,,0.00,0.00,VWS V14.01,2013-01-05 10:44:00,
2013-01-05 04:45:00,15.1,7.7,28.91,North,0,0.0,0.0,72,0.00,,,0.00,0.00,VWS V14.01,2013-01-05 10:45:00,
2013-01-05 04:46:00,15.1,7.7,28.91,North,0,0.0,0.0,72,0.00,,,0.00,0.00,VWS V14.01,2013-01-05 10:46:00,
2013-01-05 04:47:00,11.8,6.0,28.88,North,0,0.0,0.0,77,0.00,,,0.00,0.00,VWS V14.01,2013-01-05 10:47:00,
2013-01-05 04:48:00,14.7,7.3,28.91,North,0,0.0,0.0,72,0.00,,,0.00,0.00,VWS V14.01,2013-01-05 10:48:00,
2013-01-05 04:49:00,14.5,7.2,28.91,North,0,0.0,0.0,72,0.00,,,0.00,0.00,VWS V14.01,2013-01-05 10:49:00,
2013-01-05 04:50:00,14.4,6.7,28.91,North,0,0.0,0.0,71,0.00,,,0.00,0.00,VWS V14.01,2013-01-05 10:50:00,
2013-01-05 04:51:00,14.4,6.7,28.91,North,0,0.0,0.0,71,0.00,,,0.00,0.00,VWS V14.01,2013-01-05 10:51:00,
2013-01-05 04:52:00,12.6,6.7,28.88,North,0,0.0,0.0,77,0.00,,,0.00,0.00,VWS V14.01,2013-01-05 10:52:00,
2013-01-05 04:53:00,14.0,6.3,28.91,North,0,0.0,0.0,71,0.00,,,0.00,0.00,VWS V14.01,2013-01-05 10:53:00,
2013-01-05 04:54:00,13.8,6.2,28.91,North,0,0.0,0.0,71,0.00,,,0.00,0.00,VWS V14.01,2013-01-05 10:54:00,
2013-01-05 04:55:00,13.8,6.2,28.91,North,0,0.0,0.0,71,0.00,,,0.00,0.00,VWS V14.01,2013-01-05 10:55:00,
2013-01-05 04:56:00,14.0,6.3,28.91,North,0,0.0,0.0,71,0.00,,,0.00,0.00,VWS V14.01,2013-01-05 10:56:00,
2013-01-05 04:57:00,12.6,6.7,28.88,North,0,0.0,0.0,77,0.00,,,0.00,0.00,VWS V14.01,2013-01-05 10:57:00,
2013-01-05 04:58:00,13.8,6.2,28.91,North,0,0.0,0.0,71,0.00,,,0.00,0.00,VWS V14.01,2013-01-05 10:58:00,
2013-01-05 04:59:00,13.8,6.2,28.91,North,0,0.0,0.0,71,0.00,,,0.00,0.00,VWS V14.01,2013-01-05 10:59:00,
2013-01-05 05:00:00,13.6,6.0,28.91,North,0,0.0,0.0,71,0.00,,,0.00,0.00,VWS V14.01,2013-01-05 11:00:00,
2013-01-05 05:01:00,13.6,6.0,28.91,North,0,0.0,0.0,71,0.00,,,0.00,0.00,VWS V14.01,2013-01-05 11:01:00,
2013-01-05 05:02:00,12.4,6.6,28.88,North,0,0.0,0.0,77,0.00,,,0.00,0.00,VWS V14.01,2013-01-05 11:02:00,
2013-01-05 05:03:00,13.5,5.8,28.91,North,0,0.0,0.0,71,0.00,,,0.00,0.00,VWS V14.01,2013-01-05 11:03:00,
2013-01-05 05:04:00,13.5,5.8,28.91,North,0,0.0,0.0,71,0.00,,,0.00,0.00,VWS V14.01,2013-01-05 11:04:00,
2013-01-05 05:05:00,13.5,5.8,28.91,North,0,0.0,0.0,71,0.00,,,0.00,0.00,VWS V14.01,2013-01-05 11:05:00,
2013-01-05 05:06:00,13.3,5.7,28.91,North,0,0.0,0.0,71,0.00,,,0.00,0.00,VWS V14.01,2013-01-05 11:06:00,
2013-01-05 05:07:00,12.0,6.2,28.88,North,0,0.0,0.0,77,0.00,,,0.00,0.00,VWS V14.01,2013-01-05 11:07:00,
2013-01-05 05:08:00,12.9,5.3,28.91,North,0,0.0,0.0,71,0.00,,,0.00,0.00,VWS V14.01,2013-01-05 11:08:00,
2013-01-05 05:09:00,12.9,5.3,28.91,North,0,0.0,0.0,71,0.00,,,0.00,0.00,VWS V14.01,2013-01-05 11:09:00,
2013-01-05 05:10:00,12.7,5.1,28.91,North,0,0.0,0.0,71,0.00,,,0.00,0.00,VWS V14.01,2013-01-05 11:10:00,
2013-01-05 05:11:00,12.6,5.0,28.91,North,0,0.0,0.0,71,0.00,,,0.00,0.00,VWS V14.01,2013-01-05 11:11:00,
2013-01-05 05:12:00,11.7,5.9,28.88,North,0,0.0,0.0,77,0.00,,,0.00,0.00,VWS V14.01,2013-01-05 11:12:00,
2013-01-05 05:13:00,12.4,4.8,28.91,North,0,0.0,0.0,71,0.00,,,0.00,0.00,VWS V14.01,2013-01-05 11:13:00,
2013-01-05 05:14:00,12.4,4.8,28.91,North,0,0.0,0.0,71,0.00,,,0.00,0.00,VWS V14.01,2013-01-05 11:14:00,
2013-01-05 05:15:00,12.2,4.6,28.91,North,0,0.0,0.0,71,0.00,,,0.00,0.00,VWS V14.01,2013-01-05 11:15:00,
2013-01-05 05:16:00,12.2,4.6,28.91,North,0,0.0,0.0,71,0.00,,,0.00,0.00,VWS V14.01,2013-01-05 11:16:00,
2013-01-05 05:17:00,10.9,5.2,28.88,North,0,0.0,0.0,77,0.00,,,0.00,0.00,VWS V14.01,2013-01-05 11:17:00,
2013-01-05 05:18:00,12.2,4.6,28.91,North,0,0.0,0.0,71,0.00,,,0.00,0.00,VWS V14.01,2013-01-05 11:18:00,
2013-01-05 05:19:00,12.2,4.6,28.91,North,0,0.0,0.0,71,0.00,,,0.00,0.00,VWS V14.01,2013-01-05 11:19:00,
2013-01-05 05:20:00,12.2,4.6,28.88,North,0,0.0,0.0,71,0.00,,,0.00,0.00,VWS V14.01,2013-01-05 11:20:00,
2013-01-05 05:21:00,12.4,4.8,28.88,North,0,0.0,0.0,71,0.00,,,0.00,0.00,VWS V14.01,2013-01-05 11:21:00,
2013-01-05 05:22:00,9.5,3.8,28.88,North,0,0.0,0.0,77,0.00,,,0.00,0.00,VWS V14.01,2013-01-05 11:22:00,
2013-01-05 05:23:00,12.7,5.1,28.88,North,0,0.0,0.0,71,0.00,,,0.00,0.00,VWS V14.01,2013-01-05 11:23:00,
2013-01-05 05:24:00,12.9,5.3,28.88,North,0,0.0,0.0,71,0.00,,,0.00,0.00,VWS V14.01,2013-01-05 11:24:00,
2013-01-05 05:25:00,13.3,5.7,28.88,North,0,0.0,0.0,71,0.00,,,0.00,0.00,VWS V14.01,2013-01-05 11:25:00,
2013-01-05 05:26:00,13.5,5.8,28.88,North,0,0.0,0.0,71,0.00,,,0.00,0.00,VWS V14.01,2013-01-05 11:26:00,
2013-01-05 05:27:00,8.8,3.1,28.88,North,0,0.0,0.0,77,0.00,,,0.00,0.00,VWS V14.01,2013-01-05 11:27:00,
2013-01-05 05:28:00,14.2,8.3,28.88,North,0,0.0,0.0,77,0.00,,,0.00,0.00,VWS V14.01,2013-01-05 11:28:00,
2013-01-05 05:29:00,14.2,8.6,28.88,North,0,0.0,0.0,78,0.00,,,0.00,0.00,VWS V14.01,2013-01-05 11:29:00,
2013-01-05 05:30:00,14.2,8.6,28.88,North,0,0.0,0.0,78,0.00,,,0.00,0.00,VWS V14.01,2013-01-05 11:30:00,
2013-01-05 05:31:00,14.4,8.8,28.88,North,0,0.0,0.0,78,0.00,,,0.00,0.00,VWS V14.01,2013-01-05 11:31:00,
2013-01-05 05:32:00,8.4,2.7,28.88,North,0,0.0,0.0,77,0.00,,,0.00,0.00,VWS V14.01,2013-01-05 11:32:00,
2013-01-05 05:33:00,14.4,8.8,28.88,North,0,0.0,0.0,78,0.00,,,0.00,0.00,VWS V14.01,2013-01-05 11:33:00,
2013-01-05 05:34:00,14.4,8.8,28.88,North,0,0.0,0.0,78,0.00,,,0.00,0.00,VWS V14.01,2013-01-05 11:34:00,
2013-01-05 05:35:00,14.4,8.8,28.88,North,0,0.0,0.0,78,0.00,,,0.00,0.00,VWS V14.01,2013-01-05 11:35:00,
2013-01-05 05:36:00,14.2,8.3,28.88,North,0,0.0,0.0,77,0.00,,,0.00,0.00,VWS V14.01,2013-01-05 11:36:00,
2013-01-05 05:37:00,8.4,2.7,28.88,North,0,0.0,0.0,77,0.00,,,0.00,0.00,VWS V14.01,2013-01-05 11:37:00,
2013-01-05 05:38:00,13.6,7.8,28.88,North,0,0.0,0.0,77,0.00,,,0.00,0.00,VWS V14.01,2013-01-05 11:38:00,
2013-01-05 05:39:00,13.3,7.4,28.88,North,0,0.0,0.0,77,0.00,,,0.00,0.00,VWS V14.01,2013-01-05 11:39:00,
2013-01-05 05:40:00,13.1,7.3,28.88,North,0,0.0,0.0,77,0.00,,,0.00,0.00,VWS V14.01,2013-01-05 11:40:00,
2013-01-05 05:41:00,12.9,7.1,28.88,North,0,0.0,0.0,77,0.00,,,0.00,0.00,VWS V14.01,2013-01-05 11:41:00,
2013-01-05 05:42:00,8.8,3.1,28.88,North,0,0.0,0.0,77,0.00,,,0.00,0.00,VWS V14.01,2013-01-05 11:42:00,
2013-01-05 05:43:00,12.7,6.9,28.88,North,0,0.0,0.0,77,0.00,,,0.00,0.00,VWS V14.01,2013-01-05 11:43:00,
2013-01-05 05:44:00,12.2,6.4,28.88,North,0,0.0,0.0,77,0.00,,,0.00,0.00,VWS V14.01,2013-01-05 11:44:00,
2013-01-05 05:45:00,12.0,6.2,28.88,North,0,0.0,0.0,77,0.00,,,0.00,0.00,VWS V14.01,2013-01-05 11:45:00,
2013-01-05 05:46:00,11.8,6.0,28.88,North,0,0.0,0.0,77,0.00,,,0.00,0.00,VWS V14.01,2013-01-05 11:46:00,
2013-01-05 05:47:00,9.7,3.9,28.88,North,0,0.0,0.0,77,0.00,,,0.00,0.00,VWS V14.01,2013-01-05 11:47:00,
2013-01-05 05:48:00,11.8,6.0,28.88,North,0,0.0,0.0,77,0.00,,,0.00,0.00,VWS V14.01,2013-01-05 11:48:00,
2013-01-05 05:49:00,12.0,6.2,28.88,North,0,0.0,0.0,77,0.00,,,0.00,0.00,VWS V14.01,2013-01-05 11:49:00,
2013-01-05 05:50:00,12.0,6.2,28.88,North,0,0.0,0.0,77,0.00,,,0.00,0.00,VWS V14.01,2013-01-05 11:50:00,
2013-01-05 05:51:00,12.2,6.4,28.88,North,0,0.0,0.0,77,0.00,,,0.00,0.00,VWS V14.01,2013-01-05 11:51:00,
2013-01-05 05:52:00,11.5,5.7,28.88,North,0,0.0,0.0,77,0.00,,,0.00,0.00,VWS V14.01,2013-01-05 11:52:00,
2013-01-05 05:53:00,12.6,6.7,28.88,North,0,0.0,0.0,77,0.00,,,0.00,0.00,VWS V14.01,2013-01-05 11:53:00,
2013-01-05 05:54:00,12.7,6.9,28.88,North,0,0.0,0.0,77,0.00,,,0.00,0.00,VWS V14.01,2013-01-05 11:54:00,
2013-01-05 05:55:00,12.7,6.9,28.88,North,0,0.0,0.0,77,0.00,,,0.00,0.00,VWS V14.01,2013-01-05 11:55:00,
2013-01-05 05:56:00,12.6,6.7,28.88,North,0,0.0,0.0,77,0.00,,,0.00,0.00,VWS V14.01,2013-01-05 11:56:00,
2013-01-05 05:57:00,12.4,6.6,28.88,North,0,0.0,0.0,77,0.00,,,0.00,0.00,VWS V14.01,2013-01-05 11:57:00,
2013-01-05 05:58:00,12.6,6.7,28.88,North,0,0.0,0.0,77,0.00,,,0.00,0.00,VWS V14.01,2013-01-05 11:58:00,
2013-01-05 05:59:00,12.4,6.6,28.88,North,0,0.0,0.0,77,0.00,,,0.00,0.00,VWS V14.01,2013-01-05 11:59:00,
2013-01-05 06:00:00,12.6,6.7,28.88,North,0,0.0,0.0,77,0.00,,,0.00,0.00,VWS V14.01,2013-01-05 12:00:00,
2013-01-05 06:01:00,12.4,6.6,28.88,North,0,0.0,0.0,77,0.00,,,0.00,0.00,VWS V14.01,2013-01-05 12:01:00,
2013-01-05 06:02:00,12.6,6.7,28.88,North,0,0.0,0.0,77,0.00,,,0.00,0.00,VWS V14.01,2013-01-05 12:02:00,
2013-01-05 06:03:00,12.2,6.4,28.88,North,0,0.0,0.0,77,0.00,,,0.00,0.00,VWS V14.01,2013-01-05 12:03:00,
2013-01-05 06:04:00,12.2,6.4,28.88,North,0,0.0,0.0,77,0.00,,,0.00,0.00,VWS V14.01,2013-01-05 12:04:00,
2013-01-05 06:05:00,12.2,6.4,28.88,North,0,0.0,0.0,77,0.00,,,0.00,0.00,VWS V14.01,2013-01-05 12:05:00,
2013-01-05 06:06:00,12.2,6.4,28.88,North,0,0.0,0.0,77,0.00,,,0.00,0.00,VWS V14.01,2013-01-05 12:06:00,
2013-01-05 06:07:00,13.1,7.3,28.85,North,0,0.0,0.0,77,0.00,,,0.00,0.00,VWS V14.01,2013-01-05 12:07:00,
2013-01-05 06:08:00,12.0,6.2,28.88,North,0,0.0,0.0,77,0.00,,,0.00,0.00,VWS V14.01,2013-01-05 12:08:00,
2013-01-05 06:09:00,11.8,6.0,28.88,North,0,0.0,0.0,77,0.00,,,0.00,0.00,VWS V14.01,2013-01-05 12:09:00,
2013-01-05 06:10:00,11.8,6.0,28.88,North,0,0.0,0.0,77,0.00,,,0.00,0.00,VWS V14.01,2013-01-05 12:10:00,
2013-01-05 06:11:00,11.8,6.0,28.88,North,0,0.0,0.0,77,0.00,,,0.00,0.00,VWS V14.01,2013-01-05 12:11:00,
2013-01-05 06:12:00,14.0,10.1,28.85,North,0,0.0,0.0,84,0.00,,,0.00,0.00,VWS V14.01,2013-01-05 12:12:00,
2013-01-05 06:13:00,11.7,5.9,28.88,North,0,0.0,0.0,77,0.00,,,0.00,0.00,VWS V14.01,2013-01-05 12:13:00,
2013-01-05 06:14:00,11.5,5.7,28.88,North,0,0.0,0.0,77,0.00,,,0.00,0.00,VWS V14.01,2013-01-05 12:14:00,
2013-01-05 06:15:00,11.3,5.5,28.88,North,0,0.0,0.0,77,0.00,,,0.00,0.00,VWS V14.01,2013-01-05 12:15:00,
2013-01-05 06:16:00,11.3,5.5,28.88,North,0,0.0,0.0,77,0.00,,,0.00,0.00,VWS V14.01,2013-01-05 12:16:00,
2013-01-05 06:17:00,14.4,10.7,28.85,North,0,0.0,0.0,85,0.00,,,0.00,0.00,VWS V14.01,2013-01-05 12:17:00,
2013-01-05 06:18:00,10.6,4.8,28.88,North,0,0.0,0.0,77,0.00,,,0.00,0.00,VWS V14.01,2013-01-05 12:18:00,
2013-01-05 06:19:00,10.4,4.6,28.88,North,0,0.0,0.0,77,0.00,,,0.00,0.00,VWS V14.01,2013-01-05 12:19:00,
2013-01-05 06:20:00,10.0,4.3,28.88,North,0,0.0,0.0,77,0.00,,,0.00,0.00,VWS V14.01,2013-01-05 12:20:00,
2013-01-05 06:21:00,10.0,4.3,28.88,North,0,0.0,0.0,77,0.00,,,0.00,0.00,VWS V14.01,2013-01-05 12:21:00,
2013-01-05 06:22:00,14.4,10.4,28.85,North,0,0.0,0.0,84,0.00,,,0.00,0.00,VWS V14.01,2013-01-05 12:22:00,
2013-01-05 06:23:00,9.3,3.6,28.88,North,0,0.0,0.0,77,0.00,,,0.00,0.00,VWS V14.01,2013-01-05 12:23:00,
2013-01-05 06:24:00,9.1,3.4,28.88,North,0,0.0,0.0,77,0.00,,,0.00,0.00,VWS V14.01,2013-01-05 12:24:00,
2013-01-05 06:25:00,9.1,3.4,28.88,North,0,0.0,0.0,77,0.00,,,0.00,0.00,VWS V14.01,2013-01-05 12:25:00,
2013-01-05 06:26:00,8.8,3.1,28.88,North,0,0.0,0.0,77,0.00,,,0.00,0.00,VWS V14.01,2013-01-05 12:26:00,
2013-01-05 06:27:00,14.9,11.2,28.85,North,0,0.0,0.0,85,0.00,,,0.00,0.00,VWS V14.01,2013-01-05 12:27:00,
2013-01-05 06:28:00,8.8,3.1,28.88,North,0,0.0,0.0,77,0.00,,,0.00,0.00,VWS V14.01,2013-01-05 12:28:00,
2013-01-05 06:29:00,8.6,2.9,28.88,North,0,0.0,0.0,77,0.00,,,0.00,0.00,VWS V14.01,2013-01-05 12:29:00,
2013-01-05 06:30:00,8.6,2.9,28.88,North,0,0.0,0.0,77,0.00,,,0.00,0.00,VWS V14.01,2013-01-05 12:30:00,
2013-01-05 06:31:00,8.4,2.7,28.88,North,0,0.0,0.0,77,0.00,,,0.00,0.00,VWS V14.01,2013-01-05 12:31:00,
2013-01-05 06:32:00,15.4,12.0,28.85,North,0,0.0,0.0,86,0.00,,,0.00,0.00,VWS V14.01,2013-01-05 12:32:00,
2013-01-05 06:33:00,8.2,2.5,28.88,North,0,0.0,0.0,77,0.00,,,0.00,0.00,VWS V14.01,2013-01-05 12:33:00,
2013-01-05 06:34:00,8.2,2.5,28.88,North,0,0.0,0.0,77,0.00,,,0.00,0.00,VWS V14.01,2013-01-05 12:34:00,
2013-01-05 06:35:00,8.2,2.5,28.88,North,0,0.0,0.0,77,0.00,,,0.00,0.00,VWS V14.01,2013-01-05 12:35:00,
2013-01-05 06:36:00,8.2,2.5,28.88,North,0,0.0,0.0,77,0.00,,,0.00,0.00,VWS V14.01,2013-01-05 12:36:00,
2013-01-05 06:37:00,16.0,12.8,28.82,North,0,0.0,0.0,87,0.00,,,0.00,0.00,VWS V14.01,2013-01-05 12:37:00,
2013-01-05 06:38:00,8.4,2.7,28.88,North,0,0.0,0.0,77,0.00,,,0.00,0.00,VWS V14.01,2013-01-05 12:38:00,
2013-01-05 06:39:00,8.4,2.7,28.88,North,0,0.0,0.0,77,0.00,,,0.00,0.00,VWS V14.01,2013-01-05 12:39:00,
2013-01-05 06:40:00,8.6,2.9,28.88,North,0,0.0,0.0,77,0.00,,,0.00,0.00,VWS V14.01,2013-01-05 12:40:00,
2013-01-05 06:41:00,8.6,2.9,28.88,North,0,0.0,0.0,77,0.00,,,0.00,0.00,VWS V14.01,2013-01-05 12:41:00,
2013-01-05 06:42:00,16.5,13.6,28.82,North,0,0.0,0.0,88,0.00,,,0.00,0.00,VWS V14.01,2013-01-05 12:42:00,
2013-01-05 06:43:00,8.8,3.1,28.88,North,0,0.0,0.0,77,0.00,,,0.00,0.00,VWS V14.01,2013-01-05 12:43:00,
2013-01-05 06:44:00,8.8,3.1,28.88,North,0,0.0,0.0,77,0.00,,,0.00,0.00,VWS V14.01,2013-01-05 12:44:00,
2013-01-05 06:45:00,9.1,3.4,28.88,North,0,0.0,0.0,77,0.00,,,0.00,0.00,VWS V14.01,2013-01-05 12:45:00,
2013-01-05 06:46:00,9.3,3.6,28.88,North,0,0.0,0.0,77,0.00,,,0.00,0.00,VWS V14.01,2013-01-05 12:46:00,
2013-01-05 06:47:00,17.1,14.4,28.82,North,0,0.0,0.0,89,0.00,,,0.00,0.00,VWS V14.01,2013-01-05 12:47:00,
2013-01-05 06:48:00,10.0,4.3,28.88,North,0,0.0,0.0,77,0.00,,,0.00,0.00,VWS V14.01,2013-01-05 12:48:00,
2013-01-05 06:49:00,10.4,4.6,28.88,North,0,0.0,0.0,77,0.00,,,0.00,0.00,VWS V14.01,2013-01-05 12:49:00,
2013-01-05 06:50:00,10.8,5.0,28.88,North,0,0.0,0.0,77,0.00,,,0.00,0.00,VWS V14.01,2013-01-05 12:50:00,
2013-01-05 06:51:00,10.9,5.2,28.88,North,0,0.0,0.0,77,0.00,,,0.00,0.00,VWS V14.01,2013-01-05 12:51:00,
2013-01-05 06:52:00,17.4,14.7,28.85,North,0,0.0,0.0,89,0.00,,,0.00,0.00,VWS V14.01,2013-01-05 12:52:00,
2013-01-05 06:53:00,11.7,5.9,28.88,North,0,0.0,0.0,77,0.00,,,0.00,0.00,VWS V14.01,2013-01-05 12:53:00,
2013-01-05 06:54:00,11.8,6.0,28.88,North,0,0.0,0.0,77,0.00,,,0.00,0.00,VWS V14.01,2013-01-05 12:54:00,
2013-01-05 06:55:00,12.2,6.4,28.88,North,0,0.0,0.0,77,0.00,,,0.00,0.00,VWS V14.01,2013-01-05 12:55:00,
2013-01-05 06:56:00,12.4,6.6,28.88,North,0,0.0,0.0,77,0.00,,,0.00,0.00,VWS V14.01,2013-01-05 12:56:00,
2013-01-05 06:57:00,17.4,14.5,28.85,North,0,0.0,0.0,88,0.00,,,0.00,0.00,VWS V14.01,2013-01-05 12:57:00,
2013-01-05 06:58:00,12.4,6.6,28.88,North,0,0.0,0.0,77,0.00,,,0.00,0.00,VWS V14.01,2013-01-05 12:58:00,
2013-01-05 06:59:00,12.6,6.7,28.88,North,0,0.0,0.0,77,0.00,,,0.00,0.00,VWS V14.01,2013-01-05 12:59:00,
2013-01-05 07:00:00,12.6,6.7,28.88,North,0,0.0,0.0,77,0.00,,,0.00,0.00,VWS V14.01,2013-01-05 13:00:00,
2013-01-05 07:01:00,12.6,6.7,28.88,North,0,0.0,0.0,77,0.00,,,0.00,0.00,VWS V14.01,2013-01-05 13:01:00,
2013-01-05 07:02:00,17.6,14.4,28.85,North,0,0.0,0.0,87,0.00,,,0.00,0.00,VWS V14.01,2013-01-05 13:02:00,
2013-01-05 07:03:00,12.7,6.9,28.88,North,0,0.0,0.0,77,0.00,,,0.00,0.00,VWS V14.01,2013-01-05 13:03:00,
2013-01-05 07:04:00,12.7,6.9,28.88,North,0,0.0,0.0,77,0.00,,,0.00,0.00,VWS V14.01,2013-01-05 13:04:00,
2013-01-05 07:05:00,12.9,7.1,28.85,North,0,0.0,0.0,77,0.00,,,0.00,0.00,VWS V14.01,2013-01-05 13:05:00,
2013-01-05 07:06:00,12.9,7.1,28.85,North,0,0.0,0.0,77,0.00,,,0.00,0.00,VWS V14.01,2013-01-05 13:06:00,
2013-01-05 07:07:00,17.8,14.6,28.85,North,0,0.0,0.0,87,0.00,,,0.00,0.00,VWS V14.01,2013-01-05 13:07:00,
2013-01-05 07:08:00,13.3,7.4,28.85,North,0,0.0,0.0,77,0.00,,,0.00,0.00,VWS V14.01,2013-01-05 13:08:00,
2013-01-05 07:09:00,13.5,7.6,28.85,North,0,0.0,0.0,77,0.00,,,0.00,0.00,VWS V14.01,2013-01-05 13:09:00,
2013-01-05 07:10:00,13.5,7.6,28.85,North,0,0.0,0.0,77,0.00,,,0.00,0.00,VWS V14.01,2013-01-05 13:10:00,
2013-01-05 07:11:00,13.6,7.8,28.85,North,0,0.0,0.0,77,0.00,,,0.00,0.00,VWS V14.01,2013-01-05 13:11:00,
2013-01-05 07:12:00,17.4,14.0,28.85,North,0,0.0,0.0,86,0.00,,,0.00,0.00,VWS V14.01,2013-01-05 13:12:00,
2013-01-05 07:13:00,14.0,10.1,28.85,North,0,0.0,0.0,84,0.00,,,0.00,0.00,VWS V14.01,2013-01-05 13:13:00,
2013-01-05 07:14:00,14.2,10.2,28.85,North,0,0.0,0.0,84,0.00,,,0.00,0.00,VWS V14.01,2013-01-05 13:14:00,
2013-01-05 07:15:00,14.2,10.5,28.85,North,0,0.0,0.0,85,0.00,,,0.00,0.00,VWS V14.01,2013-01-05 13:15:00,
2013-01-05 07:16:00,14.4,10.7,28.85,North,0,0.0,0.0,85,0.00,,,0.00,0.00,VWS V14.01,2013-01-05 13:16:00,
2013-01-05 07:17:00,16.9,12.9,28.85,North,0,0.0,0.0,84,0.00,,,0.00,0.00,VWS V14.01,2013-01-05 13:17:00,
2013-01-05 07:18:00,14.2,10.5,28.85,North,0,0.0,0.0,85,0.00,,,0.00,0.00,VWS V14.01,2013-01-05 13:18:00,
2013-01-05 07:19:00,14.2,10.5,28.85,North,0,0.0,0.0,85,0.00,,,0.00,0.00,VWS V14.01,2013-01-05 13:19:00,
2013-01-05 07:20:00,14.2,10.5,28.85,North,0,0.0,0.0,85,0.00,,,0.00,0.00,VWS V14.01,2013-01-05 13:20:00,
2013-01-05 07:21:00,14.2,10.5,28.85,North,0,0.0,0.0,85,0.00,,,0.00,0.00,VWS V14.01,2013-01-05 13:21:00,
2013-01-05 07:22:00,17.2,13.2,28.85,North,0,0.0,0.0,84,0.00,,,0.00,0.00,VWS V14.01,2013-01-05 13:22:00,
2013-01-05 07:23:00,14.5,10.6,28.85,North,0,0.0,0.0,84,0.00,,,0.00,0.00,VWS V14.01,2013-01-05 13:23:00,
2013-01-05 07:24:00,14.5,10.6,28.85,North,0,0.0,0.0,84,0.00,,,0.00,0.00,VWS V14.01,2013-01-05 13:24:00,
2013-01-05 07:25:00,14.5,10.6,28.85,North,0,0.0,0.0,84,0.00,,,0.00,0.00,VWS V14.01,2013-01-05 13:25:00,
2013-01-05 07:26:00,14.9,11.2,28.85,North,0,0.0,0.0,85,0.00,,,0.00,0.00,VWS V14.01,2013-01-05 13:26:00,
2013-01-05 07:27:00,17.2,13.2,28.85,North,0,0.0,0.0,84,0.00,,,0.00,0.00,VWS V14.01,2013-01-05 13:27:00,
2013-01-05 07:28:00,14.9,11.2,28.85,North,0,0.0,0.0,85,0.00,,,0.00,0.00,VWS V14.01,2013-01-05 13:28:00,
2013-01-05 07:29:00,15.1,11.4,28.85,North,0,0.0,0.0,85,0.00,,,0.00,0.00,VWS V14.01,2013-01-05 13:29:00,
2013-01-05 07:30:00,15.1,11.6,28.85,North,0,0.0,0.0,86,0.00,,,0.00,0.00,VWS V14.01,2013-01-05 13:30:00,
2013-01-05 07:31:00,15.3,11.8,28.85,North,0,0.0,0.0,86,0.00,,,0.00,0.00,VWS V14.01,2013-01-05 13:31:00,
2013-01-05 07:32:00,17.4,13.4,28.85,North,0,0.0,0.0,84,0.00,,,0.00,0.00,VWS V14.01,2013-01-05 13:32:00,
2013-01-05 07:33:00,15.4,12.0,28.85,North,0,0.0,0.0,86,0.00,,,0.00,0.00,VWS V14.01,2013-01-05 13:33:00,
2013-01-05 07:34:00,15.4,12.0,28.85,North,0,0.0,0.0,86,0.00,,,0.00,0.00,VWS V14.01,2013-01-05 13:34:00,
2013-01-05 07:35:00,15.4,12.3,28.82,North,0,0.0,0.0,87,0.00,,,0.00,0.00,VWS V14.01,2013-01-05 13:35:00,
2013-01-05 07:36:00,15.6,12.4,28.82,North,0,0.0,0.0,87,0.00,,,0.00,0.00,VWS V14.01,2013-01-05 13:36:00,
2013-01-05 07:37:00,15.8,12.6,28.82,North,0,0.0,0.0,87,0.00,,,0.00,0.00,VWS V14.01,2013-01-05 13:37:00,
2013-01-05 07:38:00,16.0,12.8,28.82,North,0,0.0,0.0,87,0.00,,,0.00,0.00,VWS V14.01,2013-01-05 13:38:00,
2013-01-05 07:39:00,16.2,13.0,28.82,North,0,0.0,0.0,87,0.00,,,0.00,0.00,VWS V14.01,2013-01-05 13:39:00,
2013-01-05 07:40:00,16.5,13.3,28.82,North,0,0.0,0.0,87,0.00,,,0.00,0.00,VWS V14.01,2013-01-05 13:40:00,
2013-01-05 07:41:00,16.5,13.6,28.82,North,0,0.0,0.0,88,0.00,,,0.00,0.00,VWS V14.01,2013-01-05 13:41:00,
2013-01-05 07:42:00,16.5,13.6,28.82,North,0,0.0,0.0,88,0.00,,,0.00,0.00,VWS V14.01,2013-01-05 13:42:00,
2013-01-05 07:43:00,16.7,13.8,28.82,North,0,0.0,0.0,88,0.00,,,0.00,0.00,VWS V14.01,2013-01-05 13:43:00,
2013-01-05 07:44:00,16.7,13.8,28.82,North,0,0.0,0.0,88,0.00,,,0.00,0.00,VWS V14.01,2013-01-05 13:44:00,
2013-01-05 07:45:00,16.7,13.8,28.82,North,0,0.0,0.0,88,0.00,,,0.00,0.00,VWS V14.01,2013-01-05 13:45:00,
2013-01-05 07:46:00,16.9,14.2,28.82,North,0,0.0,0.0,89,0.00,,,0.00,0.00,VWS V14.01,2013-01-05 13:46:00,
2013-01-05 07:47:00,17.1,14.4,28.82,North,0,0.0,0.0,89,0.00,,,0.00,0.00,VWS V14.01,2013-01-05 13:47:00,
2013-01-05 07:48:00,17.1,14.4,28.82,North,0,0.0,0.0,89,0.00,,,0.00,0.00,VWS V14.01,2013-01-05 13:48:00,
2013-01-05 07:49:00,17.2,14.6,28.82,North,0,0.0,0.0,89,0.00,,,0.00,0.00,VWS V14.01,2013-01-05 13:49:00,
2013-01-05 07:50:00,17.6,13.6,28.85,North,0,0.0,0.0,84,0.00,,,0.00,0.00,VWS V14.01,2013-01-05 13:50:00,
2013-01-05 07:51:00,17.4,14.7,28.85,North,0,0.0,0.0,89,0.00,,,0.00,0.00,VWS V14.01,2013-01-05 13:51:00,
2013-01-05 07:52:00,17.4,14.7,28.85,North,0,0.0,0.0,89,0.00,,,0.00,0.00,VWS V14.01,2013-01-05 13:52:00,
2013-01-05 07:53:00,17.4,14.7,28.85,North,0,0.0,0.0,89,0.00,,,0.00,0.00,VWS V14.01,2013-01-05 13:53:00,
2013-01-05 07:54:00,17.4,14.7,28.85,North,0,0.0,0.0,89,0.00,,,0.00,0.00,VWS V14.01,2013-01-05 13:54:00,
2013-01-05 07:55:00,17.8,13.5,28.85,North,0,0.0,0.0,83,0.00,,,0.00,0.00,VWS V14.01,2013-01-05 13:55:00,
2013-01-05 07:56:00,17.4,14.5,28.85,North,0,0.0,0.0,88,0.00,,,0.00,0.00,VWS V14.01,2013-01-05 13:56:00,
2013-01-05 07:57:00,17.4,14.5,28.85,North,0,0.0,0.0,88,0.00,,,0.00,0.00,VWS V14.01,2013-01-05 13:57:00,
2013-01-05 07:58:00,17.4,14.5,28.85,North,0,0.0,0.0,88,0.00,,,0.00,0.00,VWS V14.01,2013-01-05 13:58:00,
2013-01-05 07:59:00,17.4,14.5,28.85,North,0,0.0,0.0,88,0.00,,,0.00,0.00,VWS V14.01,2013-01-05 13:59:00,
2013-01-05 08:00:00,18.0,13.9,28.85,North,0,0.0,0.0,84,0.00,,,0.00,0.00,VWS V14.01,2013-01-05 14:00:00,
2013-01-05 08:01:00,17.6,14.4,28.85,North,0,0.0,0.0,87,0.00,,,0.00,0.00,VWS V14.01,2013-01-05 14:01:00,
2013-01-05 08:02:00,17.6,14.4,28.85,North,0,0.0,0.0,87,0.00,,,0.00,0.00,VWS V14.01,2013-01-05 14:02:00,
2013-01-05 08:03:00,17.8,14.6,28.85,North,0,0.0,0.0,87,0.00,,,0.00,0.00,VWS V14.01,2013-01-05 14:03:00,
2013-01-05 08:04:00,17.8,14.6,28.85,North,0,0.0,0.0,87,0.00,,,0.00,0.00,VWS V14.01,2013-01-05 14:04:00,
2013-01-05 08:05:00,18.3,14.3,28.88,North,0,0.0,0.0,84,0.00,,,0.00,0.00,VWS V14.01,2013-01-05 14:05:00,
2013-01-05 08:06:00,17.8,14.6,28.85,North,0,0.0,0.0,87,0.00,,,0.00,0.00,VWS V14.01,2013-01-05 14:06:00,
2013-01-05 08:07:00,17.8,14.6,28.85,North,0,0.0,0.0,87,0.00,,,0.00,0.00,VWS V14.01,2013-01-05 14:07:00,
2013-01-05 08:08:00,17.8,14.6,28.85,North,0,0.0,0.0,87,0.00,,,0.00,0.00,VWS V14.01,2013-01-05 14:08:00,
2013-01-05 08:09:00,17.6,14.4,28.85,North,0,0.0,0.0,87,0.00,,,0.00,0.00,VWS V14.01,2013-01-05 14:09:00,
2013-01-05 08:10:00,18.7,14.9,28.88,North,0,0.0,0.0,85,0.00,,,0.00,0.00,VWS V14.01,2013-01-05 14:10:00,
2013-01-05 08:11:00,17.6,14.1,28.85,North,0,0.0,0.0,86,0.00,,,0.00,0.00,VWS V14.01,2013-01-05 14:11:00,
2013-01-05 08:12:00,17.4,14.0,28.85,North,0,0.0,0.0,86,0.00,,,0.00,0.00,VWS V14.01,2013-01-05 14:12:00,
2013-01-05 08:13:00,17.4,14.0,28.85,North,0,0.0,0.0,86,0.00,,,0.00,0.00,VWS V14.01,2013-01-05 14:13:00,
2013-01-05 08:14:00,17.2,13.5,28.85,North,0,0.0,0.0,85,0.00,,,0.00,0.00,VWS V14.01,2013-01-05 14:14:00,
2013-01-05 08:15:00,19.2,15.7,28.88,North,0,0.0,0.0,86,0.00,,,0.00,0.00,VWS V14.01,2013-01-05 14:15:00,
2013-01-05 08:16:00,17.1,13.3,28.85,North,0,0.0,0.0,85,0.00,,,0.00,0.00,VWS V14.01,2013-01-05 14:16:00,
2013-01-05 08:17:00,16.9,12.9,28.85,North,0,0.0,0.0,84,0.00,,,0.00,0.00,VWS V14.01,2013-01-05 14:17:00,
2013-01-05 08:18:00,16.9,12.9,28.85,North,0,0.0,0.0,84,0.00,,,0.00,0.00,VWS V14.01,2013-01-05 14:18:00,
2013-01-05 08:19:00,16.9,12.9,28.85,North,0,0.0,0.0,84,0.00,,,0.00,0.00,VWS V14.01,2013-01-05 14:19:00,
2013-01-05 08:20:00,19.4,16.2,28.85,North,0,0.0,0.0,87,0.00,,,0.00,0.00,VWS V14.01,2013-01-05 14:20:00,
2013-01-05 08:21:00,17.1,13.1,28.85,North,0,0.0,0.0,84,0.00,,,0.00,0.00,VWS V14.01,2013-01-05 14:21:00,
2013-01-05 08:22:00,17.2,13.2,28.85,North,0,0.0,0.0,84,0.00,,,0.00,0.00,VWS V14.01,2013-01-05 14:22:00,
2013-01-05 08:23:00,17.2,13.2,28.85,North,0,0.0,0.0,84,0.00,,,0.00,0.00,VWS V14.01,2013-01-05 14:23:00,
2013-01-05 08:24:00,17.2,13.2,28.85,North,0,0.0,0.0,84,0.00,,,0.00,0.00,VWS V14.01,2013-01-05 14:24:00,
2013-01-05 08:25:00,19.6,16.4,28.85,North,0,0.0,0.0,87,0.00,,,0.00,0.00,VWS V14.01,2013-01-05 14:25:00,
2013-01-05 08:26:00,17.2,13.2,28.85,North,0,0.0,0.0,84,0.00,,,0.00,0.00,VWS V14.01,2013-01-05 14:26:00,
2013-01-05 08:27:00,17.2,13.2,28.85,North,0,0.0,0.0,84,0.00,,,0.00,0.00,VWS V14.01,2013-01-05 14:27:00,
2013-01-05 08:28:00,17.2,13.2,28.85,North,0,0.0,0.0,84,0.00,,,0.00,0.00,VWS V14.01,2013-01-05 14:28:00,
2013-01-05 08:29:00,17.4,13.4,28.85,North,0,0.0,0.0,84,0.00,,,0.00,0.00,VWS V14.01,2013-01-05 14:29:00,
2013-01-05 08:30:00,19.9,16.7,28.85,North,0,0.0,0.0,87,0.00,,,0.00,0.00,VWS V14.01,2013-01-05 14:30:00,
2013-01-05 08:31:00,17.4,13.4,28.85,North,0,0.0,0.0,84,0.00,,,0.00,0.00,VWS V14.01,2013-01-05 14:31:00,
2013-01-05 08:32:00,17.4,13.4,28.85,North,0,0.0,0.0,84,0.00,,,0.00,0.00,VWS V14.01,2013-01-05 14:32:00,
2013-01-05 08:33:00,17.6,13.6,28.85,North,0,0.0,0.0,84,0.00,,,0.00,0.00,VWS V14.01,2013-01-05 14:33:00,
2013-01-05 08:34:00,19.9,16.4,28.85,North,0,0.0,0.0,86,0.00,,,0.00,0.00,VWS V14.01,2013-01-05 14:34:00,
2013-01-05 08:35:00,20.1,16.6,28.85,North,0,0.0,0.0,86,0.00,,,0.00,0.00,VWS V14.01,2013-01-05 14:35:00,
2013-01-05 08:36:00,20.1,16.6,28.85,North,0,0.0,0.0,86,0.00,,,0.00,0.00,VWS V14.01,2013-01-05 14:36:00,
2013-01-05 08:37:00,20.1,16.6,28.85,North,0,0.0,0.0,86,0.00,,,0.00,0.00,VWS V14.01,2013-01-05 14:37:00,
2013-01-05 08:38:00,20.3,16.8,28.85,North,0,0.0,0.0,86,0.00,,,0.00,0.00,VWS V14.01,2013-01-05 14:38:00,
2013-01-05 08:39:00,20.3,16.8,28.85,North,0,0.0,0.0,86,0.00,,,0.00,0.00,VWS V14.01,2013-01-05 14:39:00,
2013-01-05 08:40:00,20.7,17.1,28.85,North,0,0.0,0.0,86,0.00,,,0.00,0.00,VWS V14.01,2013-01-05 14:40:00,
2013-01-05 08:41:00,20.7,17.1,28.85,North,0,0.0,0.0,86,0.00,,,0.00,0.00,VWS V14.01,2013-01-05 14:41:00,
2013-01-05 08:42:00,20.7,17.1,28.85,North,0,0.0,0.0,86,0.00,,,0.00,0.00,VWS V14.01,2013-01-05 14:42:00,
2013-01-05 08:43:00,20.7,17.1,28.85,North,0,0.0,0.0,86,0.00,,,0.00,0.00,VWS V14.01,2013-01-05 14:43:00,
2013-01-05 08:44:00,20.8,17.3,28.85,North,0,0.0,0.0,86,0.00,,,0.00,0.00,VWS V14.01,2013-01-05 14:44:00,
2013-01-05 08:45:00,21.2,17.4,28.85,North,0,0.0,0.0,85,0.00,,,0.00,0.00,VWS V14.01,2013-01-05 14:45:00,
2013-01-05 08:46:00,21.2,17.4,28.85,North,0,0.0,0.0,85,0.00,,,0.00,0.00,VWS V14.01,2013-01-05 14:46:00,
2013-01-05 08:47:00,21.6,17.8,28.85,North,0,0.0,0.0,85,0.00,,,0.00,0.00,VWS V14.01,2013-01-05 14:47:00,
2013-01-05 08:48:00,21.9,18.1,28.85,North,0,0.0,0.0,85,0.00,,,0.00,0.00,VWS V14.01,2013-01-05 14:48:00,
2013-01-05 08:49:00,21.9,18.1,28.85,North,0,0.0,0.0,85,0.00,,,0.00,0.00,VWS V14.01,2013-01-05 14:49:00,
2013-01-05 08:50:00,21.9,18.1,28.88,North,0,0.0,0.0,85,0.00,,,0.00,0.00,VWS V14.01,2013-01-05 14:50:00,
2013-01-05 08:51:00,21.9,17.8,28.88,North,0,0.0,0.0,84,0.00,,,0.00,0.00,VWS V14.01,2013-01-05 14:51:00,
2013-01-05 08:52:00,22.1,18.0,28.88,North,0,0.0,0.0,84,0.00,,,0.00,0.00,VWS V14.01,2013-01-05 14:52:00,
2013-01-05 08:53:00,21.9,17.6,28.88,North,0,0.0,0.0,83,0.00,,,0.00,0.00,VWS V14.01,2013-01-05 14:53:00,
2013-01-05 08:54:00,22.1,17.5,28.88,North,0,0.0,0.0,82,0.00,,,0.00,0.00,VWS V14.01,2013-01-05 14:54:00,
2013-01-05 08:55:00,22.1,17.2,28.88,North,0,0.0,0.0,81,0.00,,,0.00,0.00,VWS V14.01,2013-01-05 14:55:00,
2013-01-05 08:56:00,22.3,17.4,28.88,North,0,0.0,0.0,81,0.00,,,0.00,0.00,VWS V14.01,2013-01-05 14:56:00,
2013-01-05 08:57:00,22.3,17.1,28.88,North,0,0.0,0.0,80,0.00,,,0.00,0.00,VWS V14.01,2013-01-05 14:57:00,
2013-01-05 08:58:00,22.1,16.9,28.88,North,0,0.0,0.0,80,0.00,,,0.00,0.00,VWS V14.01,2013-01-05 14:58:00,
2013-01-05 08:59:00,22.1,16.6,28.88,North,0,0.0,0.0,79,0.00,,,0.00,0.00,VWS V14.01,2013-01-05 14:59:00,
2013-01-05 09:00:00,22.1,16.3,28.88,North,0,0.0,0.0,78,0.00,,,0.00,0.00,VWS V14.01,2013-01-05 15:00:00,
2013-01-05 09:01:00,22.1,16.3,28.88,North,0,0.0,0.0,78,0.00,,,0.00,0.00,VWS V14.01,2013-01-05 15:01:00,
2013-01-05 09:02:00,22.1,16.0,28.88,North,0,0.0,0.0,77,0.00,,,0.00,0.00,VWS V14.01,2013-01-05 15:02:00,
2013-01-05 09:03:00,22.1,15.7,28.88,North,0,0.0,0.0,76,0.00,,,0.00,0.00,VWS V14.01,2013-01-05 15:03:00,
2013-01-05 09:04:00,21.9,15.2,28.88,North,0,0.0,0.0,75,0.00,,,0.00,0.00,VWS V14.01,2013-01-05 15:04:00,
2013-01-05 09:05:00,21.9,15.2,28.88,North,0,0.0,0.0,75,0.00,,,0.00,0.00,VWS V14.01,2013-01-05 15:05:00,
2013-01-05 09:06:00,21.9,15.2,28.88,North,0,0.0,0.0,75,0.00,,,0.00,0.00,VWS V14.01,2013-01-05 15:06:00,
2013-01-05 09:07:00,21.9,15.2,28.88,North,0,0.0,0.0,75,0.00,,,0.00,0.00,VWS V14.01,2013-01-05 15:07:00,
2013-01-05 09:08:00,22.1,15.4,28.88,North,0,0.0,0.0,75,0.00,,,0.00,0.00,VWS V14.01,2013-01-05 15:08:00,
2013-01-05 09:09:00,22.1,15.4,28.88,North,0,0.0,0.0,75,0.00,,,0.00,0.00,VWS V14.01,2013-01-05 15:09:00,
2013-01-05 09:10:00,22.3,15.6,28.88,North,0,0.0,0.0,75,0.00,,,0.00,0.00,VWS V14.01,2013-01-05 15:10:00,
2013-01-05 09:11:00,22.5,15.8,28.88,North,0,0.0,0.0,75,0.00,,,0.00,0.00,VWS V14.01,2013-01-05 15:11:00,
2013-01-05 09:12:00,22.5,15.8,28.88,North,0,0.0,0.0,75,0.00,,,0.00,0.00,VWS V14.01,2013-01-05 15:12:00,
2013-01-05 09:13:00,22.5,15.4,28.88,North,0,0.0,0.0,74,0.00,,,0.00,0.00,VWS V14.01,2013-01-05 15:13:00,
2013-01-05 09:14:00,22.8,16.1,28.88,North,0,0.0,0.0,75,0.00,,,0.00,0.00,VWS V14.01,2013-01-05 15:14:00,
2013-01-05 09:15:00,23.0,16.3,28.88,North,0,0.0,0.0,75,0.00,,,0.00,0.00,VWS V14.01,2013-01-05 15:15:00,
2013-01-05 09:16:00,23.0,16.3,28.88,North,0,0.0,0.0,75,0.00,,,0.00,0.00,VWS V14.01,2013-01-05 15:16:00,
2013-01-05 09:17:00,23.4,16.3,28.88,North,0,0.0,0.0,74,0.00,,,0.00,0.00,VWS V14.01,2013-01-05 15:17:00,
2013-01-05 09:18:00,23.5,16.2,28.88,North,0,0.0,0.0,73,0.00,,,0.00,0.00,VWS V14.01,2013-01-05 15:18:00,
2013-01-05 09:19:00,23.7,16.0,28.88,North,0,0.0,0.0,72,0.00,,,0.00,0.00,VWS V14.01,2013-01-05 15:19:00,
2013-01-05 09:20:00,23.5,15.9,28.88,North,0,0.0,0.0,72,0.00,,,0.00,0.00,VWS V14.01,2013-01-05 15:20:00,
2013-01-05 09:21:00,23.5,15.9,28.88,North,0,0.0,0.0,72,0.00,,,0.00,0.00,VWS V14.01,2013-01-05 15:21:00,
2013-01-05 09:22:00,23.5,14.6,28.88,North,0,0.0,0.0,68,0.00,,,0.00,0.00,VWS V14.01,2013-01-05 15:22:00,
2013-01-05 09:23:00,23.5,14.6,28.88,North,0,0.0,0.0,68,0.00,,,0.00,0.00,VWS V14.01,2013-01-05 15:23:00,
2013-01-05 09:24:00,23.5,14.6,28.88,North,0,0.0,0.0,68,0.00,,,0.00,0.00,VWS V14.01,2013-01-05 15:24:00,
2013-01-05 09:25:00,23.7,14.0,28.88,North,0,0.0,0.0,66,0.00,,,0.00,0.00,VWS V14.01,2013-01-05 15:25:00,
2013-01-05 09:26:00,23.9,14.2,28.88,North,0,0.0,0.0,66,0.00,,,0.00,0.00,VWS V14.01,2013-01-05 15:26:00,
2013-01-05 09:27:00,23.9,14.2,28.88,North,0,0.0,0.0,66,0.00,,,0.00,0.00,VWS V14.01,2013-01-05 15:27:00,
2013-01-05 09:28:00,24.1,14.4,28.88,North,0,0.0,0.0,66,0.00,,,0.00,0.00,VWS V14.01,2013-01-05 15:28:00,
2013-01-05 09:29:00,24.1,14.0,28.88,North,0,0.0,0.0,65,0.00,,,0.00,0.00,VWS V14.01,2013-01-05 15:29:00,
2013-01-05 09:30:00,24.3,13.9,28.88,North,0,0.0,0.0,64,0.00,,,0.00,0.00,VWS V14.01,2013-01-05 15:30:00,
2013-01-05 09:31:00,24.3,13.9,28.88,North,0,0.0,0.0,64,0.00,,,0.00,0.00,VWS V14.01,2013-01-05 15:31:00,
2013-01-05 09:32:00,24.4,13.7,28.88,North,0,0.0,0.0,63,0.00,,,0.00,0.00,VWS V14.01,2013-01-05 15:32:00,
2013-01-05 09:33:00,24.8,14.0,28.88,North,0,0.0,0.0,63,0.00,,,0.00,0.00,VWS V14.01,2013-01-05 15:33:00,
2013-01-05 09:34:00,25.0,13.8,28.88,North,0,0.0,0.0,62,0.00,,,0.00,0.00,VWS V14.01,2013-01-05 15:34:00,
2013-01-05 09:35:00,25.2,14.0,28.88,North,0,0.0,0.0,62,0.00,,,0.00,0.00,VWS V14.01,2013-01-05 15:35:00,
2013-01-05 09:36:00,25.3,14.2,28.88,North,0,0.0,0.0,62,0.00,,,0.00,0.00,VWS V14.01,2013-01-05 15:36:00,
2013-01-05 09:37:00,25.3,14.2,28.88,North,0,0.0,0.0,62,0.00,,,0.00,0.00,VWS V14.01,2013-01-05 15:37:00,
2013-01-05 09:38:00,25.3,13.8,28.88,North,0,0.0,0.0,61,0.00,,,0.00,0.00,VWS V14.01,2013-01-05 15:38:00,
2013-01-05 09:39:00,25.3,13.4,28.88,North,0,0.0,0.0,60,0.00,,,0.00,0.00,VWS V14.01,2013-01-05 15:39:00,
2013-01-05 09:40:00,25.3,13.0,28.88,North,0,0.0,0.0,59,0.00,,,0.00,0.00,VWS V14.01,2013-01-05 15:40:00,
2013-01-05 09:41:00,25.3,13.0,28.88,North,0,0.0,0.0,59,0.00,,,0.00,0.00,VWS V14.01,2013-01-05 15:41:00,
2013-01-05 09:42:00,25.2,12.5,28.88,North,0,0.0,0.0,58,0.00,,,0.00,0.00,VWS V14.01,2013-01-05 15:42:00,
2013-01-05 09:43:00,24.6,12.0,28.88,North,0,0.0,0.0,58,0.00,,,0.00,0.00,VWS V14.01,2013-01-05 15:43:00,
2013-01-05 09:44:00,24.6,12.0,28.88,North,0,0.0,0.0,58,0.00,,,0.00,0.00,VWS V14.01,2013-01-05 15:44:00,
2013-01-05 09:45:00,24.6,12.0,28.88,North,0,0.0,0.0,58,0.00,,,0.00,0.00,VWS V14.01,2013-01-05 15:45:00,
2013-01-05 09:46:00,24.6,12.0,28.88,North,0,0.0,0.0,58,0.00,,,0.00,0.00,VWS V14.01,2013-01-05 15:46:00,
2013-01-05 09:47:00,24.4,11.8,28.88,North,0,0.0,0.0,58,0.00,,,0.00,0.00,VWS V14.01,2013-01-05 15:47:00,
2013-01-05 09:48:00,24.1,11.5,28.88,North,0,0.0,0.0,58,0.00,,,0.00,0.00,VWS V14.01,2013-01-05 15:48:00,
2013-01-05 09:49:00,23.9,11.3,28.88,North,0,0.0,0.0,58,0.00,,,0.00,0.00,VWS V14.01,2013-01-05 15:49:00,
2013-01-05 09:50:00,23.9,11.3,28.85,North,0,0.0,0.0,58,0.00,,,0.00,0.00,VWS V14.01,2013-01-05 15:50:00,
2013-01-05 09:51:00,23.7,11.1,28.85,North,0,0.0,0.0,58,0.00,,,0.00,0.00,VWS V14.01,2013-01-05 15:51:00,
2013-01-05 09:52:00,23.7,11.1,28.85,North,0,0.0,0.0,58,0.00,,,0.00,0.00,VWS V14.01,2013-01-05 15:52:00,
2013-01-05 09:53:00,23.5,10.9,28.85,North,0,0.0,0.0,58,0.00,,,0.00,0.00,VWS V14.01,2013-01-05 15:53:00,
2013-01-05 09:54:00,23.2,10.6,28.85,North,0,0.0,0.0,58,0.00,,,0.00,0.00,VWS V14.01,2013-01-05 15:54:00,
2013-01-05 09:55:00,23.0,10.8,28.85,North,0,0.0,0.0,59,0.00,,,0.00,0.00,VWS V14.01,2013-01-05 15:55:00,
2013-01-05 09:56:00,22.8,10.6,28.85,North,0,0.0,0.0,59,0.00,,,0.00,0.00,VWS V14.01,2013-01-05 15:56:00,
2013-01-05 09:57:00,22.8,10.6,28.85,North,0,0.0,0.0,59,0.00,,,0.00,0.00,VWS V14.01,2013-01-05 15:57:00,
2013-01-05 09:58:00,22.6,10.9,28.85,North,0,0.0,0.0,60,0.00,,,0.00,0.00,VWS V14.01,2013-01-05 15:58:00,
2013-01-05 09:59:00,22.6,10.9,28.85,North,0,0.0,0.0,60,0.00,,,0.00,0.00,VWS V14.01,2013-01-05 15:59:00,
2013-01-05 10:00:00,22.6,11.2,28.85,North,0,0.0,0.0,61,0.00,,,0.00,0.00,VWS V14.01,2013-01-05 16:00:00,
2013-01-05 10:01:00,22.6,11.2,28.85,North,0,0.0,0.0,61,0.00,,,0.00,0.00,VWS V14.01,2013-01-05 16:01:00,
2013-01-05 10:02:00,22.8,11.4,28.85,North,0,0.0,0.0,61,0.00,,,0.00,0.00,VWS V14.01,2013-01-05 16:02:00,
2013-01-05 10:03:00,22.8,11.4,28.85,North,0,0.0,0.0,61,0.00,,,0.00,0.00,VWS V14.01,2013-01-05 16:03:00,
2013-01-05 10:04:00,23.4,11.5,28.85,North,0,0.0,0.0,60,0.00,,,0.00,0.00,VWS V14.01,2013-01-05 16:04:00,
2013-01-05 10:05:00,23.4,11.5,28.88,North,0,0.0,0.0,60,0.00,,,0.00,0.00,VWS V14.01,2013-01-05 16:05:00,
2013-01-05 10:06:00,24.3,12.4,28.88,North,0,0.0,0.0,60,0.00,,,0.00,0.00,VWS V14.01,2013-01-05 16:06:00,
2013-01-05 10:07:00,24.3,12.4,28.88,North,0,0.0,0.0,60,0.00,,,0.00,0.00,VWS V14.01,2013-01-05 16:07:00,
2013-01-05 10:08:00,24.8,12.5,28.88,North,0,0.0,0.0,59,0.00,,,0.00,0.00,VWS V14.01,2013-01-05 16:08:00,
2013-01-05 10:09:00,24.8,12.1,28.88,North,0,0.0,0.0,58,0.00,,,0.00,0.00,VWS V14.01,2013-01-05 16:09:00,
2013-01-05 10:10:00,25.9,12.8,28.88,North,0,0.0,0.0,57,0.00,,,0.00,0.00,VWS V14.01,2013-01-05 16:10:00,
2013-01-05 10:11:00,25.9,12.8,28.88,North,0,0.0,0.0,57,0.00,,,0.00,0.00,VWS V14.01,2013-01-05 16:11:00,
2013-01-05 10:12:00,26.1,12.5,28.88,North,0,0.0,0.0,56,0.00,,,0.00,0.00,VWS V14.01,2013-01-05 16:12:00,
2013-01-05 10:13:00,26.1,12.1,28.88,North,0,0.0,0.0,55,0.00,,,0.00,0.00,VWS V14.01,2013-01-05 16:13:00,
2013-01-05 10:14:00,26.1,12.1,28.88,North,0,0.0,0.0,55,0.00,,,0.00,0.00,VWS V14.01,2013-01-05 16:14:00,
2013-01-05 10:15:00,26.6,12.2,28.88,North,0,0.0,0.0,54,0.00,,,0.00,0.00,VWS V14.01,2013-01-05 16:15:00,
2013-01-05 10:16:00,26.6,12.2,28.88,North,0,0.0,0.0,54,0.00,,,0.00,0.00,VWS V14.01,2013-01-05 16:16:00,
2013-01-05 10:17:00,26.6,12.2,28.88,North,0,0.0,0.0,54,0.00,,,0.00,0.00,VWS V14.01,2013-01-05 16:17:00,
2013-01-05 10:18:00,26.8,12.0,28.88,North,0,0.0,0.0,53,0.00,,,0.00,0.00,VWS V14.01,2013-01-05 16:18:00,
2013-01-05 10:19:00,26.6,11.8,28.88,North,0,0.0,0.0,53,0.00,,,0.00,0.00,VWS V14.01,2013-01-05 16:19:00,
2013-01-05 10:20:00,26.6,11.8,28.85,North,0,0.0,0.0,53,0.00,,,0.00,0.00,VWS V14.01,2013-01-05 16:20:00,
2013-01-05 10:21:00,27.1,12.3,28.85,North,0,0.0,0.0,53,0.00,,,0.00,0.00,VWS V14.01,2013-01-05 16:21:00,
2013-01-05 10:22:00,27.7,12.8,28.85,North,0,0.0,0.0,53,0.00,,,0.00,0.00,VWS V14.01,2013-01-05 16:22:00,
2013-01-05 10:23:00,28.0,13.1,28.85,North,0,0.0,0.0,53,0.00,,,0.00,0.00,VWS V14.01,2013-01-05 16:23:00,
2013-01-05 10:24:00,28.2,13.3,28.85,North,0,0.0,0.0,53,0.00,,,0.00,0.00,VWS V14.01,2013-01-05 16:24:00,
2013-01-05 10:25:00,28.2,12.4,28.85,North,0,0.0,0.0,51,0.00,,,0.00,0.00,VWS V14.01,2013-01-05 16:25:00,
2013-01-05 10:26:00,28.2,12.4,28.85,North,0,0.0,0.0,51,0.00,,,0.00,0.00,VWS V14.01,2013-01-05 16:26:00,
2013-01-05 10:27:00,28.6,12.3,28.85,North,0,0.0,0.0,50,0.00,,,0.00,0.00,VWS V14.01,2013-01-05 16:27:00,
2013-01-05 10:28:00,28.6,12.3,28.85,North,0,0.0,0.0,50,0.00,,,0.00,0.00,VWS V14.01,2013-01-05 16:28:00,
2013-01-05 10:29:00,28.6,12.3,28.85,North,0,0.0,0.0,50,0.00,,,0.00,0.00,VWS V14.01,2013-01-05 16:29:00,
2013-01-05 10:30:00,28.4,11.7,28.85,North,0,0.0,0.0,49,0.00,,,0.00,0.00,VWS V14.01,2013-01-05 16:30:00,
2013-01-05 10:31:00,28.6,11.9,28.85,North,0,0.0,0.0,49,0.00,,,0.00,0.00,VWS V14.01,2013-01-05 16:31:00,
2013-01-05 10:32:00,28.6,11.9,28.85,North,0,0.0,0.0,49,0.00,,,0.00,0.00,VWS V14.01,2013-01-05 16:32:00,
2013-01-05 10:33:00,28.2,11.1,28.85,North,0,0.0,0.0,48,0.00,,,0.00,0.00,VWS V14.01,2013-01-05 16:33:00,
2013-01-05 10:34:00,28.2,11.1,28.85,North,0,0.0,0.0,48,0.00,,,0.00,0.00,VWS V14.01,2013-01-05 16:34:00,
2013-01-05 10:35:00,28.2,11.1,28.88,North,0,0.0,0.0,48,0.00,,,0.00,0.00,VWS V14.01,2013-01-05 16:35:00,
2013-01-05 10:36:00,28.2,10.6,28.88,North,0,0.0,0.0,47,0.00,,,0.00,0.00,VWS V14.01,2013-01-05 16:36:00,
2013-01-05 10:37:00,28.4,11.2,28.88,North,0,0.0,0.0,48,0.00,,,0.00,0.00,VWS V14.01,2013-01-05 16:37:00,
2013-01-05 10:38:00,28.8,11.6,28.88,North,0,0.0,0.0,48,0.00,,,0.00,0.00,VWS V14.01,2013-01-05 16:38:00,
2013-01-05 10:39:00,28.8,11.6,28.88,North,0,0.0,0.0,48,0.00,,,0.00,0.00,VWS V14.01,2013-01-05 16:39:00,
2013-01-05 10:40:00,29.1,11.4,28.88,North,0,0.0,0.0,47,0.00,,,0.00,0.00,VWS V14.01,2013-01-05 16:40:00,
2013-01-05 10:41:00,29.3,12.1,28.88,North,0,0.0,0.0,48,0.00,,,0.00,0.00,VWS V14.01,2013-01-05 16:41:00,
2013-01-05 10:42:00,29.3,11.6,28.88,North,0,0.0,0.0,47,0.00,,,0.00,0.00,VWS V14.01,2013-01-05 16:42:00,
2013-01-05 10:43:00,29.3,11.6,28.88,North,0,0.0,0.0,47,0.00,,,0.00,0.00,VWS V14.01,2013-01-05 16:43:00,
2013-01-05 10:44:00,28.9,10.3,28.88,North,0,0.0,0.0,45,0.00,,,0.00,0.00,VWS V14.01,2013-01-05 16:44:00,
2013-01-05 10:45:00,28.9,10.3,28.88,North,0,0.0,0.0,45,0.00,,,0.00,0.00,VWS V14.01,2013-01-05 16:45:00,
2013-01-05 10:46:00,28.9,10.3,28.88,North,0,0.0,0.0,45,0.00,,,0.00,0.00,VWS V14.01,2013-01-05 16:46:00,
2013-01-05 10:47:00,28.9,10.3,28.88,North,0,0.0,0.0,45,0.00,,,0.00,0.00,VWS V14.01,2013-01-05 16:47:00,
2013-01-05 10:48:00,29.3,11.1,28.88,North,0,0.0,0.0,46,0.00,,,0.00,0.00,VWS V14.01,2013-01-05 16:48:00,
2013-01-05 10:49:00,29.1,10.4,28.88,North,0,0.0,0.0,45,0.00,,,0.00,0.00,VWS V14.01,2013-01-05 16:49:00,
2013-01-05 10:50:00,29.1,10.4,28.88,North,0,0.0,0.0,45,0.00,,,0.00,0.00,VWS V14.01,2013-01-05 16:50:00,
2013-01-05 10:51:00,29.1,10.4,28.88,North,0,0.0,0.0,45,0.00,,,0.00,0.00,VWS V14.01,2013-01-05 16:51:00,
2013-01-05 10:52:00,28.8,9.6,28.88,North,0,0.0,0.0,44,0.00,,,0.00,0.00,VWS V14.01,2013-01-05 16:52:00,
2013-01-05 10:53:00,28.9,9.8,28.88,North,0,0.0,0.0,44,0.00,,,0.00,0.00,VWS V14.01,2013-01-05 16:53:00,
2013-01-05 10:54:00,28.8,9.6,28.88,North,0,0.0,0.0,44,0.00,,,0.00,0.00,VWS V14.01,2013-01-05 16:54:00,
2013-01-05 10:55:00,28.4,9.3,28.88,North,0,0.0,0.0,44,0.00,,,0.00,0.00,VWS V14.01,2013-01-05 16:55:00,
2013-01-05 10:56:00,28.6,9.4,28.88,North,0,0.0,0.0,44,0.00,,,0.00,0.00,VWS V14.01,2013-01-05 16:56:00,
2013-01-05 10:57:00,28.6,9.4,28.88,North,0,0.0,0.0,44,0.00,,,0.00,0.00,VWS V14.01,2013-01-05 16:57:00,
2013-01-05 10:58:00,28.9,9.8,28.88,North,0,0.0,0.0,44,0.00,,,0.00,0.00,VWS V14.01,2013-01-05 16:58:00,
2013-01-05 10:59:00,28.9,9.8,28.88,North,0,0.0,0.0,44,0.00,,,0.00,0.00,VWS V14.01,2013-01-05 16:59:00,
2013-01-05 11:00:00,28.9,9.8,28.88,North,0,0.0,0.0,44,0.00,,,0.00,0.00,VWS V14.01,2013-01-05 17:00:00,
2013-01-05 11:01:00,28.9,9.8,28.88,North,0,0.0,0.0,44,0.00,,,0.00,0.00,VWS V14.01,2013-01-05 17:01:00,
2013-01-05 11:02:00,28.8,9.6,28.88,North,0,0.0,0.0,44,0.00,,,0.00,0.00,VWS V14.01,2013-01-05 17:02:00,
2013-01-05 11:03:00,29.3,10.1,28.88,North,0,0.0,0.0,44,0.00,,,0.00,0.00,VWS V14.01,2013-01-05 17:03:00,
2013-01-05 11:04:00,29.1,9.9,28.88,North,0,0.0,0.0,44,0.00,,,0.00,0.00,VWS V14.01,2013-01-05 17:04:00,
2013-01-05 11:05:00,29.5,10.3,28.85,North,0,0.0,0.0,44,0.00,,,0.00,0.00,VWS V14.01,2013-01-05 17:05:00,
2013-01-05 11:06:00,29.5,9.8,28.85,North,0,0.0,0.0,43,0.00,,,0.00,0.00,VWS V14.01,2013-01-05 17:06:00,
2013-01-05 11:07:00,29.5,9.8,28.85,North,0,0.0,0.0,43,0.00,,,0.00,0.00,VWS V14.01,2013-01-05 17:07:00,
2013-01-05 11:08:00,29.5,9.8,28.85,North,0,0.0,0.0,43,0.00,,,0.00,0.00,VWS V14.01,2013-01-05 17:08:00,
2013-01-05 11:09:00,29.5,9.8,28.85,North,0,0.0,0.0,43,0.00,,,0.00,0.00,VWS V14.01,2013-01-05 17:09:00,
2013-01-05 11:10:00,29.3,9.6,28.85,North,0,0.0,0.0,43,0.00,,,0.00,0.00,VWS V14.01,2013-01-05 17:10:00,
2013-01-05 11:11:00,29.7,9.9,28.85,North,0,0.0,0.0,43,0.00,,,0.00,0.00,VWS V14.01,2013-01-05 17:11:00,
2013-01-05 11:12:00,29.5,9.8,28.85,North,0,0.0,0.0,43,0.00,,,0.00,0.00,VWS V14.01,2013-01-05 17:12:00,
2013-01-05 11:13:00,29.7,9.9,28.85,North,0,0.0,0.0,43,0.00,,,0.00,0.00,VWS V14.01,2013-01-05 17:13:00,
2013-01-05 11:14:00,29.5,9.8,28.85,North,0,0.0,0.0,43,0.00,,,0.00,0.00,VWS V14.01,2013-01-05 17:14:00,
2013-01-05 11:15:00,29.8,10.1,28.85,North,0,0.0,0.0,43,0.00,,,0.00,0.00,VWS V14.01,2013-01-05 17:15:00,
2013-01-05 11:16:00,29.7,9.9,28.85,North,0,0.0,0.0,43,0.00,,,0.00,0.00,VWS V14.01,2013-01-05 17:16:00,
2013-01-05 11:17:00,29.7,9.9,28.85,North,0,0.0,0.0,43,0.00,,,0.00,0.00,VWS V14.01,2013-01-05 17:17:00,
2013-01-05 11:18:00,30.2,10.4,28.85,North,0,0.0,0.0,43,0.00,,,0.00,0.00,VWS V14.01,2013-01-05 17:18:00,
2013-01-05 11:19:00,30.2,10.4,28.85,North,0,0.0,0.0,43,0.00,,,0.00,0.00,VWS V14.01,2013-01-05 17:19:00,
2013-01-05 11:20:00,30.4,10.6,28.85,North,0,0.0,0.0,43,0.00,,,0.00,0.00,VWS V14.01,2013-01-05 17:20:00,
2013-01-05 11:21:00,30.4,10.6,28.85,North,0,0.0,0.0,43,0.00,,,0.00,0.00,VWS V14.01,2013-01-05 17:21:00,
2013-01-05 11:22:00,30.7,10.9,28.85,North,0,0.0,0.0,43,0.00,,,0.00,0.00,VWS V14.01,2013-01-05 17:22:00,
2013-01-05 11:23:00,31.1,11.2,28.85,North,0,0.0,0.0,43,0.00,,,0.00,0.00,VWS V14.01,2013-01-05 17:23:00,
2013-01-05 11:24:00,30.4,10.1,28.85,North,0,0.0,0.0,42,0.00,,,0.00,0.00,VWS V14.01,2013-01-05 17:24:00,
2013-01-05 11:25:00,30.4,10.1,28.85,North,0,0.0,0.0,42,0.00,,,0.00,0.00,VWS V14.01,2013-01-05 17:25:00,
2013-01-05 11:26:00,30.4,10.1,28.85,North,0,0.0,0.0,42,0.00,,,0.00,0.00,VWS V14.01,2013-01-05 17:26:00,
2013-01-05 11:27:00,30.4,10.1,28.85,North,0,0.0,0.0,42,0.00,,,0.00,0.00,VWS V14.01,2013-01-05 17:27:00,
2013-01-05 11:28:00,30.2,10.4,28.85,North,0,0.0,0.0,43,0.00,,,0.00,0.00,VWS V14.01,2013-01-05 17:28:00,
2013-01-05 11:29:00,30.2,10.4,28.85,North,0,0.0,0.0,43,0.00,,,0.00,0.00,VWS V14.01,2013-01-05 17:29:00,
2013-01-05 11:30:00,30.4,10.1,28.85,North,0,0.0,0.0,42,0.00,,,0.00,0.00,VWS V14.01,2013-01-05 17:30:00,
2013-01-05 11:31:00,30.4,10.1,28.85,North,0,0.0,0.0,42,0.00,,,0.00,0.00,VWS V14.01,2013-01-05 17:31:00,
2013-01-05 11:32:00,30.4,10.1,28.85,North,0,0.0,0.0,42,0.00,,,0.00,0.00,VWS V14.01,2013-01-05 17:32:00,
2013-01-05 11:33:00,30.4,10.1,28.85,North,0,0.0,0.0,42,0.00,,,0.00,0.00,VWS V14.01,2013-01-05 17:33:00,
2013-01-05 11:34:00,30.2,9.9,28.85,North,0,0.0,0.0,42,0.00,,,0.00,0.00,VWS V14.01,2013-01-05 17:34:00,
2013-01-05 11:35:00,30.6,10.2,28.85,North,0,0.0,0.0,42,0.00,,,0.00,0.00,VWS V14.01,2013-01-05 17:35:00,
2013-01-05 11:36:00,30.6,10.2,28.85,North,0,0.0,0.0,42,0.00,,,0.00,0.00,VWS V14.01,2013-01-05 17:36:00,
2013-01-05 11:37:00,30.2,9.9,28.85,North,0,0.0,0.0,42,0.00,,,0.00,0.00,VWS V14.01,2013-01-05 17:37:00,
2013-01-05 11:38:00,30.6,10.2,28.85,North,0,0.0,0.0,42,0.00,,,0.00,0.00,VWS V14.01,2013-01-05 17:38:00,
2013-01-05 11:39:00,31.1,10.7,28.85,North,0,0.0,0.0,42,0.00,,,0.00,0.00,VWS V14.01,2013-01-05 17:39:00,
2013-01-05 11:40:00,30.7,10.4,28.85,North,0,0.0,0.0,42,0.00,,,0.00,0.00,VWS V14.01,2013-01-05 17:40:00,
2013-01-05 11:41:00,30.7,10.4,28.85,North,0,0.0,0.0,42,0.00,,,0.00,0.00,VWS V14.01,2013-01-05 17:41:00,
2013-01-05 11:42:00,30.6,10.2,28.85,North,0,0.0,0.0,42,0.00,,,0.00,0.00,VWS V14.01,2013-01-05 17:42:00,
2013-01-05 11:43:00,30.6,10.2,28.85,North,0,0.0,0.0,42,0.00,,,0.00,0.00,VWS V14.01,2013-01-05 17:43:00,
2013-01-05 11:44:00,30.6,10.2,28.85,North,0,0.0,0.0,42,0.00,,,0.00,0.00,VWS V14.01,2013-01-05 17:44:00,
2013-01-05 11:45:00,30.4,10.1,28.85,North,0,0.0,0.0,42,0.00,,,0.00,0.00,VWS V14.01,2013-01-05 17:45:00,
2013-01-05 11:46:00,30.6,10.2,28.85,North,0,0.0,0.0,42,0.00,,,0.00,0.00,VWS V14.01,2013-01-05 17:46:00,
2013-01-05 11:47:00,31.1,10.7,28.85,North,0,0.0,0.0,42,0.00,,,0.00,0.00,VWS V14.01,2013-01-05 17:47:00,
2013-01-05 11:48:00,31.3,10.9,28.85,North,0,0.0,0.0,42,0.00,,,0.00,0.00,VWS V14.01,2013-01-05 17:48:00,
2013-01-05 11:49:00,31.6,11.2,28.85,North,0,0.0,0.0,42,0.00,,,0.00,0.00,VWS V14.01,2013-01-05 17:49:00,
2013-01-05 11:50:00,31.6,11.2,28.82,North,0,0.0,0.0,42,0.00,,,0.00,0.00,VWS V14.01,2013-01-05 17:50:00,
2013-01-05 11:51:00,31.5,11.0,28.82,North,0,0.0,0.0,42,0.00,,,0.00,0.00,VWS V14.01,2013-01-05 17:51:00,
2013-01-05 11:52:00,31.8,11.4,28.82,North,0,0.0,0.0,42,0.00,,,0.00,0.00,VWS V14.01,2013-01-05 17:52:00,
2013-01-05 11:53:00,31.6,11.2,28.82,North,0,0.0,0.0,42,0.00,,,0.00,0.00,VWS V14.01,2013-01-05 17:53:00,
2013-01-05 11:54:00,31.5,11.0,28.82,North,0,0.0,0.0,42,0.00,,,0.00,0.00,VWS V14.01,2013-01-05 17:54:00,
2013-01-05 11:55:00,31.6,11.2,28.82,North,0,0.0,0.0,42,0.00,,,0.00,0.00,VWS V14.01,2013-01-05 17:55:00,
2013-01-05 11:56:00,31.6,11.2,28.82,North,0,0.0,0.0,42,0.00,,,0.00,0.00,VWS V14.01,2013-01-05 17:56:00,
2013-01-05 11:57:00,31.5,11.0,28.82,North,0,0.0,0.0,42,0.00,,,0.00,0.00,VWS V14.01,2013-01-05 17:57:00,
2013-01-05 11:58:00,31.6,11.2,28.82,North,0,0.0,0.0,42,0.00,,,0.00,0.00,VWS V14.01,2013-01-05 17:58:00,
2013-01-05 11:59:00,31.5,11.0,28.82,North,0,0.0,0.0,42,0.00,,,0.00,0.00,VWS V14.01,2013-01-05 17:59:00,
2013-01-05 12:00:00,31.3,10.9,28.82,North,0,0.0,0.0,42,0.00,,,0.00,0.00,VWS V14.01,2013-01-05 18:00:00,
2013-01-05 12:01:00,31.1,10.7,28.82,North,0,0.0,0.0,42,0.00,,,0.00,0.00,VWS V14.01,2013-01-05 18:01:00,
2013-01-05 12:02:00,31.3,10.9,28.82,North,0,0.0,0.0,42,0.00,,,0.00,0.00,VWS V14.01,2013-01-05 18:02:00,
2013-01-05 12:03:00,31.3,10.9,28.82,North,0,0.0,0.0,42,0.00,,,0.00,0.00,VWS V14.01,2013-01-05 18:03:00,
2013-01-05 12:04:00,31.5,11.0,28.82,North,0,0.0,0.0,42,0.00,,,0.00,0.00,VWS V14.01,2013-01-05 18:04:00,
2013-01-05 12:05:00,31.5,11.0,28.85,North,0,0.0,0.0,42,0.00,,,0.00,0.00,VWS V14.01,2013-01-05 18:05:00,
2013-01-05 12:06:00,31.3,10.9,28.85,North,0,0.0,0.0,42,0.00,,,0.00,0.00,VWS V14.01,2013-01-05 18:06:00,
2013-01-05 12:07:00,31.6,11.2,28.85,North,0,0.0,0.0,42,0.00,,,0.00,0.00,VWS V14.01,2013-01-05 18:07:00,
2013-01-05 12:08:00,31.8,11.4,28.85,North,0,0.0,0.0,42,0.00,,,0.00,0.00,VWS V14.01,2013-01-05 18:08:00,
2013-01-05 12:09:00,32.2,11.7,28.85,North,0,0.0,0.0,42,0.00,,,0.00,0.00,VWS V14.01,2013-01-05 18:09:00,
2013-01-05 12:10:00,32.2,11.7,28.85,North,0,0.0,0.0,42,0.00,,,0.00,0.00,VWS V14.01,2013-01-05 18:10:00,
2013-01-05 12:11:00,32.2,11.7,28.85,North,0,0.0,0.0,42,0.00,,,0.00,0.00,VWS V14.01,2013-01-05 18:11:00,
2013-01-05 12:12:00,32.7,12.2,28.85,North,0,0.0,0.0,42,0.00,,,0.00,0.00,VWS V14.01,2013-01-05 18:12:00,
2013-01-05 12:13:00,32.7,12.2,28.85,North,0,0.0,0.0,42,0.00,,,0.00,0.00,VWS V14.01,2013-01-05 18:13:00,
2013-01-05 12:14:00,32.9,12.3,28.85,North,0,0.0,0.0,42,0.00,,,0.00,0.00,VWS V14.01,2013-01-05 18:14:00,
2013-01-05 12:15:00,33.1,12.5,28.85,North,0,0.0,0.0,42,0.00,,,0.00,0.00,VWS V14.01,2013-01-05 18:15:00,
2013-01-05 12:16:00,33.4,12.8,28.85,North,0,0.0,0.0,42,0.00,,,0.00,0.00,VWS V14.01,2013-01-05 18:16:00,
2013-01-05 12:17:00,33.3,12.7,28.85,North,0,0.0,0.0,42,0.00,,,0.00,0.00,VWS V14.01,2013-01-05 18:17:00,
2013-01-05 12:18:00,33.4,12.3,28.85,North,0,0.0,0.0,41,0.00,,,0.00,0.00,VWS V14.01,2013-01-05 18:18:00,
2013-01-05 12:19:00,34.0,12.8,28.85,North,0,0.0,0.0,41,0.00,,,0.00,0.00,VWS V14.01,2013-01-05 18:19:00,
2013-01-05 12:20:00,34.2,12.9,28.85,North,0,0.0,0.0,41,0.00,,,0.00,0.00,VWS V14.01,2013-01-05 18:20:00,
2013-01-05 12:21:00,34.2,12.9,28.85,North,0,0.0,0.0,41,0.00,,,0.00,0.00,VWS V14.01,2013-01-05 18:21:00,
2013-01-05 12:22:00,34.5,13.3,28.85,North,0,0.0,0.0,41,0.00,,,0.00,0.00,VWS V14.01,2013-01-05 18:22:00,
2013-01-05 12:23:00,34.3,13.1,28.85,North,0,0.0,0.0,41,0.00,,,0.00,0.00,VWS V14.01,2013-01-05 18:23:00,
2013-01-05 12:24:00,34.2,12.9,28.85,North,0,0.0,0.0,41,0.00,,,0.00,0.00,VWS V14.01,2013-01-05 18:24:00,
2013-01-05 12:25:00,34.0,12.8,28.85,North,0,0.0,0.0,41,0.00,,,0.00,0.00,VWS V14.01,2013-01-05 18:25:00,
2013-01-05 12:26:00,34.0,12.8,28.85,North,0,0.0,0.0,41,0.00,,,0.00,0.00,VWS V14.01,2013-01-05 18:26:00,
2013-01-05 12:27:00,33.8,12.1,28.85,North,0,0.0,0.0,40,0.00,,,0.00,0.00,VWS V14.01,2013-01-05 18:27:00,
2013-01-05 12:28:00,33.8,12.1,28.85,North,0,0.0,0.0,40,0.00,,,0.00,0.00,VWS V14.01,2013-01-05 18:28:00,
2013-01-05 12:29:00,34.3,13.1,28.85,North,0,0.0,0.0,41,0.00,,,0.00,0.00,VWS V14.01,2013-01-05 18:29:00,
2013-01-05 12:30:00,34.3,13.1,28.85,North,0,0.0,0.0,41,0.00,,,0.00,0.00,VWS V14.01,2013-01-05 18:30:00,
2013-01-05 12:31:00,34.3,13.1,28.85,North,0,0.0,0.0,41,0.00,,,0.00,0.00,VWS V14.01,2013-01-05 18:31:00,
2013-01-05 12:32:00,34.5,13.3,28.85,North,0,0.0,0.0,41,0.00,,,0.00,0.00,VWS V14.01,2013-01-05 18:32:00,
2013-01-05 12:33:00,34.5,13.3,28.85,North,0,0.0,0.0,41,0.00,,,0.00,0.00,VWS V14.01,2013-01-05 18:33:00,
2013-01-05 12:34:00,34.9,13.6,28.85,North,0,0.0,0.0,41,0.00,,,0.00,0.00,VWS V14.01,2013-01-05 18:34:00,
2013-01-05 12:35:00,34.9,13.6,28.85,North,0,0.0,0.0,41,0.00,,,0.00,0.00,VWS V14.01,2013-01-05 18:35:00,
2013-01-05 12:36:00,34.7,13.4,28.85,North,0,0.0,0.0,41,0.00,,,0.00,0.00,VWS V14.01,2013-01-05 18:36:00,
2013-01-05 12:37:00,34.3,12.5,28.85,North,0,0.0,0.0,40,0.00,,,0.00,0.00,VWS V14.01,2013-01-05 18:37:00,
2013-01-05 12:38:00,34.3,12.5,28.85,North,0,0.0,0.0,40,0.00,,,0.00,0.00,VWS V14.01,2013-01-05 18:38:00,
2013-01-05 12:39:00,34.3,12.5,28.85,North,0,0.0,0.0,40,0.00,,,0.00,0.00,VWS V14.01,2013-01-05 18:39:00,
2013-01-05 12:40:00,34.3,12.5,28.85,North,0,0.0,0.0,40,0.00,,,0.00,0.00,VWS V14.01,2013-01-05 18:40:00,
2013-01-05 12:41:00,34.3,12.5,28.85,North,0,0.0,0.0,40,0.00,,,0.00,0.00,VWS V14.01,2013-01-05 18:41:00,
2013-01-05 12:42:00,34.5,12.7,28.85,North,0,0.0,0.0,40,0.00,,,0.00,0.00,VWS V14.01,2013-01-05 18:42:00,
2013-01-05 12:43:00,34.3,12.5,28.85,North,0,0.0,0.0,40,0.00,,,0.00,0.00,VWS V14.01,2013-01-05 18:43:00,
2013-01-05 12:44:00,34.3,12.5,28.85,North,0,0.0,0.0,40,0.00,,,0.00,0.00,VWS V14.01,2013-01-05 18:44:00,
2013-01-05 12:45:00,34.5,12.7,28.85,North,0,0.0,0.0,40,0.00,,,0.00,0.00,VWS V14.01,2013-01-05 18:45:00,
2013-01-05 12:46:00,34.3,12.5,28.85,North,0,0.0,0.0,40,0.00,,,0.00,0.00,VWS V14.01,2013-01-05 18:46:00,
2013-01-05 12:47:00,34.2,12.4,28.85,North,0,0.0,0.0,40,0.00,,,0.00,0.00,VWS V14.01,2013-01-05 18:47:00,
2013-01-05 12:48:00,34.3,12.5,28.85,North,0,0.0,0.0,40,0.00,,,0.00,0.00,VWS V14.01,2013-01-05 18:48:00,
2013-01-05 12:49:00,34.5,12.7,28.85,North,0,0.0,0.0,40,0.00,,,0.00,0.00,VWS V14.01,2013-01-05 18:49:00,
2013-01-05 12:50:00,34.7,12.9,28.88,North,0,0.0,0.0,40,0.00,,,0.00,0.00,VWS V14.01,2013-01-05 18:50:00,
2013-01-05 12:51:00,35.1,13.2,28.88,North,0,0.0,0.0,40,0.00,,,0.00,0.00,VWS V14.01,2013-01-05 18:51:00,
2013-01-05 12:52:00,35.2,13.9,28.88,North,0,0.0,0.0,41,0.00,,,0.00,0.00,VWS V14.01,2013-01-05 18:52:00,
2013-01-05 12:53:00,35.4,14.1,28.88,North,0,0.0,0.0,41,0.00,,,0.00,0.00,VWS V14.01,2013-01-05 18:53:00,
2013-01-05 12:54:00,35.8,13.8,28.88,North,0,0.0,0.0,40,0.00,,,0.00,0.00,VWS V14.01,2013-01-05 18:54:00,
2013-01-05 12:55:00,36.0,14.0,28.88,North,0,0.0,0.0,40,0.00,,,0.00,0.00,VWS V14.01,2013-01-05 18:55:00,
2013-01-05 12:56:00,36.0,14.0,28.88,North,0,0.0,0.0,40,0.00,,,0.00,0.00,VWS V14.01,2013-01-05 18:56:00,
2013-01-05 12:57:00,36.5,14.5,28.88,North,0,0.0,0.0,40,0.00,,,0.00,0.00,VWS V14.01,2013-01-05 18:57:00,
2013-01-05 12:58:00,36.9,14.8,28.88,North,0,0.0,0.0,40,0.00,,,0.00,0.00,VWS V14.01,2013-01-05 18:58:00,
2013-01-05 12:59:00,37.0,15.0,28.88,North,0,0.0,0.0,40,0.00,,,0.00,0.00,VWS V14.01,2013-01-05 18:59:00,
2013-01-05 13:00:00,37.4,15.3,28.88,North,0,0.0,0.0,40,0.00,,,0.00,0.00,VWS V14.01,2013-01-05 19:00:00,
2013-01-05 13:01:00,37.4,15.3,28.88,North,0,0.0,0.0,40,0.00,,,0.00,0.00,VWS V14.01,2013-01-05 19:01:00,
2013-01-05 13:02:00,37.4,15.3,28.88,North,0,0.0,0.0,40,0.00,,,0.00,0.00,VWS V14.01,2013-01-05 19:02:00,
2013-01-05 13:03:00,37.4,14.7,28.88,North,0,0.0,0.0,39,0.00,,,0.00,0.00,VWS V14.01,2013-01-05 19:03:00,
2013-01-05 13:04:00,37.4,14.7,28.88,North,0,0.0,0.0,39,0.00,,,0.00,0.00,VWS V14.01,2013-01-05 19:04:00,
2013-01-05 13:05:00,37.6,14.9,28.85,North,0,0.0,0.0,39,0.00,,,0.00,0.00,VWS V14.01,2013-01-05 19:05:00,
2013-01-05 13:06:00,37.8,15.0,28.85,North,0,0.0,0.0,39,0.00,,,0.00,0.00,VWS V14.01,2013-01-05 19:06:00,
2013-01-05 13:07:00,37.9,15.2,28.85,North,0,0.0,0.0,39,0.00,,,0.00,0.00,VWS V14.01,2013-01-05 19:07:00,
2013-01-05 13:08:00,37.9,15.2,28.85,North,0,0.0,0.0,39,0.00,,,0.00,0.00,VWS V14.01,2013-01-05 19:08:00,
2013-01-05 13:09:00,38.1,15.4,28.85,North,0,0.0,0.0,39,0.00,,,0.00,0.00,VWS V14.01,2013-01-05 19:09:00,
2013-01-05 13:10:00,37.8,15.0,28.85,North,0,0.0,0.0,39,0.00,,,0.00,0.00,VWS V14.01,2013-01-05 19:10:00,
2013-01-05 13:11:00,37.8,15.0,28.85,North,0,0.0,0.0,39,0.00,,,0.00,0.00,VWS V14.01,2013-01-05 19:11:00,
2013-01-05 13:12:00,37.6,14.9,28.85,North,0,0.0,0.0,39,0.00,,,0.00,0.00,VWS V14.01,2013-01-05 19:12:00,
2013-01-05 13:13:00,37.4,14.7,28.85,North,0,0.0,0.0,39,0.00,,,0.00,0.00,VWS V14.01,2013-01-05 19:13:00,
2013-01-05 13:14:00,37.4,14.7,28.85,North,0,0.0,0.0,39,0.00,,,0.00,0.00,VWS V14.01,2013-01-05 19:14:00,
2013-01-05 13:15:00,37.4,14.7,28.85,North,0,0.0,0.0,39,0.00,,,0.00,0.00,VWS V14.01,2013-01-05 19:15:00,
2013-01-05 13:16:00,37.4,14.7,28.85,North,0,0.0,0.0,39,0.00,,,0.00,0.00,VWS V14.01,2013-01-05 19:16:00,
2013-01-05 13:17:00,37.0,14.4,28.85,North,0,0.0,0.0,39,0.00,,,0.00,0.00,VWS V14.01,2013-01-05 19:17:00,
2013-01-05 13:18:00,37.0,14.4,28.85,North,0,0.0,0.0,39,0.00,,,0.00,0.00,VWS V14.01,2013-01-05 19:18:00,
2013-01-05 13:19:00,37.0,14.4,28.85,North,0,0.0,0.0,39,0.00,,,0.00,0.00,VWS V14.01,2013-01-05 19:19:00,
2013-01-05 13:20:00,36.9,14.2,28.85,North,0,0.0,0.0,39,0.00,,,0.00,0.00,VWS V14.01,2013-01-05 19:20:00,
2013-01-05 13:21:00,36.7,14.1,28.85,North,0,0.0,0.0,39,0.00,,,0.00,0.00,VWS V14.01,2013-01-05 19:21:00,
2013-01-05 13:22:00,36.7,14.1,28.85,North,0,0.0,0.0,39,0.00,,,0.00,0.00,VWS V14.01,2013-01-05 19:22:00,
2013-01-05 13:23:00,36.5,13.9,28.85,North,0,0.0,0.0,39,0.00,,,0.00,0.00,VWS V14.01,2013-01-05 19:23:00,
2013-01-05 13:24:00,36.9,14.2,28.85,North,0,0.0,0.0,39,0.00,,,0.00,0.00,VWS V14.01,2013-01-05 19:24:00,
2013-01-05 13:25:00,36.7,14.1,28.85,North,0,0.0,0.0,39,0.00,,,0.00,0.00,VWS V14.01,2013-01-05 19:25:00,
2013-01-05 13:26:00,36.7,14.1,28.85,North,0,0.0,0.0,39,0.00,,,0.00,0.00,VWS V14.01,2013-01-05 19:26:00,
2013-01-05 13:27:00,36.5,13.9,28.85,North,0,0.0,0.0,39,0.00,,,0.00,0.00,VWS V14.01,2013-01-05 19:27:00,
2013-01-05 13:28:00,36.5,13.9,28.85,North,0,0.0,0.0,39,0.00,,,0.00,0.00,VWS V14.01,2013-01-05 19:28:00,
2013-01-05 13:29:00,36.5,13.9,28.85,North,0,0.0,0.0,39,0.00,,,0.00,0.00,VWS V14.01,2013-01-05 19:29:00,
2013-01-05 13:30:00,36.3,13.8,28.85,North,0,0.0,0.0,39,0.00,,,0.00,0.00,VWS V14.01,2013-01-05 19:30:00,
2013-01-05 13:31:00,36.3,13.8,28.85,North,0,0.0,0.0,39,0.00,,,0.00,0.00,VWS V14.01,2013-01-05 19:31:00,
2013-01-05 13:32:00,36.3,13.8,28.85,North,0,0.0,0.0,39,0.00,,,0.00,0.00,VWS V14.01,2013-01-05 19:32:00,
2013-01-05 13:33:00,36.3,13.8,28.85,North,0,0.0,0.0,39,0.00,,,0.00,0.00,VWS V14.01,2013-01-05 19:33:00,
2013-01-05 13:34:00,36.3,13.8,28.85,North,0,0.0,0.0,39,0.00,,,0.00,0.00,VWS V14.01,2013-01-05 19:34:00,
2013-01-05 13:35:00,36.0,13.4,28.85,North,0,0.0,0.0,39,0.00,,,0.00,0.00,VWS V14.01,2013-01-05 19:35:00,
2013-01-05 13:36:00,36.1,13.6,28.85,North,0,0.0,0.0,39,0.00,,,0.00,0.00,VWS V14.01,2013-01-05 19:36:00,
2013-01-05 13:37:00,36.3,13.8,28.85,North,0,0.0,0.0,39,0.00,,,0.00,0.00,VWS V14.01,2013-01-05 19:37:00,
2013-01-05 13:38:00,36.5,14.5,28.85,North,0,0.0,0.0,40,0.00,,,0.00,0.00,VWS V14.01,2013-01-05 19:38:00,
2013-01-05 13:39:00,36.7,14.6,28.85,North,0,0.0,0.0,40,0.00,,,0.00,0.00,VWS V14.01,2013-01-05 19:39:00,
2013-01-05 13:40:00,36.5,14.5,28.85,North,0,0.0,0.0,40,0.00,,,0.00,0.00,VWS V14.01,2013-01-05 19:40:00,
2013-01-05 13:41:00,36.7,14.6,28.85,North,0,0.0,0.0,40,0.00,,,0.00,0.00,VWS V14.01,2013-01-05 19:41:00,
2013-01-05 13:42:00,36.5,13.9,28.85,North,0,0.0,0.0,39,0.00,,,0.00,0.00,VWS V14.01,2013-01-05 19:42:00,
2013-01-05 13:43:00,36.3,13.8,28.85,North,0,0.0,0.0,39,0.00,,,0.00,0.00,VWS V14.01,2013-01-05 19:43:00,
2013-01-05 13:44:00,36.5,13.9,28.85,North,0,0.0,0.0,39,0.00,,,0.00,0.00,VWS V14.01,2013-01-05 19:44:00,
2013-01-05 13:45:00,36.7,14.6,28.85,North,0,0.0,0.0,40,0.00,,,0.00,0.00,VWS V14.01,2013-01-05 19:45:00,
2013-01-05 13:46:00,36.7,14.6,28.85,North,0,0.0,0.0,40,0.00,,,0.00,0.00,VWS V14.01,2013-01-05 19:46:00,
2013-01-05 13:47:00,36.5,14.5,28.85,North,0,0.0,0.0,40,0.00,,,0.00,0.00,VWS V14.01,2013-01-05 19:47:00,
2013-01-05 13:48:00,36.7,14.6,28.85,North,0,0.0,0.0,40,0.00,,,0.00,0.00,VWS V14.01,2013-01-05 19:48:00,
2013-01-05 13:49:00,36.7,14.6,28.85,North,0,0.0,0.0,40,0.00,,,0.00,0.00,VWS V14.01,2013-01-05 19:49:00,
2013-01-05 13:50:00,37.0,15.0,28.85,North,0,0.0,0.0,40,0.00,,,0.00,0.00,VWS V14.01,2013-01-05 19:50:00,
2013-01-05 13:51:00,37.0,15.0,28.85,North,0,0.0,0.0,40,0.00,,,0.00,0.00,VWS V14.01,2013-01-05 19:51:00,
2013-01-05 13:52:00,36.9,14.8,28.85,North,0,0.0,0.0,40,0.00,,,0.00,0.00,VWS V14.01,2013-01-05 19:52:00,
2013-01-05 13:53:00,36.9,14.8,28.85,North,0,0.0,0.0,40,0.00,,,0.00,0.00,VWS V14.01,2013-01-05 19:53:00,
2013-01-05 13:54:00,37.0,15.0,28.85,North,0,0.0,0.0,40,0.00,,,0.00,0.00,VWS V14.01,2013-01-05 19:54:00,
2013-01-05 13:55:00,37.0,15.0,28.85,North,0,0.0,0.0,40,0.00,,,0.00,0.00,VWS V14.01,2013-01-05 19:55:00,
2013-01-05 13:56:00,36.7,14.6,28.85,North,0,0.0,0.0,40,0.00,,,0.00,0.00,VWS V14.01,2013-01-05 19:56:00,
2013-01-05 13:57:00,36.5,14.5,28.85,North,0,0.0,0.0,40,0.00,,,0.00,0.00,VWS V14.01,2013-01-05 19:57:00,
2013-01-05 13:58:00,36.7,14.6,28.85,North,0,0.0,0.0,40,0.00,,,0.00,0.00,VWS V14.01,2013-01-05 19:58:00,
2013-01-05 13:59:00,36.5,14.5,28.85,North,0,0.0,0.0,40,0.00,,,0.00,0.00,VWS V14.01,2013-01-05 19:59:00,
2013-01-05 14:00:00,36.3,14.3,28.85,North,0,0.0,0.0,40,0.00,,,0.00,0.00,VWS V14.01,2013-01-05 20:00:00,
2013-01-05 14:01:00,36.3,14.3,28.85,North,0,0.0,0.0,40,0.00,,,0.00,0.00,VWS V14.01,2013-01-05 20:01:00,
2013-01-05 14:02:00,36.3,14.3,28.85,North,0,0.0,0.0,40,0.00,,,0.00,0.00,VWS V14.01,2013-01-05 20:02:00,
2013-01-05 14:03:00,36.7,14.6,28.85,North,0,0.0,0.0,40,0.00,,,0.00,0.00,VWS V14.01,2013-01-05 20:03:00,
2013-01-05 14:04:00,36.9,14.8,28.85,North,0,0.0,0.0,40,0.00,,,0.00,0.00,VWS V14.01,2013-01-05 20:04:00,
2013-01-05 14:05:00,37.0,15.0,28.85,North,0,0.0,0.0,40,0.00,,,0.00,0.00,VWS V14.01,2013-01-05 20:05:00,
2013-01-05 14:06:00,37.0,15.0,28.85,North,0,0.0,0.0,40,0.00,,,0.00,0.00,VWS V14.01,2013-01-05 20:06:00,
2013-01-05 14:07:00,37.2,15.1,28.85,North,0,0.0,0.0,40,0.00,,,0.00,0.00,VWS V14.01,2013-01-05 20:07:00,
2013-01-05 14:08:00,37.0,15.0,28.85,North,0,0.0,0.0,40,0.00,,,0.00,0.00,VWS V14.01,2013-01-05 20:08:00,
2013-01-05 14:09:00,37.4,15.3,28.85,North,0,0.0,0.0,40,0.00,,,0.00,0.00,VWS V14.01,2013-01-05 20:09:00,
2013-01-05 14:10:00,37.4,15.3,28.85,North,0,0.0,0.0,40,0.00,,,0.00,0.00,VWS V14.01,2013-01-05 20:10:00,
2013-01-05 14:11:00,37.2,15.1,28.85,North,0,0.0,0.0,40,0.00,,,0.00,0.00,VWS V14.01,2013-01-05 20:11:00,
2013-01-05 14:12:00,37.2,15.1,28.85,North,0,0.0,0.0,40,0.00,,,0.00,0.00,VWS V14.01,2013-01-05 20:12:00,
2013-01-05 14:13:00,37.0,15.0,28.85,North,0,0.0,0.0,40,0.00,,,0.00,0.00,VWS V14.01,2013-01-05 20:13:00,
2013-01-05 14:14:00,37.4,15.3,28.85,North,0,0.0,0.0,40,0.00,,,0.00,0.00,VWS V14.01,2013-01-05 20:14:00,
2013-01-05 14:15:00,37.4,15.3,28.85,North,0,0.0,0.0,40,0.00,,,0.00,0.00,VWS V14.01,2013-01-05 20:15:00,
2013-01-05 14:16:00,37.4,15.3,28.85,North,0,0.0,0.0,40,0.00,,,0.00,0.00,VWS V14.01,2013-01-05 20:16:00,
2013-01-05 14:17:00,37.6,15.5,28.85,North,0,0.0,0.0,40,0.00,,,0.00,0.00,VWS V14.01,2013-01-05 20:17:00,
2013-01-05 14:18:00,37.6,15.5,28.85,North,0,0.0,0.0,40,0.00,,,0.00,0.00,VWS V14.01,2013-01-05 20:18:00,
2013-01-05 14:19:00,37.6,15.5,28.85,North,0,0.0,0.0,40,0.00,,,0.00,0.00,VWS V14.01,2013-01-05 20:19:00,
2013-01-05 14:20:00,37.4,15.3,28.85,North,0,0.0,0.0,40,0.00,,,0.00,0.00,VWS V14.01,2013-01-05 20:20:00,
2013-01-05 14:21:00,37.4,15.3,28.85,North,0,0.0,0.0,40,0.00,,,0.00,0.00,VWS V14.01,2013-01-05 20:21:00,
2013-01-05 14:22:00,37.6,15.5,28.85,North,0,0.0,0.0,40,0.00,,,0.00,0.00,VWS V14.01,2013-01-05 20:22:00,
2013-01-05 14:23:00,37.9,15.8,28.85,North,0,0.0,0.0,40,0.00,,,0.00,0.00,VWS V14.01,2013-01-05 20:23:00,
2013-01-05 14:24:00,37.9,15.8,28.85,North,0,0.0,0.0,40,0.00,,,0.00,0.00,VWS V14.01,2013-01-05 20:24:00,
2013-01-05 14:25:00,37.9,15.8,28.85,North,0,0.0,0.0,40,0.00,,,0.00,0.00,VWS V14.01,2013-01-05 20:25:00,
2013-01-05 14:26:00,37.8,15.6,28.85,North,0,0.0,0.0,40,0.00,,,0.00,0.00,VWS V14.01,2013-01-05 20:26:00,
2013-01-05 14:27:00,37.6,15.5,28.85,North,0,0.0,0.0,40,0.00,,,0.00,0.00,VWS V14.01,2013-01-05 20:27:00,
2013-01-05 14:28:00,37.4,15.3,28.85,North,0,0.0,0.0,40,0.00,,,0.00,0.00,VWS V14.01,2013-01-05 20:28:00,
2013-01-05 14:29:00,37.6,15.5,28.85,North,0,0.0,0.0,40,0.00,,,0.00,0.00,VWS V14.01,2013-01-05 20:29:00,
2013-01-05 14:30:00,37.0,15.0,28.85,North,0,0.0,0.0,40,0.00,,,0.00,0.00,VWS V14.01,2013-01-05 20:30:00,
2013-01-05 14:31:00,37.0,15.0,28.85,North,0,0.0,0.0,40,0.00,,,0.00,0.00,VWS V14.01,2013-01-05 20:31:00,
2013-01-05 14:32:00,37.0,15.0,28.85,North,0,0.0,0.0,40,0.00,,,0.00,0.00,VWS V14.01,2013-01-05 20:32:00,
2013-01-05 14:33:00,37.0,15.0,28.85,North,0,0.0,0.0,40,0.00,,,0.00,0.00,VWS V14.01,2013-01-05 20:33:00,
2013-01-05 14:34:00,37.0,15.0,28.85,North,0,0.0,0.0,40,0.00,,,0.00,0.00,VWS V14.01,2013-01-05 20:34:00,
2013-01-05 14:35:00,36.9,15.4,28.85,North,0,0.0,0.0,41,0.00,,,0.00,0.00,VWS V14.01,2013-01-05 20:35:00,
2013-01-05 14:36:00,36.9,15.4,28.85,North,0,0.0,0.0,41,0.00,,,0.00,0.00,VWS V14.01,2013-01-05 20:36:00,
2013-01-05 14:37:00,36.9,15.4,28.85,North,0,0.0,0.0,41,0.00,,,0.00,0.00,VWS V14.01,2013-01-05 20:37:00,
2013-01-05 14:38:00,36.7,15.2,28.85,North,0,0.0,0.0,41,0.00,,,0.00,0.00,VWS V14.01,2013-01-05 20:38:00,
2013-01-05 14:39:00,36.7,15.2,28.85,North,0,0.0,0.0,41,0.00,,,0.00,0.00,VWS V14.01,2013-01-05 20:39:00,
2013-01-05 14:40:00,36.7,15.2,28.85,North,0,0.0,0.0,41,0.00,,,0.00,0.00,VWS V14.01,2013-01-05 20:40:00,
2013-01-05 14:41:00,36.5,15.1,28.85,North,0,0.0,0.0,41,0.00,,,0.00,0.00,VWS V14.01,2013-01-05 20:41:00,
2013-01-05 14:42:00,36.7,15.2,28.85,North,0,0.0,0.0,41,0.00,,,0.00,0.00,VWS V14.01,2013-01-05 20:42:00,
2013-01-05 14:43:00,36.5,15.1,28.85,North,0,0.0,0.0,41,0.00,,,0.00,0.00,VWS V14.01,2013-01-05 20:43:00,
2013-01-05 14:44:00,36.5,15.1,28.85,North,0,0.0,0.0,41,0.00,,,0.00,0.00,VWS V14.01,2013-01-05 20:44:00,
2013-01-05 14:45:00,36.3,14.9,28.85,North,0,0.0,0.0,41,0.00,,,0.00,0.00,VWS V14.01,2013-01-05 20:45:00,
2013-01-05 14:46:00,36.3,15.4,28.85,North,0,0.0,0.0,42,0.00,,,0.00,0.00,VWS V14.01,2013-01-05 20:46:00,
2013-01-05 14:47:00,36.3,15.4,28.85,North,0,0.0,0.0,42,0.00,,,0.00,0.00,VWS V14.01,2013-01-05 20:47:00,
2013-01-05 14:48:00,36.3,15.4,28.85,North,0,0.0,0.0,42,0.00,,,0.00,0.00,VWS V14.01,2013-01-05 20:48:00,
2013-01-05 14:49:00,36.3,15.4,28.85,North,0,0.0,0.0,42,0.00,,,0.00,0.00,VWS V14.01,2013-01-05 20:49:00,
2013-01-05 14:50:00,36.1,15.3,28.85,North,0,0.0,0.0,42,0.00,,,0.00,0.00,VWS V14.01,2013-01-05 20:50:00,
2013-01-05 14:51:00,36.1,15.3,28.85,North,0,0.0,0.0,42,0.00,,,0.00,0.00,VWS V14.01,2013-01-05 20:51:00,
2013-01-05 14:52:00,36.1,15.3,28.85,North,0,0.0,0.0,42,0.00,,,0.00,0.00,VWS V14.01,2013-01-05 20:52:00,
2013-01-05 14:53:00,36.1,15.3,28.85,North,0,0.0,0.0,42,0.00,,,0.00,0.00,VWS V14.01,2013-01-05 20:53:00,
2013-01-05 14:54:00,36.1,15.8,28.85,North,0,0.0,0.0,43,0.00,,,0.00,0.00,VWS V14.01,2013-01-05 20:54:00,
2013-01-05 14:55:00,36.1,15.8,28.85,North,0,0.0,0.0,43,0.00,,,0.00,0.00,VWS V14.01,2013-01-05 20:55:00,
2013-01-05 14:56:00,36.3,16.0,28.85,North,0,0.0,0.0,43,0.00,,,0.00,0.00,VWS V14.01,2013-01-05 20:56:00,
2013-01-05 14:57:00,36.3,16.0,28.85,North,0,0.0,0.0,43,0.00,,,0.00,0.00,VWS V14.01,2013-01-05 20:57:00,
2013-01-05 14:58:00,36.3,16.0,28.85,North,0,0.0,0.0,43,0.00,,,0.00,0.00,VWS V14.01,2013-01-05 20:58:00,
2013-01-05 14:59:00,36.3,16.0,28.85,North,0,0.0,0.0,43,0.00,,,0.00,0.00,VWS V14.01,2013-01-05 20:59:00,
2013-01-05 15:00:00,36.7,16.3,28.85,North,0,0.0,0.0,43,0.00,,,0.00,0.00,VWS V14.01,2013-01-05 21:00:00,
2013-01-05 15:01:00,36.7,16.3,28.85,North,0,0.0,0.0,43,0.00,,,0.00,0.00,VWS V14.01,2013-01-05 21:01:00,
2013-01-05 15:02:00,36.9,16.5,28.85,North,0,0.0,0.0,43,0.00,,,0.00,0.00,VWS V14.01,2013-01-05 21:02:00,
2013-01-05 15:03:00,36.9,16.5,28.85,North,0,0.0,0.0,43,0.00,,,0.00,0.00,VWS V14.01,2013-01-05 21:03:00,
2013-01-05 15:04:00,37.0,16.6,28.85,North,0,0.0,0.0,43,0.00,,,0.00,0.00,VWS V14.01,2013-01-05 21:04:00,
2013-01-05 15:05:00,37.4,17.0,28.85,North,0,0.0,0.0,43,0.00,,,0.00,0.00,VWS V14.01,2013-01-05 21:05:00,
2013-01-05 15:06:00,37.4,17.0,28.85,North,0,0.0,0.0,43,0.00,,,0.00,0.00,VWS V14.01,2013-01-05 21:06:00,
2013-01-05 15:07:00,37.6,17.1,28.85,North,0,0.0,0.0,43,0.00,,,0.00,0.00,VWS V14.01,2013-01-05 21:07:00,
2013-01-05 15:08:00,37.8,17.3,28.85,North,0,0.0,0.0,43,0.00,,,0.00,0.00,VWS V14.01,2013-01-05 21:08:00,
2013-01-05 15:09:00,37.8,17.3,28.85,North,0,0.0,0.0,43,0.00,,,0.00,0.00,VWS V14.01,2013-01-05 21:09:00,
2013-01-05 15:10:00,37.9,17.5,28.85,North,0,0.0,0.0,43,0.00,,,0.00,0.00,VWS V14.01,2013-01-05 21:10:00,
2013-01-05 15:11:00,37.9,17.5,28.85,North,0,0.0,0.0,43,0.00,,,0.00,0.00,VWS V14.01,2013-01-05 21:11:00,
2013-01-05 15:12:00,37.9,16.9,28.85,North,0,0.0,0.0,42,0.00,,,0.00,0.00,VWS V14.01,2013-01-05 21:12:00,
2013-01-05 15:13:00,37.9,16.9,28.85,North,0,0.0,0.0,42,0.00,,,0.00,0.00,VWS V14.01,2013-01-05 21:13:00,
2013-01-05 15:14:00,38.3,17.8,28.85,North,0,0.0,0.0,43,0.00,,,0.00,0.00,VWS V14.01,2013-01-05 21:14:00,
2013-01-05 15:15:00,38.5,17.9,28.85,North,0,0.0,0.0,43,0.00,,,0.00,0.00,VWS V14.01,2013-01-05 21:15:00,
2013-01-05 15:16:00,38.7,18.1,28.85,North,0,0.0,0.0,43,0.00,,,0.00,0.00,VWS V14.01,2013-01-05 21:16:00,
2013-01-05 15:17:00,38.8,18.3,28.85,North,0,0.0,0.0,43,0.00,,,0.00,0.00,VWS V14.01,2013-01-05 21:17:00,
2013-01-05 15:18:00,38.8,17.7,28.85,North,0,0.0,0.0,42,0.00,,,0.00,0.00,VWS V14.01,2013-01-05 21:18:00,
2013-01-05 15:19:00,38.8,17.7,28.85,North,0,0.0,0.0,42,0.00,,,0.00,0.00,VWS V14.01,2013-01-05 21:19:00,
2013-01-05 15:20:00,39.0,17.9,28.85,North,0,0.0,0.0,42,0.00,,,0.00,0.00,VWS V14.01,2013-01-05 21:20:00,
2013-01-05 15:21:00,39.0,17.9,28.85,North,0,0.0,0.0,42,0.00,,,0.00,0.00,VWS V14.01,2013-01-05 21:21:00,
2013-01-05 15:22:00,38.8,17.7,28.85,North,0,0.0,0.0,42,0.00,,,0.00,0.00,VWS V14.01,2013-01-05 21:22:00,
2013-01-05 15:23:00,38.8,17.7,28.85,North,0,0.0,0.0,42,0.00,,,0.00,0.00,VWS V14.01,2013-01-05 21:23:00,
2013-01-05 15:24:00,38.8,17.7,28.85,North,0,0.0,0.0,42,0.00,,,0.00,0.00,VWS V14.01,2013-01-05 21:24:00,
2013-01-05 15:25:00,38.8,17.7,28.85,North,0,0.0,0.0,42,0.00,,,0.00,0.00,VWS V14.01,2013-01-05 21:25:00,
2013-01-05 15:26:00,38.8,17.7,28.85,North,0,0.0,0.0,42,0.00,,,0.00,0.00,VWS V14.01,2013-01-05 21:26:00,
2013-01-05 15:27:00,38.7,17.6,28.85,North,0,0.0,0.0,42,0.00,,,0.00,0.00,VWS V14.01,2013-01-05 21:27:00,
2013-01-05 15:28:00,38.7,17.6,28.85,North,0,0.0,0.0,42,0.00,,,0.00,0.00,VWS V14.01,2013-01-05 21:28:00,
2013-01-05 15:29:00,38.7,17.6,28.85,North,0,0.0,0.0,42,0.00,,,0.00,0.00,VWS V14.01,2013-01-05 21:29:00,
2013-01-05 15:30:00,38.7,18.1,28.85,North,0,0.0,0.0,43,0.00,,,0.00,0.00,VWS V14.01,2013-01-05 21:30:00,
2013-01-05 15:31:00,38.7,18.1,28.85,North,0,0.0,0.0,43,0.00,,,0.00,0.00,VWS V14.01,2013-01-05 21:31:00,
2013-01-05 15:32:00,38.5,17.9,28.85,North,0,0.0,0.0,43,0.00,,,0.00,0.00,VWS V14.01,2013-01-05 21:32:00,
2013-01-05 15:33:00,38.5,17.9,28.85,North,0,0.0,0.0,43,0.00,,,0.00,0.00,VWS V14.01,2013-01-05 21:33:00,
2013-01-05 15:34:00,38.5,17.9,28.85,North,0,0.0,0.0,43,0.00,,,0.00,0.00,VWS V14.01,2013-01-05 21:34:00,
2013-01-05 15:35:00,38.5,17.9,28.85,North,0,0.0,0.0,43,0.00,,,0.00,0.00,VWS V14.01,2013-01-05 21:35:00,
2013-01-05 15:36:00,38.3,17.8,28.85,North,0,0.0,0.0,43,0.00,,,0.00,0.00,VWS V14.01,2013-01-05 21:36:00,
2013-01-05 15:37:00,38.3,17.8,28.85,North,0,0.0,0.0,43,0.00,,,0.00,0.00,VWS V14.01,2013-01-05 21:37:00,
2013-01-05 15:38:00,38.1,17.6,28.85,North,0,0.0,0.0,43,0.00,,,0.00,0.00,VWS V14.01,2013-01-05 21:38:00,
2013-01-05 15:39:00,38.1,18.1,28.85,North,0,0.0,0.0,44,0.00,,,0.00,0.00,VWS V14.01,2013-01-05 21:39:00,
2013-01-05 15:40:00,38.1,18.1,28.85,North,0,0.0,0.0,44,0.00,,,0.00,0.00,VWS V14.01,2013-01-05 21:40:00,
2013-01-05 15:41:00,38.1,18.1,28.85,North,0,0.0,0.0,44,0.00,,,0.00,0.00,VWS V14.01,2013-01-05 21:41:00,
2013-01-05 15:42:00,38.1,18.1,28.85,North,0,0.0,0.0,44,0.00,,,0.00,0.00,VWS V14.01,2013-01-05 21:42:00,
2013-01-05 15:43:00,38.1,18.1,28.85,North,0,0.0,0.0,44,0.00,,,0.00,0.00,VWS V14.01,2013-01-05 21:43:00,
2013-01-05 15:44:00,37.9,18.0,28.85,North,0,0.0,0.0,44,0.00,,,0.00,0.00,VWS V14.01,2013-01-05 21:44:00,
2013-01-05 15:45:00,37.9,18.5,28.85,North,0,0.0,0.0,45,0.00,,,0.00,0.00,VWS V14.01,2013-01-05 21:45:00,
2013-01-05 15:46:00,37.9,18.5,28.85,North,0,0.0,0.0,45,0.00,,,0.00,0.00,VWS V14.01,2013-01-05 21:46:00,
2013-01-05 15:47:00,37.9,18.5,28.85,North,0,0.0,0.0,45,0.00,,,0.00,0.00,VWS V14.01,2013-01-05 21:47:00,
2013-01-05 15:48:00,37.9,18.5,28.85,North,0,0.0,0.0,45,0.00,,,0.00,0.00,VWS V14.01,2013-01-05 21:48:00,
2013-01-05 15:49:00,37.9,18.5,28.85,North,0,0.0,0.0,45,0.00,,,0.00,0.00,VWS V14.01,2013-01-05 21:49:00,
2013-01-05 15:50:00,37.9,18.5,28.85,North,0,0.0,0.0,45,0.00,,,0.00,0.00,VWS V14.01,2013-01-05 21:50:00,
2013-01-05 15:51:00,38.1,19.2,28.85,North,0,0.0,0.0,46,0.00,,,0.00,0.00,VWS V14.01,2013-01-05 21:51:00,
2013-01-05 15:52:00,38.1,19.2,28.85,North,0,0.0,0.0,46,0.00,,,0.00,0.00,VWS V14.01,2013-01-05 21:52:00,
2013-01-05 15:53:00,38.3,19.4,28.85,North,0,0.0,0.0,46,0.00,,,0.00,0.00,VWS V14.01,2013-01-05 21:53:00,
2013-01-05 15:54:00,38.3,19.4,28.85,North,0,0.0,0.0,46,0.00,,,0.00,0.00,VWS V14.01,2013-01-05 21:54:00,
2013-01-05 15:55:00,38.3,19.4,28.85,North,0,0.0,0.0,46,0.00,,,0.00,0.00,VWS V14.01,2013-01-05 21:55:00,
2013-01-05 15:56:00,38.3,19.4,28.85,North,0,0.0,0.0,46,0.00,,,0.00,0.00,VWS V14.01,2013-01-05 21:56:00,
2013-01-05 15:57:00,38.3,19.4,28.85,North,0,0.0,0.0,46,0.00,,,0.00,0.00,VWS V14.01,2013-01-05 21:57:00,
2013-01-05 15:58:00,38.3,19.4,28.85,North,0,0.0,0.0,46,0.00,,,0.00,0.00,VWS V14.01,2013-01-05 21:58:00,
2013-01-05 15:59:00,38.3,19.4,28.85,North,0,0.0,0.0,46,0.00,,,0.00,0.00,VWS V14.01,2013-01-05 21:59:00,
2013-01-05 16:00:00,38.1,19.2,28.85,North,0,0.0,0.0,46,0.00,,,0.00,0.00,VWS V14.01,2013-01-05 22:00:00,
2013-01-05 16:01:00,38.1,19.2,28.85,North,0,0.0,0.0,46,0.00,,,0.00,0.00,VWS V14.01,2013-01-05 22:01:00,
2013-01-05 16:02:00,38.1,19.2,28.85,North,0,0.0,0.0,46,0.00,,,0.00,0.00,VWS V14.01,2013-01-05 22:02:00,
2013-01-05 16:03:00,37.9,19.0,28.85,North,0,0.0,0.0,46,0.00,,,0.00,0.00,VWS V14.01,2013-01-05 22:03:00,
2013-01-05 16:04:00,37.9,19.0,28.85,North,0,0.0,0.0,46,0.00,,,0.00,0.00,VWS V14.01,2013-01-05 22:04:00,
2013-01-05 16:05:00,37.8,18.9,28.85,North,0,0.0,0.0,46,0.00,,,0.00,0.00,VWS V14.01,2013-01-05 22:05:00,
2013-01-05 16:06:00,37.8,18.9,28.85,North,0,0.0,0.0,46,0.00,,,0.00,0.00,VWS V14.01,2013-01-05 22:06:00,
2013-01-05 16:07:00,37.8,18.9,28.85,North,0,0.0,0.0,46,0.00,,,0.00,0.00,VWS V14.01,2013-01-05 22:07:00,
2013-01-05 16:08:00,37.6,18.7,28.85,North,0,0.0,0.0,46,0.00,,,0.00,0.00,VWS V14.01,2013-01-05 22:08:00,
2013-01-05 16:09:00,37.6,18.7,28.85,North,0,0.0,0.0,46,0.00,,,0.00,0.00,VWS V14.01,2013-01-05 22:09:00,
2013-01-05 16:10:00,37.6,18.7,28.85,North,0,0.0,0.0,46,0.00,,,0.00,0.00,VWS V14.01,2013-01-05 22:10:00,
2013-01-05 16:11:00,37.4,18.5,28.85,North,0,0.0,0.0,46,0.00,,,0.00,0.00,VWS V14.01,2013-01-05 22:11:00,
2013-01-05 16:12:00,37.4,18.5,28.85,North,0,0.0,0.0,46,0.00,,,0.00,0.00,VWS V14.01,2013-01-05 22:12:00,
2013-01-05 16:13:00,37.4,18.5,28.85,North,0,0.0,0.0,46,0.00,,,0.00,0.00,VWS V14.01,2013-01-05 22:13:00,
2013-01-05 16:14:00,37.2,18.9,28.85,North,0,0.0,0.0,47,0.00,,,0.00,0.00,VWS V14.01,2013-01-05 22:14:00,
2013-01-05 16:15:00,37.2,18.9,28.85,North,0,0.0,0.0,47,0.00,,,0.00,0.00,VWS V14.01,2013-01-05 22:15:00,
2013-01-05 16:16:00,37.0,19.2,28.85,North,0,0.0,0.0,48,0.00,,,0.00,0.00,VWS V14.01,2013-01-05 22:16:00,
2013-01-05 16:17:00,37.0,19.2,28.85,North,0,0.0,0.0,48,0.00,,,0.00,0.00,VWS V14.01,2013-01-05 22:17:00,
2013-01-05 16:18:00,37.0,19.2,28.85,North,0,0.0,0.0,48,0.00,,,0.00,0.00,VWS V14.01,2013-01-05 22:18:00,
2013-01-05 16:19:00,37.0,19.2,28.85,North,0,0.0,0.0,48,0.00,,,0.00,0.00,VWS V14.01,2013-01-05 22:19:00,
2013-01-05 16:20:00,36.9,19.0,28.85,North,0,0.0,0.0,48,0.00,,,0.00,0.00,VWS V14.01,2013-01-05 22:20:00,
2013-01-05 16:21:00,36.7,18.9,28.85,North,0,0.0,0.0,48,0.00,,,0.00,0.00,VWS V14.01,2013-01-05 22:21:00,
2013-01-05 16:22:00,36.7,18.9,28.85,North,0,0.0,0.0,48,0.00,,,0.00,0.00,VWS V14.01,2013-01-05 22:22:00,
2013-01-05 16:23:00,36.5,19.2,28.85,North,0,0.0,0.0,49,0.00,,,0.00,0.00,VWS V14.01,2013-01-05 22:23:00,
2013-01-05 16:24:00,36.5,19.2,28.85,North,0,0.0,0.0,49,0.00,,,0.00,0.00,VWS V14.01,2013-01-05 22:24:00,
2013-01-05 16:25:00,36.3,19.0,28.85,North,0,0.0,0.0,49,0.00,,,0.00,0.00,VWS V14.01,2013-01-05 22:25:00,
2013-01-05 16:26:00,36.3,19.0,28.85,North,0,0.0,0.0,49,0.00,,,0.00,0.00,VWS V14.01,2013-01-05 22:26:00,
2013-01-05 16:27:00,36.1,18.8,28.85,North,0,0.0,0.0,49,0.00,,,0.00,0.00,VWS V14.01,2013-01-05 22:27:00,
2013-01-05 16:28:00,36.1,18.8,28.85,North,0,0.0,0.0,49,0.00,,,0.00,0.00,VWS V14.01,2013-01-05 22:28:00,
2013-01-05 16:29:00,36.0,18.7,28.85,North,0,0.0,0.0,49,0.00,,,0.00,0.00,VWS V14.01,2013-01-05 22:29:00,
2013-01-05 16:30:00,35.8,18.5,28.85,North,0,0.0,0.0,49,0.00,,,0.00,0.00,VWS V14.01,2013-01-05 22:30:00,
2013-01-05 16:31:00,35.8,18.5,28.85,North,0,0.0,0.0,49,0.00,,,0.00,0.00,VWS V14.01,2013-01-05 22:31:00,
2013-01-05 16:32:00,35.8,18.5,28.85,North,0,0.0,0.0,49,0.00,,,0.00,0.00,VWS V14.01,2013-01-05 22:32:00,
2013-01-05 16:33:00,35.8,18.5,28.85,North,0,0.0,0.0,49,0.00,,,0.00,0.00,VWS V14.01,2013-01-05 22:33:00,
2013-01-05 16:34:00,35.6,18.3,28.85,North,0,0.0,0.0,49,0.00,,,0.00,0.00,VWS V14.01,2013-01-05 22:34:00,
2013-01-05 16:35:00,35.6,18.8,28.85,North,0,0.0,0.0,50,0.00,,,0.00,0.00,VWS V14.01,2013-01-05 22:35:00,
2013-01-05 16:36:00,35.6,18.8,28.85,North,0,0.0,0.0,50,0.00,,,0.00,0.00,VWS V14.01,2013-01-05 22:36:00,
2013-01-05 16:37:00,35.6,18.8,28.85,North,0,0.0,0.0,50,0.00,,,0.00,0.00,VWS V14.01,2013-01-05 22:37:00,
2013-01-05 16:38:00,35.4,18.6,28.85,North,0,0.0,0.0,50,0.00,,,0.00,0.00,VWS V14.01,2013-01-05 22:38:00,
2013-01-05 16:39:00,35.4,18.6,28.85,North,0,0.0,0.0,50,0.00,,,0.00,0.00,VWS V14.01,2013-01-05 22:39:00,
2013-01-05 16:40:00,35.4,18.6,28.85,North,0,0.0,0.0,50,0.00,,,0.00,0.00,VWS V14.01,2013-01-05 22:40:00,
2013-01-05 16:41:00,35.4,18.6,28.85,North,0,0.0,0.0,50,0.00,,,0.00,0.00,VWS V14.01,2013-01-05 22:41:00,
2013-01-05 16:42:00,35.4,18.6,28.85,North,0,0.0,0.0,50,0.00,,,0.00,0.00,VWS V14.01,2013-01-05 22:42:00,
2013-01-05 16:43:00,35.4,18.6,28.85,North,0,0.0,0.0,50,0.00,,,0.00,0.00,VWS V14.01,2013-01-05 22:43:00,
2013-01-05 16:44:00,35.4,18.6,28.85,North,0,0.0,0.0,50,0.00,,,0.00,0.00,VWS V14.01,2013-01-05 22:44:00,
2013-01-05 16:45:00,35.1,18.8,28.85,North,0,0.0,0.0,51,0.00,,,0.00,0.00,VWS V14.01,2013-01-05 22:45:00,
2013-01-05 16:46:00,35.1,18.8,28.85,North,0,0.0,0.0,51,0.00,,,0.00,0.00,VWS V14.01,2013-01-05 22:46:00,
2013-01-05 16:47:00,34.9,18.6,28.85,North,0,0.0,0.0,51,0.00,,,0.00,0.00,VWS V14.01,2013-01-05 22:47:00,
2013-01-05 16:48:00,34.7,18.4,28.85,North,0,0.0,0.0,51,0.00,,,0.00,0.00,VWS V14.01,2013-01-05 22:48:00,
2013-01-05 16:49:00,34.5,17.8,28.85,North,0,0.0,0.0,50,0.00,,,0.00,0.00,VWS V14.01,2013-01-05 22:49:00,
2013-01-05 16:50:00,34.3,18.1,28.85,North,0,0.0,0.0,51,0.00,,,0.00,0.00,VWS V14.01,2013-01-05 22:50:00,
2013-01-05 16:51:00,34.3,18.1,28.85,North,0,0.0,0.0,51,0.00,,,0.00,0.00,VWS V14.01,2013-01-05 22:51:00,
2013-01-05 16:52:00,34.0,17.3,28.85,North,0,0.0,0.0,50,0.00,,,0.00,0.00,VWS V14.01,2013-01-05 22:52:00,
2013-01-05 16:53:00,33.8,17.6,28.85,North,0,0.0,0.0,51,0.00,,,0.00,0.00,VWS V14.01,2013-01-05 22:53:00,
2013-01-05 16:54:00,33.6,17.4,28.85,North,0,0.0,0.0,51,0.00,,,0.00,0.00,VWS V14.01,2013-01-05 22:54:00,
2013-01-05 16:55:00,33.4,17.3,28.85,North,0,0.0,0.0,51,0.00,,,0.00,0.00,VWS V14.01,2013-01-05 22:55:00,
2013-01-05 16:56:00,33.3,17.1,28.85,North,0,0.0,0.0,51,0.00,,,0.00,0.00,VWS V14.01,2013-01-05 22:56:00,
2013-01-05 16:57:00,33.1,16.9,28.85,North,0,0.0,0.0,51,0.00,,,0.00,0.00,VWS V14.01,2013-01-05 22:57:00,
2013-01-05 16:58:00,32.9,16.8,28.85,North,0,0.0,0.0,51,0.00,,,0.00,0.00,VWS V14.01,2013-01-05 22:58:00,
2013-01-05 16:59:00,32.7,16.6,28.85,North,0,0.0,0.0,51,0.00,,,0.00,0.00,VWS V14.01,2013-01-05 22:59:00,
2013-01-05 17:00:00,32.5,16.4,28.85,North,0,0.0,0.0,51,0.00,,,0.00,0.00,VWS V14.01,2013-01-05 23:00:00,
2013-01-05 17:01:00,32.4,16.3,28.85,North,0,0.0,0.0,51,0.00,,,0.00,0.00,VWS V14.01,2013-01-05 23:01:00,
2013-01-05 17:02:00,32.2,16.5,28.85,North,0,0.0,0.0,52,0.00,,,0.00,0.00,VWS V14.01,2013-01-05 23:02:00,
2013-01-05 17:03:00,32.0,16.4,28.85,North,0,0.0,0.0,52,0.00,,,0.00,0.00,VWS V14.01,2013-01-05 23:03:00,
2013-01-05 17:04:00,31.8,16.2,28.85,North,0,0.0,0.0,52,0.00,,,0.00,0.00,VWS V14.01,2013-01-05 23:04:00,
2013-01-05 17:05:00,31.6,16.0,28.85,North,0,0.0,0.0,52,0.00,,,0.00,0.00,VWS V14.01,2013-01-05 23:05:00,
2013-01-05 17:06:00,31.6,16.0,28.85,North,0,0.0,0.0,52,0.00,,,0.00,0.00,VWS V14.01,2013-01-05 23:06:00,
2013-01-05 17:07:00,31.5,15.9,28.85,North,0,0.0,0.0,52,0.00,,,0.00,0.00,VWS V14.01,2013-01-05 23:07:00,
2013-01-05 17:08:00,31.5,15.9,28.85,North,0,0.0,0.0,52,0.00,,,0.00,0.00,VWS V14.01,2013-01-05 23:08:00,
2013-01-05 17:09:00,31.3,15.7,28.85,North,0,0.0,0.0,52,0.00,,,0.00,0.00,VWS V14.01,2013-01-05 23:09:00,
2013-01-05 17:10:00,31.1,16.0,28.85,North,0,0.0,0.0,53,0.00,,,0.00,0.00,VWS V14.01,2013-01-05 23:10:00,
2013-01-05 17:11:00,31.1,16.0,28.85,North,0,0.0,0.0,53,0.00,,,0.00,0.00,VWS V14.01,2013-01-05 23:11:00,
2013-01-05 17:12:00,31.1,16.0,28.85,North,0,0.0,0.0,53,0.00,,,0.00,0.00,VWS V14.01,2013-01-05 23:12:00,
2013-01-05 17:13:00,31.1,16.4,28.85,North,0,0.0,0.0,54,0.00,,,0.00,0.00,VWS V14.01,2013-01-05 23:13:00,
2013-01-05 17:14:00,31.1,16.4,28.85,North,0,0.0,0.0,54,0.00,,,0.00,0.00,VWS V14.01,2013-01-05 23:14:00,
2013-01-05 17:15:00,30.9,16.7,28.85,North,0,0.0,0.0,55,0.00,,,0.00,0.00,VWS V14.01,2013-01-05 23:15:00,
2013-01-05 17:16:00,30.9,16.7,28.85,North,0,0.0,0.0,55,0.00,,,0.00,0.00,VWS V14.01,2013-01-05 23:16:00,
2013-01-05 17:17:00,30.9,16.7,28.85,North,0,0.0,0.0,55,0.00,,,0.00,0.00,VWS V14.01,2013-01-05 23:17:00,
2013-01-05 17:18:00,30.9,16.7,28.85,North,0,0.0,0.0,55,0.00,,,0.00,0.00,VWS V14.01,2013-01-05 23:18:00,
2013-01-05 17:19:00,30.9,16.7,28.85,North,0,0.0,0.0,55,0.00,,,0.00,0.00,VWS V14.01,2013-01-05 23:19:00,
2013-01-05 17:20:00,30.7,16.5,28.88,North,0,0.0,0.0,55,0.00,,,0.00,0.00,VWS V14.01,2013-01-05 23:20:00,
2013-01-05 17:21:00,30.6,16.3,28.88,North,0,0.0,0.0,55,0.00,,,0.00,0.00,VWS V14.01,2013-01-05 23:21:00,
2013-01-05 17:22:00,30.6,16.3,28.88,North,0,0.0,0.0,55,0.00,,,0.00,0.00,VWS V14.01,2013-01-05 23:22:00,
2013-01-05 17:23:00,30.4,16.2,28.88,North,0,0.0,0.0,55,0.00,,,0.00,0.00,VWS V14.01,2013-01-05 23:23:00,
2013-01-05 17:24:00,30.2,16.4,28.88,North,0,0.0,0.0,56,0.00,,,0.00,0.00,VWS V14.01,2013-01-05 23:24:00,
2013-01-05 17:25:00,30.0,16.2,28.88,North,0,0.0,0.0,56,0.00,,,0.00,0.00,VWS V14.01,2013-01-05 23:25:00,
2013-01-05 17:26:00,30.0,16.2,28.88,North,0,0.0,0.0,56,0.00,,,0.00,0.00,VWS V14.01,2013-01-05 23:26:00,
2013-01-05 17:27:00,30.0,16.2,28.88,North,0,0.0,0.0,56,0.00,,,0.00,0.00,VWS V14.01,2013-01-05 23:27:00,
2013-01-05 17:28:00,30.0,16.6,28.88,North,0,0.0,0.0,57,0.00,,,0.00,0.00,VWS V14.01,2013-01-05 23:28:00,
2013-01-05 17:29:00,30.0,16.6,28.88,North,0,0.0,0.0,57,0.00,,,0.00,0.00,VWS V14.01,2013-01-05 23:29:00,
2013-01-05 17:30:00,29.7,15.9,28.88,North,0,0.0,0.0,56,0.00,,,0.00,0.00,VWS V14.01,2013-01-05 23:30:00,
2013-01-05 17:31:00,29.7,15.9,28.88,North,0,0.0,0.0,56,0.00,,,0.00,0.00,VWS V14.01,2013-01-05 23:31:00,
2013-01-05 17:32:00,29.5,15.7,28.88,North,0,0.0,0.0,56,0.00,,,0.00,0.00,VWS V14.01,2013-01-05 23:32:00,
2013-01-05 17:33:00,29.5,15.7,28.88,North,0,0.0,0.0,56,0.00,,,0.00,0.00,VWS V14.01,2013-01-05 23:33:00,
2013-01-05 17:34:00,29.5,15.7,28.88,North,0,0.0,0.0,56,0.00,,,0.00,0.00,VWS V14.01,2013-01-05 23:34:00,
2013-01-05 17:35:00,29.3,15.6,28.88,North,0,0.0,0.0,56,0.00,,,0.00,0.00,VWS V14.01,2013-01-05 23:35:00,
2013-01-05 17:36:00,29.5,16.1,28.88,North,0,0.0,0.0,57,0.00,,,0.00,0.00,VWS V14.01,2013-01-05 23:36:00,
2013-01-05 17:37:00,29.5,16.1,28.88,North,0,0.0,0.0,57,0.00,,,0.00,0.00,VWS V14.01,2013-01-05 23:37:00,
2013-01-05 17:38:00,29.5,16.1,28.88,North,0,0.0,0.0,57,0.00,,,0.00,0.00,VWS V14.01,2013-01-05 23:38:00,
2013-01-05 17:39:00,29.7,17.5,28.88,North,0,0.0,0.0,60,0.00,,,0.00,0.00,VWS V14.01,2013-01-05 23:39:00,
2013-01-05 17:40:00,29.7,17.5,28.88,North,0,0.0,0.0,60,0.00,,,0.00,0.00,VWS V14.01,2013-01-05 23:40:00,
2013-01-05 17:41:00,29.8,17.7,28.88,North,0,0.0,0.0,60,0.00,,,0.00,0.00,VWS V14.01,2013-01-05 23:41:00,
2013-01-05 17:42:00,29.8,17.7,28.88,North,0,0.0,0.0,60,0.00,,,0.00,0.00,VWS V14.01,2013-01-05 23:42:00,
2013-01-05 17:43:00,29.8,17.7,28.88,North,0,0.0,0.0,60,0.00,,,0.00,0.00,VWS V14.01,2013-01-05 23:43:00,
2013-01-05 17:44:00,30.0,18.2,28.88,North,0,0.0,0.0,61,0.00,,,0.00,0.00,VWS V14.01,2013-01-05 23:44:00,
2013-01-05 17:45:00,30.0,18.2,28.88,North,0,0.0,0.0,61,0.00,,,0.00,0.00,VWS V14.01,2013-01-05 23:45:00,
2013-01-05 17:46:00,30.0,18.2,28.88,North,0,0.0,0.0,61,0.00,,,0.00,0.00,VWS V14.01,2013-01-05 23:46:00,
2013-01-05 17:47:00,30.0,18.2,28.88,North,0,0.0,0.0,61,0.00,,,0.00,0.00,VWS V14.01,2013-01-05 23:47:00,
2013-01-05 17:48:00,30.2,18.8,28.88,North,0,0.0,0.0,62,0.00,,,0.00,0.00,VWS V14.01,2013-01-05 23:48:00,
2013-01-05 17:49:00,30.2,18.8,28.88,North,0,0.0,0.0,62,0.00,,,0.00,0.00,VWS V14.01,2013-01-05 23:49:00,
2013-01-05 17:50:00,30.2,19.1,28.88,North,0,0.0,0.0,63,0.00,,,0.00,0.00,VWS V14.01,2013-01-05 23:50:00,
2013-01-05 17:51:00,30.2,19.1,28.88,North,0,0.0,0.0,63,0.00,,,0.00,0.00,VWS V14.01,2013-01-05 23:51:00,
2013-01-05 17:52:00,30.2,18.8,28.88,North,0,0.0,0.0,62,0.00,,,0.00,0.00,VWS V14.01,2013-01-05 23:52:00,
2013-01-05 17:53:00,30.0,18.2,28.88,North,0,0.0,0.0,61,0.00,,,0.00,0.00,VWS V14.01,2013-01-05 23:53:00,
2013-01-05 17:54:00,30.2,18.4,28.88,North,0,0.0,0.0,61,0.00,,,0.00,0.00,VWS V14.01,2013-01-05 23:54:00,
2013-01-05 17:55:00,30.2,18.8,28.88,North,0,0.0,0.0,62,0.00,,,0.00,0.00,VWS V14.01,2013-01-05 23:55:00,
2013-01-05 17:56:00,30.2,18.8,28.88,North,0,0.0,0.0,62,0.00,,,0.00,0.00,VWS V14.01,2013-01-05 23:56:00,
2013-01-05 17:57:00,30.2,18.8,28.88,North,0,0.0,0.0,62,0.00,,,0.00,0.00,VWS V14.01,2013-01-05 23:57:00,
2013-01-05 17:58:00,30.2,18.8,28.88,North,0,0.0,0.0,62,0.00,,,0.00,0.00,VWS V14.01,2013-01-05 23:58:00,
2013-01-05 17:59:00,30.2,18.8,28.88,North,0,0.0,0.0,62,0.00,,,0.00,0.00,VWS V14.01,2013-01-05 23:59:00,
2013-01-05 18:00:00,30.0,18.2,28.88,North,0,0.0,0.0,61,0.00,,,0.00,0.00,VWS V14.01,2013-01-06 00:00:00,
2013-01-05 18:01:00,29.8,18.0,28.88,North,0,0.0,0.0,61,0.00,,,0.00,0.00,VWS V14.01,2013-01-06 00:01:00,
2013-01-05 18:02:00,30.0,18.2,28.88,North,0,0.0,0.0,61,0.00,,,0.00,0.00,VWS V14.01,2013-01-06 00:02:00,
2013-01-05 18:03:00,30.2,18.8,28.88,North,0,0.0,0.0,62,0.00,,,0.00,0.00,VWS V14.01,2013-01-06 00:03:00,
2013-01-05 18:04:00,30.0,18.6,28.88,North,0,0.0,0.0,62,0.00,,,0.00,0.00,VWS V14.01,2013-01-06 00:04:00,
2013-01-05 18:05:00,30.2,18.8,28.91,North,0,0.0,0.0,62,0.00,,,0.00,0.00,VWS V14.01,2013-01-06 00:05:00,
2013-01-05 18:06:00,30.2,18.8,28.91,North,0,0.0,0.0,62,0.00,,,0.00,0.00,VWS V14.01,2013-01-06 00:06:00,
2013-01-05 18:07:00,30.0,18.6,28.91,North,0,0.0,0.0,62,0.00,,,0.00,0.00,VWS V14.01,2013-01-06 00:07:00,
2013-01-05 18:08:00,30.2,18.8,28.91,North,0,0.0,0.0,62,0.00,,,0.00,0.00,VWS V14.01,2013-01-06 00:08:00,
2013-01-05 18:09:00,30.0,18.6,28.91,North,0,0.0,0.0,62,0.00,,,0.00,0.00,VWS V14.01,2013-01-06 00:09:00,
2013-01-05 18:10:00,30.0,18.2,28.91,North,0,0.0,0.0,61,0.00,,,0.00,0.00,VWS V14.01,2013-01-06 00:10:00,
2013-01-05 18:11:00,30.0,18.2,28.91,North,0,0.0,0.0,61,0.00,,,0.00,0.00,VWS V14.01,2013-01-06 00:11:00,
2013-01-05 18:12:00,29.8,18.0,28.91,North,0,0.0,0.0,61,0.00,,,0.00,0.00,VWS V14.01,2013-01-06 00:12:00,
2013-01-05 18:13:00,29.8,18.0,28.91,North,0,0.0,0.0,61,0.00,,,0.00,0.00,VWS V14.01,2013-01-06 00:13:00,
2013-01-05 18:14:00,29.7,17.5,28.91,North,0,0.0,0.0,60,0.00,,,0.00,0.00,VWS V14.01,2013-01-06 00:14:00,
2013-01-05 18:15:00,29.5,17.3,28.91,North,0,0.0,0.0,60,0.00,,,0.00,0.00,VWS V14.01,2013-01-06 00:15:00,
2013-01-05 18:16:00,29.5,17.3,28.91,North,0,0.0,0.0,60,0.00,,,0.00,0.00,VWS V14.01,2013-01-06 00:16:00,
2013-01-05 18:17:00,29.3,17.1,28.91,North,0,0.0,0.0,60,0.00,,,0.00,0.00,VWS V14.01,2013-01-06 00:17:00,
2013-01-05 18:18:00,29.3,17.1,28.91,North,0,0.0,0.0,60,0.00,,,0.00,0.00,VWS V14.01,2013-01-06 00:18:00,
2013-01-05 18:19:00,29.1,17.0,28.91,North,0,0.0,0.0,60,0.00,,,0.00,0.00,VWS V14.01,2013-01-06 00:19:00,
2013-01-05 18:20:00,29.1,17.0,28.88,North,0,0.0,0.0,60,0.00,,,0.00,0.00,VWS V14.01,2013-01-06 00:20:00,
2013-01-05 18:21:00,28.9,16.8,28.88,North,0,0.0,0.0,60,0.00,,,0.00,0.00,VWS V14.01,2013-01-06 00:21:00,
2013-01-05 18:22:00,28.9,16.8,28.88,North,0,0.0,0.0,60,0.00,,,0.00,0.00,VWS V14.01,2013-01-06 00:22:00,
2013-01-05 18:23:00,28.8,16.2,28.88,North,0,0.0,0.0,59,0.00,,,0.00,0.00,VWS V14.01,2013-01-06 00:23:00,
2013-01-05 18:24:00,28.6,16.1,28.88,North,0,0.0,0.0,59,0.00,,,0.00,0.00,VWS V14.01,2013-01-06 00:24:00,
2013-01-05 18:25:00,28.6,16.1,28.88,North,0,0.0,0.0,59,0.00,,,0.00,0.00,VWS V14.01,2013-01-06 00:25:00,
2013-01-05 18:26:00,28.6,16.1,28.88,North,0,0.0,0.0,59,0.00,,,0.00,0.00,VWS V14.01,2013-01-06 00:26:00,
2013-01-05 18:27:00,28.2,16.1,28.88,North,0,0.0,0.0,60,0.00,,,0.00,0.00,VWS V14.01,2013-01-06 00:27:00,
2013-01-05 18:28:00,28.2,16.1,28.88,North,0,0.0,0.0,60,0.00,,,0.00,0.00,VWS V14.01,2013-01-06 00:28:00,
2013-01-05 18:29:00,28.2,16.1,28.88,North,0,0.0,0.0,60,0.00,,,0.00,0.00,VWS V14.01,2013-01-06 00:29:00,
2013-01-05 18:30:00,28.2,16.1,28.88,North,0,0.0,0.0,60,0.00,,,0.00,0.00,VWS V14.01,2013-01-06 00:30:00,
2013-01-05 18:31:00,28.2,16.1,28.88,North,0,0.0,0.0,60,0.00,,,0.00,0.00,VWS V14.01,2013-01-06 00:31:00,
2013-01-05 18:32:00,28.0,16.0,28.88,North,0,0.0,0.0,60,0.00,,,0.00,0.00,VWS V14.01,2013-01-06 00:32:00,
2013-01-05 18:33:00,28.0,16.3,28.88,North,0,0.0,0.0,61,0.00,,,0.00,0.00,VWS V14.01,2013-01-06 00:33:00,
2013-01-05 18:34:00,28.2,16.5,28.88,North,0,0.0,0.0,61,0.00,,,0.00,0.00,VWS V14.01,2013-01-06 00:34:00,
2013-01-05 18:35:00,28.4,17.4,28.91,North,0,0.0,0.0,63,0.00,,,0.00,0.00,VWS V14.01,2013-01-06 00:35:00,
2013-01-05 18:36:00,28.6,17.6,28.91,North,0,0.0,0.0,63,0.00,,,0.00,0.00,VWS V14.01,2013-01-06 00:36:00,
2013-01-05 18:37:00,28.6,17.6,28.91,North,0,0.0,0.0,63,0.00,,,0.00,0.00,VWS V14.01,2013-01-06 00:37:00,
2013-01-05 18:38:00,28.6,17.6,28.91,North,0,0.0,0.0,63,0.00,,,0.00,0.00,VWS V14.01,2013-01-06 00:38:00,
2013-01-05 18:39:00,28.6,17.6,28.91,North,0,0.0,0.0,63,0.00,,,0.00,0.00,VWS V14.01,2013-01-06 00:39:00,
2013-01-05 18:40:00,28.6,17.2,28.91,North,0,0.0,0.0,62,0.00,,,0.00,0.00,VWS V14.01,2013-01-06 00:40:00,
2013-01-05 18:41:00,28.6,17.2,28.91,North,0,0.0,0.0,62,0.00,,,0.00,0.00,VWS V14.01,2013-01-06 00:41:00,
2013-01-05 18:42:00,28.4,17.1,28.91,North,0,0.0,0.0,62,0.00,,,0.00,0.00,VWS V14.01,2013-01-06 00:42:00,
2013-01-05 18:43:00,28.4,17.1,28.91,North,0,0.0,0.0,62,0.00,,,0.00,0.00,VWS V14.01,2013-01-06 00:43:00,
2013-01-05 18:44:00,28.4,17.1,28.91,North,0,0.0,0.0,62,0.00,,,0.00,0.00,VWS V14.01,2013-01-06 00:44:00,
2013-01-05 18:45:00,28.2,16.9,28.91,North,0,0.0,0.0,62,0.00,,,0.00,0.00,VWS V14.01,2013-01-06 00:45:00,
2013-01-05 18:46:00,28.2,16.9,28.91,North,0,0.0,0.0,62,0.00,,,0.00,0.00,VWS V14.01,2013-01-06 00:46:00,
2013-01-05 18:47:00,28.2,16.9,28.91,North,0,0.0,0.0,62,0.00,,,0.00,0.00,VWS V14.01,2013-01-06 00:47:00,
2013-01-05 18:48:00,28.4,17.1,28.91,North,0,0.0,0.0,62,0.00,,,0.00,0.00,VWS V14.01,2013-01-06 00:48:00,
2013-01-05 18:49:00,28.2,17.3,28.91,North,0,0.0,0.0,63,0.00,,,0.00,0.00,VWS V14.01,2013-01-06 00:49:00,
2013-01-05 18:50:00,28.2,16.9,28.91,North,0,0.0,0.0,62,0.00,,,0.00,0.00,VWS V14.01,2013-01-06 00:50:00,
2013-01-05 18:51:00,28.2,17.3,28.91,North,0,0.0,0.0,63,0.00,,,0.00,0.00,VWS V14.01,2013-01-06 00:51:00,
2013-01-05 18:52:00,28.4,17.4,28.91,North,0,0.0,0.0,63,0.00,,,0.00,0.00,VWS V14.01,2013-01-06 00:52:00,
2013-01-05 18:53:00,28.4,17.4,28.91,North,0,0.0,0.0,63,0.00,,,0.00,0.00,VWS V14.01,2013-01-06 00:53:00,
2013-01-05 18:54:00,28.4,17.4,28.91,North,0,0.0,0.0,63,0.00,,,0.00,0.00,VWS V14.01,2013-01-06 00:54:00,
2013-01-05 18:55:00,28.2,17.3,28.91,North,0,0.0,0.0,63,0.00,,,0.00,0.00,VWS V14.01,2013-01-06 00:55:00,
2013-01-05 18:56:00,28.0,16.7,28.91,North,0,0.0,0.0,62,0.00,,,0.00,0.00,VWS V14.01,2013-01-06 00:56:00,
2013-01-05 18:57:00,28.0,16.7,28.91,North,0,0.0,0.0,62,0.00,,,0.00,0.00,VWS V14.01,2013-01-06 00:57:00,
2013-01-05 18:58:00,27.9,16.5,28.91,North,0,0.0,0.0,62,0.00,,,0.00,0.00,VWS V14.01,2013-01-06 00:58:00,
2013-01-05 18:59:00,27.9,16.5,28.91,North,0,0.0,0.0,62,0.00,,,0.00,0.00,VWS V14.01,2013-01-06 00:59:00,
2013-01-05 19:00:00,27.9,16.5,28.91,North,0,0.0,0.0,62,0.00,,,0.00,0.00,VWS V14.01,2013-01-06 01:00:00,
2013-01-05 19:01:00,27.9,16.5,28.91,North,0,0.0,0.0,62,0.00,,,0.00,0.00,VWS V14.01,2013-01-06 01:01:00,
2013-01-05 19:02:00,27.9,16.5,28.91,North,0,0.0,0.0,62,0.00,,,0.00,0.00,VWS V14.01,2013-01-06 01:02:00,
2013-01-05 19:03:00,27.9,16.5,28.91,North,0,0.0,0.0,62,0.00,,,0.00,0.00,VWS V14.01,2013-01-06 01:03:00,
2013-01-05 19:04:00,27.9,16.5,28.91,North,0,0.0,0.0,62,0.00,,,0.00,0.00,VWS V14.01,2013-01-06 01:04:00,
2013-01-05 19:05:00,27.7,16.4,28.91,North,0,0.0,0.0,62,0.00,,,0.00,0.00,VWS V14.01,2013-01-06 01:05:00,
2013-01-05 19:06:00,27.5,16.2,28.91,North,0,0.0,0.0,62,0.00,,,0.00,0.00,VWS V14.01,2013-01-06 01:06:00,
2013-01-05 19:07:00,27.5,16.2,28.91,North,0,0.0,0.0,62,0.00,,,0.00,0.00,VWS V14.01,2013-01-06 01:07:00,
2013-01-05 19:08:00,27.3,16.0,28.91,North,0,0.0,0.0,62,0.00,,,0.00,0.00,VWS V14.01,2013-01-06 01:08:00,
2013-01-05 19:09:00,27.3,16.0,28.91,North,0,0.0,0.0,62,0.00,,,0.00,0.00,VWS V14.01,2013-01-06 01:09:00,
2013-01-05 19:10:00,27.1,15.9,28.91,North,0,0.0,0.0,62,0.00,,,0.00,0.00,VWS V14.01,2013-01-06 01:10:00,
2013-01-05 19:11:00,27.1,15.9,28.91,North,0,0.0,0.0,62,0.00,,,0.00,0.00,VWS V14.01,2013-01-06 01:11:00,
2013-01-05 19:12:00,27.1,15.9,28.91,North,0,0.0,0.0,62,0.00,,,0.00,0.00,VWS V14.01,2013-01-06 01:12:00,
2013-01-05 19:13:00,27.1,16.2,28.91,North,0,0.0,0.0,63,0.00,,,0.00,0.00,VWS V14.01,2013-01-06 01:13:00,
2013-01-05 19:14:00,27.1,16.2,28.91,North,0,0.0,0.0,63,0.00,,,0.00,0.00,VWS V14.01,2013-01-06 01:14:00,
2013-01-05 19:15:00,27.1,16.2,28.91,North,0,0.0,0.0,63,0.00,,,0.00,0.00,VWS V14.01,2013-01-06 01:15:00,
2013-01-05 19:16:00,27.1,16.2,28.91,North,0,0.0,0.0,63,0.00,,,0.00,0.00,VWS V14.01,2013-01-06 01:16:00,
2013-01-05 19:17:00,27.1,16.2,28.91,North,0,0.0,0.0,63,0.00,,,0.00,0.00,VWS V14.01,2013-01-06 01:17:00,
2013-01-05 19:18:00,27.1,16.2,28.91,North,0,0.0,0.0,63,0.00,,,0.00,0.00,VWS V14.01,2013-01-06 01:18:00,
2013-01-05 19:19:00,27.1,16.6,28.91,North,0,0.0,0.0,64,0.00,,,0.00,0.00,VWS V14.01,2013-01-06 01:19:00,
2013-01-05 19:20:00,27.1,16.6,28.94,North,0,0.0,0.0,64,0.00,,,0.00,0.00,VWS V14.01,2013-01-06 01:20:00,
2013-01-05 19:21:00,27.1,16.6,28.94,North,0,0.0,0.0,64,0.00,,,0.00,0.00,VWS V14.01,2013-01-06 01:21:00,
2013-01-05 19:22:00,27.1,16.6,28.94,North,0,0.0,0.0,64,0.00,,,0.00,0.00,VWS V14.01,2013-01-06 01:22:00,
2013-01-05 19:23:00,27.0,16.1,28.94,North,0,0.0,0.0,63,0.00,,,0.00,0.00,VWS V14.01,2013-01-06 01:23:00,
2013-01-05 19:24:00,27.0,16.1,28.94,North,0,0.0,0.0,63,0.00,,,0.00,0.00,VWS V14.01,2013-01-06 01:24:00,
2013-01-05 19:25:00,27.0,16.1,28.94,North,0,0.0,0.0,63,0.00,,,0.00,0.00,VWS V14.01,2013-01-06 01:25:00,
2013-01-05 19:26:00,27.0,16.4,28.94,North,0,0.0,0.0,64,0.00,,,0.00,0.00,VWS V14.01,2013-01-06 01:26:00,
2013-01-05 19:27:00,26.8,16.2,28.94,North,0,0.0,0.0,64,0.00,,,0.00,0.00,VWS V14.01,2013-01-06 01:27:00,
2013-01-05 19:28:00,26.8,16.2,28.94,North,0,0.0,0.0,64,0.00,,,0.00,0.00,VWS V14.01,2013-01-06 01:28:00,
2013-01-05 19:29:00,26.8,16.2,28.94,North,0,0.0,0.0,64,0.00,,,0.00,0.00,VWS V14.01,2013-01-06 01:29:00,
2013-01-05 19:30:00,26.8,15.9,28.94,North,0,0.0,0.0,63,0.00,,,0.00,0.00,VWS V14.01,2013-01-06 01:30:00,
2013-01-05 19:31:00,26.6,16.1,28.94,North,0,0.0,0.0,64,0.00,,,0.00,0.00,VWS V14.01,2013-01-06 01:31:00,
2013-01-05 19:32:00,26.4,15.6,28.94,North,0,0.0,0.0,63,0.00,,,0.00,0.00,VWS V14.01,2013-01-06 01:32:00,
2013-01-05 19:33:00,26.4,15.9,28.94,North,0,0.0,0.0,64,0.00,,,0.00,0.00,VWS V14.01,2013-01-06 01:33:00,
2013-01-05 19:34:00,26.4,15.9,28.94,North,0,0.0,0.0,64,0.00,,,0.00,0.00,VWS V14.01,2013-01-06 01:34:00,
2013-01-05 19:35:00,26.4,15.9,28.97,North,0,0.0,0.0,64,0.00,,,0.00,0.00,VWS V14.01,2013-01-06 01:35:00,
2013-01-05 19:36:00,26.4,15.9,28.97,North,0,0.0,0.0,64,0.00,,,0.00,0.00,VWS V14.01,2013-01-06 01:36:00,
2013-01-05 19:37:00,26.4,15.9,28.97,North,0,0.0,0.0,64,0.00,,,0.00,0.00,VWS V14.01,2013-01-06 01:37:00,
2013-01-05 19:38:00,26.2,15.7,28.97,North,0,0.0,0.0,64,0.00,,,0.00,0.00,VWS V14.01,2013-01-06 01:38:00,
2013-01-05 19:39:00,26.2,15.7,28.97,North,0,0.0,0.0,64,0.00,,,0.00,0.00,VWS V14.01,2013-01-06 01:39:00,
2013-01-05 19:40:00,26.4,16.3,28.97,North,0,0.0,0.0,65,0.00,,,0.00,0.00,VWS V14.01,2013-01-06 01:40:00,
2013-01-05 19:41:00,26.4,16.3,28.97,North,0,0.0,0.0,65,0.00,,,0.00,0.00,VWS V14.01,2013-01-06 01:41:00,
2013-01-05 19:42:00,26.4,16.6,28.97,North,0,0.0,0.0,66,0.00,,,0.00,0.00,VWS V14.01,2013-01-06 01:42:00,
2013-01-05 19:43:00,26.4,16.6,28.97,North,0,0.0,0.0,66,0.00,,,0.00,0.00,VWS V14.01,2013-01-06 01:43:00,
2013-01-05 19:44:00,26.4,16.6,28.97,North,0,0.0,0.0,66,0.00,,,0.00,0.00,VWS V14.01,2013-01-06 01:44:00,
2013-01-05 19:45:00,26.6,16.8,28.97,North,0,0.0,0.0,66,0.00,,,0.00,0.00,VWS V14.01,2013-01-06 01:45:00,
2013-01-05 19:46:00,26.6,16.8,28.97,North,0,0.0,0.0,66,0.00,,,0.00,0.00,VWS V14.01,2013-01-06 01:46:00,
2013-01-05 19:47:00,26.6,16.8,28.97,North,0,0.0,0.0,66,0.00,,,0.00,0.00,VWS V14.01,2013-01-06 01:47:00,
2013-01-05 19:48:00,26.4,16.6,28.97,North,0,0.0,0.0,66,0.00,,,0.00,0.00,VWS V14.01,2013-01-06 01:48:00,
2013-01-05 19:49:00,26.4,16.3,28.97,North,0,0.0,0.0,65,0.00,,,0.00,0.00,VWS V14.01,2013-01-06 01:49:00,
2013-01-05 19:50:00,26.4,16.6,28.97,North,0,0.0,0.0,66,0.00,,,0.00,0.00,VWS V14.01,2013-01-06 01:50:00,
2013-01-05 19:51:00,26.2,16.1,28.97,North,0,0.0,0.0,65,0.00,,,0.00,0.00,VWS V14.01,2013-01-06 01:51:00,
2013-01-05 19:52:00,26.2,16.1,28.97,North,0,0.0,0.0,65,0.00,,,0.00,0.00,VWS V14.01,2013-01-06 01:52:00,
2013-01-05 19:53:00,26.1,15.9,28.97,North,0,0.0,0.0,65,0.00,,,0.00,0.00,VWS V14.01,2013-01-06 01:53:00,
2013-01-05 19:54:00,26.1,15.9,28.97,North,0,0.0,0.0,65,0.00,,,0.00,0.00,VWS V14.01,2013-01-06 01:54:00,
2013-01-05 19:55:00,26.1,15.9,28.97,North,0,0.0,0.0,65,0.00,,,0.00,0.00,VWS V14.01,2013-01-06 01:55:00,
2013-01-05 19:56:00,25.9,15.8,28.97,North,0,0.0,0.0,65,0.00,,,0.00,0.00,VWS V14.01,2013-01-06 01:56:00,
2013-01-05 19:57:00,25.9,15.8,28.97,North,0,0.0,0.0,65,0.00,,,0.00,0.00,VWS V14.01,2013-01-06 01:57:00,
2013-01-05 19:58:00,25.7,15.2,28.97,North,0,0.0,0.0,64,0.00,,,0.00,0.00,VWS V14.01,2013-01-06 01:58:00,
2013-01-05 19:59:00,25.7,15.6,28.97,North,0,0.0,0.0,65,0.00,,,0.00,0.00,VWS V14.01,2013-01-06 01:59:00,
2013-01-05 20:00:00,25.7,15.6,28.97,North,0,0.0,0.0,65,0.00,,,0.00,0.00,VWS V14.01,2013-01-06 02:00:00,
2013-01-05 20:01:00,25.7,15.6,28.97,North,0,0.0,0.0,65,0.00,,,0.00,0.00,VWS V14.01,2013-01-06 02:01:00,
2013-01-05 20:02:00,25.5,15.4,28.97,North,0,0.0,0.0,65,0.00,,,0.00,0.00,VWS V14.01,2013-01-06 02:02:00,
2013-01-05 20:03:00,25.5,15.8,28.97,North,0,0.0,0.0,66,0.00,,,0.00,0.00,VWS V14.01,2013-01-06 02:03:00,
2013-01-05 20:04:00,25.3,15.2,28.97,North,0,0.0,0.0,65,0.00,,,0.00,0.00,VWS V14.01,2013-01-06 02:04:00,
2013-01-05 20:05:00,25.3,15.2,28.97,North,0,0.0,0.0,65,0.00,,,0.00,0.00,VWS V14.01,2013-01-06 02:05:00,
2013-01-05 20:06:00,25.5,15.8,28.97,North,0,0.0,0.0,66,0.00,,,0.00,0.00,VWS V14.01,2013-01-06 02:06:00,
2013-01-05 20:07:00,25.5,15.8,28.97,North,0,0.0,0.0,66,0.00,,,0.00,0.00,VWS V14.01,2013-01-06 02:07:00,
2013-01-05 20:08:00,25.3,15.6,28.97,North,0,0.0,0.0,66,0.00,,,0.00,0.00,VWS V14.01,2013-01-06 02:08:00,
2013-01-05 20:09:00,25.3,15.6,28.97,North,0,0.0,0.0,66,0.00,,,0.00,0.00,VWS V14.01,2013-01-06 02:09:00,
2013-01-05 20:10:00,25.3,15.6,28.97,North,0,0.0,0.0,66,0.00,,,0.00,0.00,VWS V14.01,2013-01-06 02:10:00,
2013-01-05 20:11:00,25.3,15.6,28.97,North,0,0.0,0.0,66,0.00,,,0.00,0.00,VWS V14.01,2013-01-06 02:11:00,
2013-01-05 20:12:00,25.3,15.6,28.97,North,0,0.0,0.0,66,0.00,,,0.00,0.00,VWS V14.01,2013-01-06 02:12:00,
2013-01-05 20:13:00,25.3,15.6,28.97,North,0,0.0,0.0,66,0.00,,,0.00,0.00,VWS V14.01,2013-01-06 02:13:00,
2013-01-05 20:14:00,25.3,15.6,28.97,North,0,0.0,0.0,66,0.00,,,0.00,0.00,VWS V14.01,2013-01-06 02:14:00,
2013-01-05 20:15:00,25.3,15.6,28.97,North,0,0.0,0.0,66,0.00,,,0.00,0.00,VWS V14.01,2013-01-06 02:15:00,
2013-01-05 20:16:00,25.3,15.6,28.97,North,0,0.0,0.0,66,0.00,,,0.00,0.00,VWS V14.01,2013-01-06 02:16:00,
2013-01-05 20:17:00,25.3,15.9,28.97,North,0,0.0,0.0,67,0.00,,,0.00,0.00,VWS V14.01,2013-01-06 02:17:00,
2013-01-05 20:18:00,25.3,15.9,28.97,North,0,0.0,0.0,67,0.00,,,0.00,0.00,VWS V14.01,2013-01-06 02:18:00,
2013-01-05 20:19:00,25.5,16.4,28.97,North,0,0.0,0.0,68,0.00,,,0.00,0.00,VWS V14.01,2013-01-06 02:19:00,
2013-01-05 20:20:00,25.5,16.4,28.97,North,0,0.0,0.0,68,0.00,,,0.00,0.00,VWS V14.01,2013-01-06 02:20:00,
2013-01-05 20:21:00,25.7,16.6,28.97,North,0,0.0,0.0,68,0.00,,,0.00,0.00,VWS V14.01,2013-01-06 02:21:00,
2013-01-05 20:22:00,25.7,16.6,28.97,North,0,0.0,0.0,68,0.00,,,0.00,0.00,VWS V14.01,2013-01-06 02:22:00,
2013-01-05 20:23:00,25.7,16.3,28.97,North,0,0.0,0.0,67,0.00,,,0.00,0.00,VWS V14.01,2013-01-06 02:23:00,
2013-01-05 20:24:00,25.7,15.9,28.97,North,0,0.0,0.0,66,0.00,,,0.00,0.00,VWS V14.01,2013-01-06 02:24:00,
2013-01-05 20:25:00,25.7,15.9,28.97,North,0,0.0,0.0,66,0.00,,,0.00,0.00,VWS V14.01,2013-01-06 02:25:00,
2013-01-05 20:26:00,25.9,15.8,28.97,North,0,0.0,0.0,65,0.00,,,0.00,0.00,VWS V14.01,2013-01-06 02:26:00,
2013-01-05 20:27:00,25.9,15.8,28.97,North,0,0.0,0.0,65,0.00,,,0.00,0.00,VWS V14.01,2013-01-06 02:27:00,
2013-01-05 20:28:00,25.9,15.4,28.97,North,0,0.0,0.0,64,0.00,,,0.00,0.00,VWS V14.01,2013-01-06 02:28:00,
2013-01-05 20:29:00,25.7,15.2,28.97,North,0,0.0,0.0,64,0.00,,,0.00,0.00,VWS V14.01,2013-01-06 02:29:00,
2013-01-05 20:30:00,25.7,15.2,28.97,North,0,0.0,0.0,64,0.00,,,0.00,0.00,VWS V14.01,2013-01-06 02:30:00,
2013-01-05 20:31:00,25.7,15.2,28.97,North,0,0.0,0.0,64,0.00,,,0.00,0.00,VWS V14.01,2013-01-06 02:31:00,
2013-01-05 20:32:00,25.7,15.2,28.97,North,0,0.0,0.0,64,0.00,,,0.00,0.00,VWS V14.01,2013-01-06 02:32:00,
2013-01-05 20:33:00,25.7,15.2,28.97,North,0,0.0,0.0,64,0.00,,,0.00,0.00,VWS V14.01,2013-01-06 02:33:00,
2013-01-05 20:34:00,25.5,14.7,28.97,North,0,0.0,0.0,63,0.00,,,0.00,0.00,VWS V14.01,2013-01-06 02:34:00,
2013-01-05 20:35:00,25.5,14.7,28.97,North,0,0.0,0.0,63,0.00,,,0.00,0.00,VWS V14.01,2013-01-06 02:35:00,
2013-01-05 20:36:00,25.5,14.7,28.97,North,0,0.0,0.0,63,0.00,,,0.00,0.00,VWS V14.01,2013-01-06 02:36:00,
2013-01-05 20:37:00,25.3,14.5,28.97,North,0,0.0,0.0,63,0.00,,,0.00,0.00,VWS V14.01,2013-01-06 02:37:00,
2013-01-05 20:38:00,25.3,14.5,28.97,North,0,0.0,0.0,63,0.00,,,0.00,0.00,VWS V14.01,2013-01-06 02:38:00,
2013-01-05 20:39:00,25.3,14.2,28.97,North,0,0.0,0.0,62,0.00,,,0.00,0.00,VWS V14.01,2013-01-06 02:39:00,
2013-01-05 20:40:00,25.3,14.2,28.97,North,0,0.0,0.0,62,0.00,,,0.00,0.00,VWS V14.01,2013-01-06 02:40:00,
2013-01-05 20:41:00,25.3,14.2,28.97,North,0,0.0,0.0,62,0.00,,,0.00,0.00,VWS V14.01,2013-01-06 02:41:00,
2013-01-05 20:42:00,25.3,14.2,28.97,North,0,0.0,0.0,62,0.00,,,0.00,0.00,VWS V14.01,2013-01-06 02:42:00,
2013-01-05 20:43:00,25.3,14.2,28.97,North,0,0.0,0.0,62,0.00,,,0.00,0.00,VWS V14.01,2013-01-06 02:43:00,
2013-01-05 20:44:00,25.3,14.2,28.97,North,0,0.0,0.0,62,0.00,,,0.00,0.00,VWS V14.01,2013-01-06 02:44:00,
2013-01-05 20:45:00,25.3,14.2,28.97,North,0,0.0,0.0,62,0.00,,,0.00,0.00,VWS V14.01,2013-01-06 02:45:00,
2013-01-05 20:46:00,25.2,14.0,28.97,North,0,0.0,0.0,62,0.00,,,0.00,0.00,VWS V14.01,2013-01-06 02:46:00,
2013-01-05 20:47:00,25.2,14.0,28.97,North,0,0.0,0.0,62,0.00,,,0.00,0.00,VWS V14.01,2013-01-06 02:47:00,
2013-01-05 20:48:00,25.2,13.6,28.97,North,0,0.0,0.0,61,0.00,,,0.00,0.00,VWS V14.01,2013-01-06 02:48:00,
2013-01-05 20:49:00,25.0,13.4,28.97,North,0,0.0,0.0,61,0.00,,,0.00,0.00,VWS V14.01,2013-01-06 02:49:00,
2013-01-05 20:50:00,25.0,13.4,28.97,North,0,0.0,0.0,61,0.00,,,0.00,0.00,VWS V14.01,2013-01-06 02:50:00,
2013-01-05 20:51:00,25.0,13.4,28.97,North,0,0.0,0.0,61,0.00,,,0.00,0.00,VWS V14.01,2013-01-06 02:51:00,
2013-01-05 20:52:00,25.0,13.4,28.97,North,0,0.0,0.0,61,0.00,,,0.00,0.00,VWS V14.01,2013-01-06 02:52:00,
2013-01-05 20:53:00,25.0,13.4,28.97,North,0,0.0,0.0,61,0.00,,,0.00,0.00,VWS V14.01,2013-01-06 02:53:00,
2013-01-05 20:54:00,24.8,13.6,28.97,North,0,0.0,0.0,62,0.00,,,0.00,0.00,VWS V14.01,2013-01-06 02:54:00,
2013-01-05 20:55:00,24.8,13.6,28.97,North,0,0.0,0.0,62,0.00,,,0.00,0.00,VWS V14.01,2013-01-06 02:55:00,
2013-01-05 20:56:00,24.8,13.6,28.97,North,0,0.0,0.0,62,0.00,,,0.00,0.00,VWS V14.01,2013-01-06 02:56:00,
2013-01-05 20:57:00,24.6,13.5,28.97,North,0,0.0,0.0,62,0.00,,,0.00,0.00,VWS V14.01,2013-01-06 02:57:00,
2013-01-05 20:58:00,24.6,13.5,28.97,North,0,0.0,0.0,62,0.00,,,0.00,0.00,VWS V14.01,2013-01-06 02:58:00,
2013-01-05 20:59:00,24.4,13.3,28.97,North,0,0.0,0.0,62,0.00,,,0.00,0.00,VWS V14.01,2013-01-06 02:59:00,
2013-01-05 21:00:00,24.4,13.3,28.97,North,0,0.0,0.0,62,0.00,,,0.00,0.00,VWS V14.01,2013-01-06 03:00:00,
2013-01-05 21:01:00,24.4,13.3,28.97,North,0,0.0,0.0,62,0.00,,,0.00,0.00,VWS V14.01,2013-01-06 03:01:00,
2013-01-05 21:02:00,24.4,13.3,28.97,North,0,0.0,0.0,62,0.00,,,0.00,0.00,VWS V14.01,2013-01-06 03:02:00,
2013-01-05 21:03:00,24.4,13.3,28.97,North,0,0.0,0.0,62,0.00,,,0.00,0.00,VWS V14.01,2013-01-06 03:03:00,
2013-01-05 21:04:00,24.4,13.3,28.97,North,0,0.0,0.0,62,0.00,,,0.00,0.00,VWS V14.01,2013-01-06 03:04:00,
2013-01-05 21:05:00,24.4,13.3,28.97,North,0,0.0,0.0,62,0.00,,,0.00,0.00,VWS V14.01,2013-01-06 03:05:00,
2013-01-05 21:06:00,24.3,13.1,28.97,North,0,0.0,0.0,62,0.00,,,0.00,0.00,VWS V14.01,2013-01-06 03:06:00,
2013-01-05 21:07:00,24.3,13.1,28.97,North,0,0.0,0.0,62,0.00,,,0.00,0.00,VWS V14.01,2013-01-06 03:07:00,
2013-01-05 21:08:00,24.3,13.1,28.97,North,0,0.0,0.0,62,0.00,,,0.00,0.00,VWS V14.01,2013-01-06 03:08:00,
2013-01-05 21:09:00,24.1,13.0,28.97,North,0,0.0,0.0,62,0.00,,,0.00,0.00,VWS V14.01,2013-01-06 03:09:00,
2013-01-05 21:10:00,24.1,13.0,28.97,North,0,0.0,0.0,62,0.00,,,0.00,0.00,VWS V14.01,2013-01-06 03:10:00,
2013-01-05 21:11:00,23.9,12.8,28.97,North,0,0.0,0.0,62,0.00,,,0.00,0.00,VWS V14.01,2013-01-06 03:11:00,
2013-01-05 21:12:00,23.9,12.8,28.97,North,0,0.0,0.0,62,0.00,,,0.00,0.00,VWS V14.01,2013-01-06 03:12:00,
2013-01-05 21:13:00,23.7,13.0,28.97,North,0,0.0,0.0,63,0.00,,,0.00,0.00,VWS V14.01,2013-01-06 03:13:00,
2013-01-05 21:14:00,23.5,12.8,28.97,North,0,0.0,0.0,63,0.00,,,0.00,0.00,VWS V14.01,2013-01-06 03:14:00,
2013-01-05 21:15:00,23.5,12.8,28.97,North,0,0.0,0.0,63,0.00,,,0.00,0.00,VWS V14.01,2013-01-06 03:15:00,
2013-01-05 21:16:00,23.5,12.8,28.97,North,0,0.0,0.0,63,0.00,,,0.00,0.00,VWS V14.01,2013-01-06 03:16:00,
2013-01-05 21:17:00,23.5,12.4,28.97,North,0,0.0,0.0,62,0.00,,,0.00,0.00,VWS V14.01,2013-01-06 03:17:00,
2013-01-05 21:18:00,23.5,12.8,28.97,North,0,0.0,0.0,63,0.00,,,0.00,0.00,VWS V14.01,2013-01-06 03:18:00,
2013-01-05 21:19:00,23.4,12.6,29.00,North,0,0.0,0.0,63,0.00,,,0.00,0.00,VWS V14.01,2013-01-06 03:19:00,
2013-01-05 21:20:00,23.4,12.6,29.00,North,0,0.0,0.0,63,0.00,,,0.00,0.00,VWS V14.01,2013-01-06 03:20:00,
2013-01-05 21:21:00,23.4,12.6,29.00,North,0,0.0,0.0,63,0.00,,,0.00,0.00,VWS V14.01,2013-01-06 03:21:00,
2013-01-05 21:22:00,23.4,12.6,29.00,North,0,0.0,0.0,63,0.00,,,0.00,0.00,VWS V14.01,2013-01-06 03:22:00,
2013-01-05 21:23:00,23.4,12.6,29.00,North,0,0.0,0.0,63,0.00,,,0.00,0.00,VWS V14.01,2013-01-06 03:23:00,
2013-01-05 21:24:00,23.4,12.6,29.00,North,0,0.0,0.0,63,0.00,,,0.00,0.00,VWS V14.01,2013-01-06 03:24:00,
2013-01-05 21:25:00,23.4,12.6,29.00,North,0,0.0,0.0,63,0.00,,,0.00,0.00,VWS V14.01,2013-01-06 03:25:00,
2013-01-05 21:26:00,23.2,12.8,29.00,North,0,0.0,0.0,64,0.00,,,0.00,0.00,VWS V14.01,2013-01-06 03:26:00,
2013-01-05 21:27:00,23.2,12.8,29.00,North,0,0.0,0.0,64,0.00,,,0.00,0.00,VWS V14.01,2013-01-06 03:27:00,
2013-01-05 21:28:00,23.2,12.8,29.00,North,0,0.0,0.0,64,0.00,,,0.00,0.00,VWS V14.01,2013-01-06 03:28:00,
2013-01-05 21:29:00,23.2,12.8,29.00,North,0,0.0,0.0,64,0.00,,,0.00,0.00,VWS V14.01,2013-01-06 03:29:00,
2013-01-05 21:30:00,23.2,12.8,29.00,North,0,0.0,0.0,64,0.00,,,0.00,0.00,VWS V14.01,2013-01-06 03:30:00,
2013-01-05 21:31:00,23.2,12.8,29.00,North,0,0.0,0.0,64,0.00,,,0.00,0.00,VWS V14.01,2013-01-06 03:31:00,
2013-01-05 21:32:00,23.2,12.8,29.00,North,0,0.0,0.0,64,0.00,,,0.00,0.00,VWS V14.01,2013-01-06 03:32:00,
2013-01-05 21:33:00,23.2,13.2,29.00,North,0,0.0,0.0,65,0.00,,,0.00,0.00,VWS V14.01,2013-01-06 03:33:00,
2013-01-05 21:34:00,23.2,13.2,29.00,North,0,0.0,0.0,65,0.00,,,0.00,0.00,VWS V14.01,2013-01-06 03:34:00,
2013-01-05 21:35:00,23.2,13.2,29.00,North,0,0.0,0.0,65,0.00,,,0.00,0.00,VWS V14.01,2013-01-06 03:35:00,
2013-01-05 21:36:00,23.2,13.2,29.00,North,0,0.0,0.0,65,0.00,,,0.00,0.00,VWS V14.01,2013-01-06 03:36:00,
2013-01-05 21:37:00,23.2,13.2,29.00,North,0,0.0,0.0,65,0.00,,,0.00,0.00,VWS V14.01,2013-01-06 03:37:00,
2013-01-05 21:38:00,23.2,13.2,29.00,North,0,0.0,0.0,65,0.00,,,0.00,0.00,VWS V14.01,2013-01-06 03:38:00,
2013-01-05 21:39:00,23.0,13.4,29.00,North,0,0.0,0.0,66,0.00,,,0.00,0.00,VWS V14.01,2013-01-06 03:39:00,
2013-01-05 21:40:00,23.0,13.4,29.00,North,0,0.0,0.0,66,0.00,,,0.00,0.00,VWS V14.01,2013-01-06 03:40:00,
2013-01-05 21:41:00,23.2,13.5,29.00,North,0,0.0,0.0,66,0.00,,,0.00,0.00,VWS V14.01,2013-01-06 03:41:00,
2013-01-05 21:42:00,23.0,13.4,29.00,North,0,0.0,0.0,66,0.00,,,0.00,0.00,VWS V14.01,2013-01-06 03:42:00,
2013-01-05 21:43:00,23.2,13.5,29.00,North,0,0.0,0.0,66,0.00,,,0.00,0.00,VWS V14.01,2013-01-06 03:43:00,
2013-01-05 21:44:00,23.0,13.4,29.00,North,0,0.0,0.0,66,0.00,,,0.00,0.00,VWS V14.01,2013-01-06 03:44:00,
2013-01-05 21:45:00,23.0,13.4,29.00,North,0,0.0,0.0,66,0.00,,,0.00,0.00,VWS V14.01,2013-01-06 03:45:00,
2013-01-05 21:46:00,23.0,13.4,29.00,North,0,0.0,0.0,66,0.00,,,0.00,0.00,VWS V14.01,2013-01-06 03:46:00,
2013-01-05 21:47:00,23.0,13.4,29.00,North,0,0.0,0.0,66,0.00,,,0.00,0.00,VWS V14.01,2013-01-06 03:47:00,
2013-01-05 21:48:00,23.0,13.4,29.00,North,0,0.0,0.0,66,0.00,,,0.00,0.00,VWS V14.01,2013-01-06 03:48:00,
2013-01-05 21:49:00,23.0,13.7,29.00,North,0,0.0,0.0,67,0.00,,,0.00,0.00,VWS V14.01,2013-01-06 03:49:00,
2013-01-05 21:50:00,23.0,13.7,29.00,North,0,0.0,0.0,67,0.00,,,0.00,0.00,VWS V14.01,2013-01-06 03:50:00,
2013-01-05 21:51:00,23.0,13.7,29.00,North,0,0.0,0.0,67,0.00,,,0.00,0.00,VWS V14.01,2013-01-06 03:51:00,
2013-01-05 21:52:00,23.0,13.4,29.00,North,0,0.0,0.0,66,0.00,,,0.00,0.00,VWS V14.01,2013-01-06 03:52:00,
2013-01-05 21:53:00,23.0,13.7,29.00,North,0,0.0,0.0,67,0.00,,,0.00,0.00,VWS V14.01,2013-01-06 03:53:00,
2013-01-05 21:54:00,22.8,13.2,29.00,North,0,0.0,0.0,66,0.00,,,0.00,0.00,VWS V14.01,2013-01-06 03:54:00,
2013-01-05 21:55:00,22.8,13.2,29.00,North,0,0.0,0.0,66,0.00,,,0.00,0.00,VWS V14.01,2013-01-06 03:55:00,
2013-01-05 21:56:00,22.8,13.2,29.00,North,0,0.0,0.0,66,0.00,,,0.00,0.00,VWS V14.01,2013-01-06 03:56:00,
2013-01-05 21:57:00,22.8,13.2,29.00,North,0,0.0,0.0,66,0.00,,,0.00,0.00,VWS V14.01,2013-01-06 03:57:00,
2013-01-05 21:58:00,22.8,13.2,29.00,North,0,0.0,0.0,66,0.00,,,0.00,0.00,VWS V14.01,2013-01-06 03:58:00,
2013-01-05 21:59:00,22.8,13.2,29.00,North,0,0.0,0.0,66,0.00,,,0.00,0.00,VWS V14.01,2013-01-06 03:59:00,
2013-01-05 22:00:00,22.8,13.2,29.00,North,0,0.0,0.0,66,0.00,,,0.00,0.00,VWS V14.01,2013-01-06 04:00:00,
2013-01-05 22:01:00,22.8,13.2,29.00,North,0,0.0,0.0,66,0.00,,,0.00,0.00,VWS V14.01,2013-01-06 04:01:00,
2013-01-05 22:02:00,22.8,13.2,29.00,North,0,0.0,0.0,66,0.00,,,0.00,0.00,VWS V14.01,2013-01-06 04:02:00,
2013-01-05 22:03:00,22.8,13.2,29.00,North,0,0.0,0.0,66,0.00,,,0.00,0.00,VWS V14.01,2013-01-06 04:03:00,
2013-01-05 22:04:00,22.6,13.0,29.03,North,0,0.0,0.0,66,0.00,,,0.00,0.00,VWS V14.01,2013-01-06 04:04:00,
2013-01-05 22:05:00,22.6,13.0,29.03,North,0,0.0,0.0,66,0.00,,,0.00,0.00,VWS V14.01,2013-01-06 04:05:00,
2013-01-05 22:06:00,22.6,13.0,29.03,North,0,0.0,0.0,66,0.00,,,0.00,0.00,VWS V14.01,2013-01-06 04:06:00,
2013-01-05 22:07:00,22.6,13.0,29.03,North,0,0.0,0.0,66,0.00,,,0.00,0.00,VWS V14.01,2013-01-06 04:07:00,
2013-01-05 22:08:00,22.6,13.0,29.03,North,0,0.0,0.0,66,0.00,,,0.00,0.00,VWS V14.01,2013-01-06 04:08:00,
2013-01-05 22:09:00,22.5,12.8,29.03,North,0,0.0,0.0,66,0.00,,,0.00,0.00,VWS V14.01,2013-01-06 04:09:00,
2013-01-05 22:10:00,22.5,12.8,29.03,North,0,0.0,0.0,66,0.00,,,0.00,0.00,VWS V14.01,2013-01-06 04:10:00,
2013-01-05 22:11:00,22.5,12.8,29.03,North,0,0.0,0.0,66,0.00,,,0.00,0.00,VWS V14.01,2013-01-06 04:11:00,
2013-01-05 22:12:00,22.3,12.7,29.03,North,0,0.0,0.0,66,0.00,,,0.00,0.00,VWS V14.01,2013-01-06 04:12:00,
2013-01-05 22:13:00,22.3,12.7,29.03,North,0,0.0,0.0,66,0.00,,,0.00,0.00,VWS V14.01,2013-01-06 04:13:00,
2013-01-05 22:14:00,22.1,12.5,29.03,North,0,0.0,0.0,66,0.00,,,0.00,0.00,VWS V14.01,2013-01-06 04:14:00,
2013-01-05 22:15:00,22.1,12.5,29.03,North,0,0.0,0.0,66,0.00,,,0.00,0.00,VWS V14.01,2013-01-06 04:15:00,
2013-01-05 22:16:00,22.1,12.5,29.03,North,0,0.0,0.0,66,0.00,,,0.00,0.00,VWS V14.01,2013-01-06 04:16:00,
2013-01-05 22:17:00,21.9,12.3,29.03,North,0,0.0,0.0,66,0.00,,,0.00,0.00,VWS V14.01,2013-01-06 04:17:00,
2013-01-05 22:18:00,21.9,12.3,29.03,North,0,0.0,0.0,66,0.00,,,0.00,0.00,VWS V14.01,2013-01-06 04:18:00,
2013-01-05 22:19:00,21.9,12.7,29.03,North,0,0.0,0.0,67,0.00,,,0.00,0.00,VWS V14.01,2013-01-06 04:19:00,
2013-01-05 22:20:00,21.9,12.7,29.03,North,0,0.0,0.0,67,0.00,,,0.00,0.00,VWS V14.01,2013-01-06 04:20:00,
2013-01-05 22:21:00,21.9,12.7,29.03,North,0,0.0,0.0,67,0.00,,,0.00,0.00,VWS V14.01,2013-01-06 04:21:00,
2013-01-05 22:22:00,21.9,12.7,29.03,North,0,0.0,0.0,67,0.00,,,0.00,0.00,VWS V14.01,2013-01-06 04:22:00,
2013-01-05 22:23:00,21.9,12.7,29.03,North,0,0.0,0.0,67,0.00,,,0.00,0.00,VWS V14.01,2013-01-06 04:23:00,
2013-01-05 22:24:00,21.7,12.1,29.03,North,0,0.0,0.0,66,0.00,,,0.00,0.00,VWS V14.01,2013-01-06 04:24:00,
2013-01-05 22:25:00,21.7,12.1,29.03,North,0,0.0,0.0,66,0.00,,,0.00,0.00,VWS V14.01,2013-01-06 04:25:00,
2013-01-05 22:26:00,21.7,12.1,29.03,North,0,0.0,0.0,66,0.00,,,0.00,0.00,VWS V14.01,2013-01-06 04:26:00,
2013-01-05 22:27:00,21.6,12.0,29.03,North,0,0.0,0.0,66,0.00,,,0.00,0.00,VWS V14.01,2013-01-06 04:27:00,
2013-01-05 22:28:00,21.4,11.8,29.03,North,0,0.0,0.0,66,0.00,,,0.00,0.00,VWS V14.01,2013-01-06 04:28:00,
2013-01-05 22:29:00,21.2,11.6,29.03,North,0,0.0,0.0,66,0.00,,,0.00,0.00,VWS V14.01,2013-01-06 04:29:00,
2013-01-05 22:30:00,21.2,11.6,29.03,North,0,0.0,0.0,66,0.00,,,0.00,0.00,VWS V14.01,2013-01-06 04:30:00,
2013-01-05 22:31:00,21.2,11.6,29.03,North,0,0.0,0.0,66,0.00,,,0.00,0.00,VWS V14.01,2013-01-06 04:31:00,
2013-01-05 22:32:00,21.2,11.6,29.03,North,0,0.0,0.0,66,0.00,,,0.00,0.00,VWS V14.01,2013-01-06 04:32:00,
2013-01-05 22:33:00,21.2,11.6,29.03,North,0,0.0,0.0,66,0.00,,,0.00,0.00,VWS V14.01,2013-01-06 04:33:00,
2013-01-05 22:34:00,21.2,11.6,29.03,North,0,0.0,0.0,66,0.00,,,0.00,0.00,VWS V14.01,2013-01-06 04:34:00,
2013-01-05 22:35:00,21.0,11.5,29.03,North,0,0.0,0.0,66,0.00,,,0.00,0.00,VWS V14.01,2013-01-06 04:35:00,
2013-01-05 22:36:00,21.0,11.5,29.03,North,0,0.0,0.0,66,0.00,,,0.00,0.00,VWS V14.01,2013-01-06 04:36:00,
2013-01-05 22:37:00,21.0,11.5,29.03,North,0,0.0,0.0,66,0.00,,,0.00,0.00,VWS V14.01,2013-01-06 04:37:00,
2013-01-05 22:38:00,21.0,11.5,29.03,North,0,0.0,0.0,66,0.00,,,0.00,0.00,VWS V14.01,2013-01-06 04:38:00,
2013-01-05 22:39:00,21.0,11.5,29.03,North,0,0.0,0.0,66,0.00,,,0.00,0.00,VWS V14.01,2013-01-06 04:39:00,
2013-01-05 22:40:00,21.0,11.5,29.03,North,0,0.0,0.0,66,0.00,,,0.00,0.00,VWS V14.01,2013-01-06 04:40:00,
2013-01-05 22:41:00,21.0,11.5,29.03,North,0,0.0,0.0,66,0.00,,,0.00,0.00,VWS V14.01,2013-01-06 04:41:00,
2013-01-05 22:42:00,21.0,11.8,29.03,North,0,0.0,0.0,67,0.00,,,0.00,0.00,VWS V14.01,2013-01-06 04:42:00,
2013-01-05 22:43:00,21.0,11.8,29.03,North,0,0.0,0.0,67,0.00,,,0.00,0.00,VWS V14.01,2013-01-06 04:43:00,
2013-01-05 22:44:00,21.0,11.8,29.03,North,0,0.0,0.0,67,0.00,,,0.00,0.00,VWS V14.01,2013-01-06 04:44:00,